Today

Time Wind Dr Wind Spd
mph
Wind Gust
mph
Hum In
%
Humid
%
TempI
F
Temp
F
Raw Bar
in
Tot Rain
in
UV Solar
W/sqm
DailyRain
in
HourRain
in
24HrRain
in
RainRate
in
07/20/19 12:00:22 AM 218 0.0 15.0 60 72 76.1 66.2 29.936 20.09 0.0 0 0.00 0.00 0.00 0.00
07/20/19 12:01:34 AM 218 0.0 0.0 53 72 76.1 66.1 29.938 20.09 0.0 0 0.00 0.00 0.00 0.00
07/20/19 12:02:23 AM 218 0.0 0.0 53 72 76.1 66.1 29.938 20.09 0.0 0 0.00 0.00 0.00 0.00
07/20/19 12:03:36 AM 218 0.0 0.0 53 72 76.1 66.0 29.935 20.09 0.0 0 0.00 0.00 0.00 0.00
07/20/19 12:04:28 AM 217 0.0 1.0 53 74 76.1 66.0 29.935 20.09 0.0 0 0.00 0.00 0.00 0.00
07/20/19 12:05:22 AM 217 0.0 1.0 53 74 76.1 65.9 29.935 20.09 0.0 0 0.00 0.00 0.00 0.00
07/20/19 12:06:34 AM 217 0.0 1.0 53 74 76.0 65.9 29.935 20.09 0.0 0 0.00 0.00 0.00 0.00
07/20/19 12:07:27 AM 217 0.0 1.0 53 73 76.0 65.8 29.935 20.09 0.0 0 0.00 0.00 0.00 0.00
07/20/19 12:08:36 AM 217 0.0 1.0 53 73 76.0 65.8 29.935 20.09 0.0 0 0.00 0.00 0.00 0.00
07/20/19 12:09:29 AM 217 1.0 1.0 53 73 76.0 65.7 29.933 20.09 0.0 0 0.00 0.00 0.00 0.00
07/20/19 12:10:23 AM 217 1.0 1.0 53 74 76.0 65.6 29.933 20.09 0.0 0 0.00 0.00 0.00 0.00
07/20/19 12:11:35 AM 217 2.0 2.0 53 75 76.0 65.5 29.934 20.09 0.0 0 0.00 0.00 0.00 0.00
07/20/19 12:12:28 AM 217 2.0 2.0 53 75 76.0 65.4 29.935 20.09 0.0 0 0.00 0.00 0.00 0.00
07/20/19 12:13:37 AM 217 1.0 2.0 53 75 76.0 65.3 29.934 20.09 0.0 0 0.00 0.00 0.00 0.00
07/20/19 12:14:27 AM 217 1.0 2.0 53 75 76.0 65.2 29.932 20.09 0.0 0 0.00 0.00 0.00 0.00
07/20/19 12:15:21 AM 217 2.0 3.0 53 75 76.0 65.2 29.932 20.09 0.0 0 0.00 0.00 0.00 0.00
07/20/19 12:16:36 AM 212 1.0 3.0 53 76 76.0 65.1 29.933 20.09 0.0 0 0.00 0.00 0.00 0.00
07/20/19 12:17:26 AM 212 1.0 3.0 53 76 76.0 65.0 29.933 20.09 0.0 0 0.00 0.00 0.00 0.00
07/20/19 12:18:20 AM 68 3.0 3.0 53 76 76.0 64.9 29.933 20.09 0.0 0 0.00 0.00 0.00 0.00
07/20/19 12:19:29 AM 66 3.0 3.0 53 76 76.0 64.8 29.932 20.09 0.0 0 0.00 0.00 0.00 0.00
07/20/19 12:20:23 AM 66 3.0 3.0 53 76 76.0 64.8 29.932 20.09 0.0 0 0.00 0.00 0.00 0.00
07/20/19 12:21:34 AM 66 2.0 3.0 53 76 76.0 64.7 29.933 20.09 0.0 0 0.00 0.00 0.00 0.00
07/20/19 12:22:28 AM 66 2.0 3.0 53 76 75.9 64.7 29.935 20.09 0.0 0 0.00 0.00 0.00 0.00
07/20/19 12:23:19 AM 66 2.0 3.0 53 76 75.9 64.7 29.935 20.09 0.0 0 0.00 0.00 0.00 0.00
07/20/19 12:24:28 AM 66 1.0 3.0 53 76 75.9 64.7 29.931 20.09 0.0 0 0.00 0.00 0.00 0.00
07/20/19 12:25:21 AM 66 0.0 3.0 53 76 75.9 64.7 29.931 20.09 0.0 0 0.00 0.00 0.00 0.00
07/20/19 12:26:33 AM 66 1.0 3.0 53 76 75.9 64.6 29.934 20.09 0.0 0 0.00 0.00 0.00 0.00
07/20/19 12:27:27 AM 66 1.0 3.0 53 76 75.9 64.6 29.933 20.09 0.0 0 0.00 0.00 0.00 0.00
07/20/19 12:28:20 AM 66 1.0 3.0 53 76 75.9 64.6 29.933 20.09 0.0 0 0.00 0.00 0.00 0.00
07/20/19 12:29:29 AM 66 2.0 3.0 53 76 75.9 64.5 29.931 20.09 0.0 0 0.00 0.00 0.00 0.00
07/20/19 12:30:20 AM 66 2.0 3.0 53 76 75.9 64.5 29.931 20.09 0.0 0 0.00 0.00 0.00 0.00
07/20/19 12:31:38 AM 66 2.0 3.0 53 76 75.9 64.5 29.935 20.09 0.0 0 0.00 0.00 0.00 0.00
07/20/19 12:32:29 AM 66 1.0 3.0 53 76 75.8 64.5 29.935 20.09 0.0 0 0.00 0.00 0.00 0.00
07/20/19 12:33:22 AM 66 2.0 3.0 53 76 75.8 64.5 29.935 20.09 0.0 0 0.00 0.00 0.00 0.00
07/20/19 12:34:37 AM 66 2.0 3.0 53 76 75.8 64.4 29.933 20.09 0.0 0 0.00 0.00 0.00 0.00
07/20/19 12:35:28 AM 66 0.0 3.0 53 76 75.8 64.4 29.933 20.09 0.0 0 0.00 0.00 0.00 0.00
07/20/19 12:36:18 AM 66 1.0 3.0 53 76 75.9 64.4 29.934 20.09 0.0 0 0.00 0.00 0.00 0.00
07/20/19 12:37:33 AM 66 1.0 3.0 53 76 75.8 64.4 29.933 20.09 0.0 0 0.00 0.00 0.00 0.00
07/20/19 12:38:27 AM 66 1.0 3.0 53 76 75.8 64.4 29.933 20.09 0.0 0 0.00 0.00 0.00 0.00
07/20/19 12:39:17 AM 66 2.0 3.0 53 76 75.8 64.4 29.933 20.09 0.0 0 0.00 0.00 0.00 0.00
07/20/19 12:40:26 AM 66 2.0 3.0 53 76 75.8 64.3 29.933 20.09 0.0 0 0.00 0.00 0.00 0.00
07/20/19 12:41:19 AM 66 1.0 3.0 53 76 75.8 64.3 29.933 20.09 0.0 0 0.00 0.00 0.00 0.00
07/20/19 12:42:31 AM 66 2.0 3.0 53 76 75.8 64.3 29.934 20.09 0.0 0 0.00 0.00 0.00 0.00
07/20/19 12:43:25 AM 66 2.0 3.0 53 76 75.8 64.3 29.934 20.09 0.0 0 0.00 0.00 0.00 0.00
07/20/19 12:44:15 AM 66 1.0 3.0 53 76 75.8 64.2 29.934 20.09 0.0 0 0.00 0.00 0.00 0.00
07/20/19 12:45:30 AM 66 0.0 3.0 53 76 75.8 64.2 29.933 20.09 0.0 0 0.00 0.00 0.00 0.00
07/20/19 12:46:18 AM 66 0.0 3.0 53 76 75.8 64.2 29.933 20.09 0.0 0 0.00 0.00 0.00 0.00
07/20/19 12:47:33 AM 66 0.0 3.0 53 76 75.8 64.2 29.933 20.09 0.0 0 0.00 0.00 0.00 0.00
07/20/19 12:48:26 AM 66 0.0 3.0 53 76 75.8 64.2 29.933 20.09 0.0 0 0.00 0.00 0.00 0.00
07/20/19 12:49:17 AM 66 0.0 3.0 53 76 75.8 64.1 29.935 20.09 0.0 0 0.00 0.00 0.00 0.00
07/20/19 12:50:32 AM 66 0.0 3.0 53 76 75.8 64.1 29.933 20.09 0.0 0 0.00 0.00 0.00 0.00
07/20/19 12:51:22 AM 66 0.0 3.0 53 76 75.8 64.1 29.933 20.09 0.0 0 0.00 0.00 0.00 0.00
07/20/19 12:52:34 AM 66 0.0 3.0 53 76 75.7 64.1 29.933 20.09 0.0 0 0.00 0.00 0.00 0.00
07/20/19 12:53:28 AM 66 0.0 3.0 53 77 75.7 64.1 29.933 20.09 0.0 0 0.00 0.00 0.00 0.00
07/20/19 12:54:18 AM 66 0.0 3.0 53 77 75.7 64.1 29.933 20.09 0.0 0 0.00 0.00 0.00 0.00
07/20/19 12:55:36 AM 66 0.0 3.0 53 77 75.7 64.1 29.934 20.09 0.0 0 0.00 0.00 0.00 0.00
07/20/19 12:56:27 AM 66 0.0 3.0 53 77 75.7 64.1 29.934 20.09 0.0 0 0.00 0.00 0.00 0.00
07/20/19 12:57:35 AM 66 0.0 3.0 53 77 75.7 64.1 29.936 20.09 0.0 0 0.00 0.00 0.00 0.00
07/20/19 12:58:29 AM 66 0.0 3.0 53 77 75.7 64.1 29.936 20.09 0.0 0 0.00 0.00 0.00 0.00
07/20/19 12:59:20 AM 66 0.0 3.0 53 77 75.7 64.1 29.936 20.09 0.0 0 0.00 0.00 0.00 0.00
07/20/19 1:00:35 AM 66 0.0 3.0 53 77 75.7 64.1 29.935 20.09 0.0 0 0.00 0.00 0.00 0.00
07/20/19 1:01:25 AM 66 0.0 3.0 53 77 75.7 64.0 29.935 20.09 0.0 0 0.00 0.00 0.00 0.00
07/20/19 1:02:34 AM 66 0.0 3.0 53 77 75.7 64.0 29.937 20.09 0.0 0 0.00 0.00 0.00 0.00
07/20/19 1:03:28 AM 66 0.0 3.0 53 77 75.7 64.0 29.936 20.09 0.0 0 0.00 0.00 0.00 0.00
07/20/19 1:04:18 AM 66 0.0 3.0 53 77 75.7 64.0 29.936 20.09 0.0 0 0.00 0.00 0.00 0.00
07/20/19 1:05:36 AM 66 0.0 3.0 53 77 75.7 64.0 29.937 20.09 0.0 0 0.00 0.00 0.00 0.00
07/20/19 1:06:27 AM 66 0.0 3.0 53 77 75.7 64.0 29.937 20.09 0.0 0 0.00 0.00 0.00 0.00
07/20/19 1:07:17 AM 66 0.0 3.0 53 77 75.6 64.0 29.938 20.09 0.0 0 0.00 0.00 0.00 0.00
07/20/19 1:08:26 AM 66 0.0 3.0 53 77 75.7 63.9 29.938 20.09 0.0 0 0.00 0.00 0.00 0.00
07/20/19 1:09:20 AM 66 0.0 3.0 53 77 75.7 63.9 29.938 20.09 0.0 0 0.00 0.00 0.00 0.00
07/20/19 1:10:32 AM 66 0.0 3.0 53 77 75.6 63.9 29.937 20.09 0.0 0 0.00 0.00 0.00 0.00
07/20/19 1:11:25 AM 66 0.0 3.0 53 77 75.6 63.9 29.937 20.09 0.0 0 0.00 0.00 0.00 0.00
07/20/19 1:12:16 AM 66 0.0 3.0 53 77 75.6 63.9 29.938 20.09 0.0 0 0.00 0.00 0.00 0.00
07/20/19 1:13:28 AM 66 0.0 3.0 53 77 75.6 63.9 29.936 20.09 0.0 0 0.00 0.00 0.00 0.00
07/20/19 1:14:22 AM 66 0.0 3.0 53 77 75.6 63.9 29.936 20.09 0.0 0 0.00 0.00 0.00 0.00
07/20/19 1:15:33 AM 66 0.0 3.0 53 77 75.6 63.9 29.938 20.09 0.0 0 0.00 0.00 0.00 0.00
07/20/19 1:16:27 AM 66 0.0 3.0 53 77 75.6 63.8 29.936 20.09 0.0 0 0.00 0.00 0.00 0.00
07/20/19 1:17:21 AM 66 0.0 3.0 53 77 75.6 63.8 29.936 20.09 0.0 0 0.00 0.00 0.00 0.00
07/20/19 1:18:30 AM 66 0.0 3.0 53 77 75.6 63.8 29.936 20.09 0.0 0 0.00 0.00 0.00 0.00
07/20/19 1:19:20 AM 66 0.0 3.0 53 77 75.6 63.8 29.936 20.09 0.0 0 0.00 0.00 0.00 0.00
07/20/19 1:20:35 AM 66 0.0 3.0 53 77 75.6 63.8 29.936 20.09 0.0 0 0.00 0.00 0.00 0.00
07/20/19 1:21:26 AM 66 0.0 3.0 53 77 75.6 63.8 29.935 20.09 0.0 0 0.00 0.00 0.00 0.00
07/20/19 1:22:17 AM 66 0.0 3.0 53 77 75.6 63.8 29.935 20.09 0.0 0 0.00 0.00 0.00 0.00
07/20/19 1:23:31 AM 66 0.0 3.0 53 77 75.6 63.8 29.936 20.09 0.0 0 0.00 0.00 0.00 0.00
07/20/19 1:24:22 AM 66 0.0 3.0 53 77 75.6 63.7 29.936 20.09 0.0 0 0.00 0.00 0.00 0.00
07/20/19 1:25:37 AM 66 0.0 3.0 53 77 75.6 63.7 29.937 20.09 0.0 0 0.00 0.00 0.00 0.00
07/20/19 1:26:31 AM 66 0.0 3.0 53 77 75.5 63.7 29.939 20.09 0.0 0 0.00 0.00 0.00 0.00
07/20/19 1:27:21 AM 66 0.0 3.0 53 77 75.5 63.7 29.939 20.09 0.0 0 0.00 0.00 0.00 0.00
07/20/19 1:28:33 AM 66 0.0 3.0 53 77 75.6 63.7 29.937 20.09 0.0 0 0.00 0.00 0.00 0.00
07/20/19 1:29:21 AM 66 0.0 3.0 53 77 75.6 63.6 29.937 20.09 0.0 0 0.00 0.00 0.00 0.00
07/20/19 1:30:32 AM 66 0.0 3.0 53 77 75.5 63.6 29.937 20.09 0.0 0 0.00 0.00 0.00 0.00
07/20/19 1:31:26 AM 66 0.0 3.0 53 77 75.5 63.6 29.936 20.09 0.0 0 0.00 0.00 0.00 0.00
07/20/19 1:32:20 AM 66 0.0 3.0 53 77 75.5 63.6 29.936 20.09 0.0 0 0.00 0.00 0.00 0.00
07/20/19 1:33:31 AM 66 0.0 3.0 53 77 75.5 63.6 29.938 20.09 0.0 0 0.00 0.00 0.00 0.00
07/20/19 1:34:25 AM 66 0.0 3.0 53 77 75.5 63.6 29.938 20.09 0.0 0 0.00 0.00 0.00 0.00
07/20/19 1:35:34 AM 66 0.0 3.0 53 78 75.6 63.6 29.936 20.09 0.0 0 0.00 0.00 0.00 0.00
07/20/19 1:36:27 AM 66 0.0 3.0 53 78 75.5 63.6 29.936 20.09 0.0 0 0.00 0.00 0.00 0.00
07/20/19 1:37:18 AM 66 0.0 3.0 53 78 75.5 63.5 29.936 20.09 0.0 0 0.00 0.00 0.00 0.00
07/20/19 1:38:30 AM 66 0.0 3.0 53 78 75.5 63.5 29.934 20.09 0.0 0 0.00 0.00 0.00 0.00
07/20/19 1:39:21 AM 66 0.0 3.0 53 78 75.5 63.5 29.934 20.09 0.0 0 0.00 0.00 0.00 0.00
07/20/19 1:40:33 AM 66 0.0 3.0 53 78 75.5 63.5 29.935 20.09 0.0 0 0.00 0.00 0.00 0.00
07/20/19 1:41:26 AM 66 0.0 3.0 53 78 75.5 63.5 29.935 20.09 0.0 0 0.00 0.00 0.00 0.00
07/20/19 1:42:17 AM 66 0.0 3.0 53 78 75.5 63.5 29.936 20.09 0.0 0 0.00 0.00 0.00 0.00
07/20/19 1:43:29 AM 66 0.0 3.0 53 79 75.5 63.4 29.937 20.09 0.0 0 0.00 0.00 0.00 0.00
07/20/19 1:44:23 AM 66 0.0 3.0 53 79 75.5 63.4 29.937 20.09 0.0 0 0.00 0.00 0.00 0.00
07/20/19 1:45:31 AM 66 0.0 3.0 53 79 75.5 63.5 29.936 20.09 0.0 0 0.00 0.00 0.00 0.00
07/20/19 1:46:22 AM 66 0.0 3.0 53 79 75.5 63.4 29.936 20.09 0.0 0 0.00 0.00 0.00 0.00
07/20/19 1:47:34 AM 66 0.0 3.0 53 78 75.5 63.4 29.935 20.09 0.0 0 0.00 0.00 0.00 0.00
07/20/19 1:48:27 AM 66 0.0 3.0 53 78 75.5 63.4 29.935 20.09 0.0 0 0.00 0.00 0.00 0.00
07/20/19 1:49:21 AM 66 0.0 3.0 53 78 75.5 63.4 29.935 20.09 0.0 0 0.00 0.00 0.00 0.00
07/20/19 1:50:33 AM 66 0.0 3.0 53 78 75.4 63.3 29.936 20.09 0.0 0 0.00 0.00 0.00 0.00
07/20/19 1:51:23 AM 66 0.0 3.0 53 78 75.4 63.3 29.936 20.09 0.0 0 0.00 0.00 0.00 0.00
07/20/19 1:52:35 AM 66 0.0 3.0 53 78 75.4 63.3 29.936 20.09 0.0 0 0.00 0.00 0.00 0.00
07/20/19 1:53:29 AM 66 0.0 3.0 53 78 75.4 63.2 29.935 20.09 0.0 0 0.00 0.00 0.00 0.00
07/20/19 1:54:23 AM 66 0.0 3.0 53 78 75.4 63.2 29.935 20.09 0.0 0 0.00 0.00 0.00 0.00
07/20/19 1:55:35 AM 66 0.0 3.0 53 78 75.4 63.2 29.935 20.09 0.0 0 0.00 0.00 0.00 0.00
07/20/19 1:56:22 AM 66 0.0 3.0 53 78 75.4 63.2 29.935 20.09 0.0 0 0.00 0.00 0.00 0.00
07/20/19 1:57:34 AM 66 0.0 3.0 53 78 75.4 63.2 29.939 20.09 0.0 0 0.00 0.00 0.00 0.00
07/20/19 1:58:28 AM 66 0.0 3.0 53 78 75.4 63.2 29.935 20.09 0.0 0 0.00 0.00 0.00 0.00
07/20/19 1:59:22 AM 66 0.0 3.0 53 78 75.4 63.2 29.935 20.09 0.0 0 0.00 0.00 0.00 0.00
07/20/19 2:00:36 AM 66 0.0 3.0 53 78 75.4 63.2 29.938 20.09 0.0 0 0.00 0.00 0.00 0.00
07/20/19 2:01:30 AM 66 0.0 3.0 53 78 75.4 63.1 29.938 20.09 0.0 0 0.00 0.00 0.00 0.00
07/20/19 2:02:18 AM 66 0.0 3.0 53 78 75.4 63.2 29.938 20.09 0.0 0 0.00 0.00 0.00 0.00
07/20/19 2:03:33 AM 66 0.0 3.0 53 78 75.4 63.1 29.934 20.09 0.0 0 0.00 0.00 0.00 0.00
07/20/19 2:04:26 AM 66 0.0 3.0 53 78 75.4 63.1 29.934 20.09 0.0 0 0.00 0.00 0.00 0.00
07/20/19 2:05:20 AM 66 0.0 3.0 53 78 75.4 63.1 29.934 20.09 0.0 0 0.00 0.00 0.00 0.00
07/20/19 2:06:29 AM 66 0.0 3.0 53 78 75.4 63.0 29.933 20.09 0.0 0 0.00 0.00 0.00 0.00
07/20/19 2:07:19 AM 66 0.0 3.0 53 78 75.4 63.0 29.933 20.09 0.0 0 0.00 0.00 0.00 0.00
07/20/19 2:08:31 AM 66 0.0 3.0 53 78 75.3 63.0 29.936 20.09 0.0 0 0.00 0.00 0.00 0.00
07/20/19 2:09:25 AM 66 0.0 3.0 53 78 75.3 63.0 29.936 20.09 0.0 0 0.00 0.00 0.00 0.00
07/20/19 2:10:19 AM 66 0.0 3.0 53 78 75.3 63.0 29.936 20.09 0.0 0 0.00 0.00 0.00 0.00
07/20/19 2:11:31 AM 66 0.0 3.0 53 79 75.3 62.9 29.936 20.09 0.0 0 0.00 0.00 0.00 0.00
07/20/19 2:12:22 AM 66 0.0 3.0 53 79 75.3 62.9 29.936 20.09 0.0 0 0.00 0.00 0.00 0.00
07/20/19 2:13:30 AM 66 0.0 3.0 53 79 75.3 62.9 29.935 20.09 0.0 0 0.00 0.00 0.00 0.00
07/20/19 2:14:24 AM 66 0.0 3.0 53 79 75.3 62.8 29.935 20.09 0.0 0 0.00 0.00 0.00 0.00
07/20/19 2:15:39 AM 66 0.0 3.0 53 79 75.3 62.8 29.935 20.09 0.0 0 0.00 0.00 0.00 0.00
07/20/19 2:16:30 AM 66 0.0 3.0 53 79 75.3 62.8 29.931 20.09 0.0 0 0.00 0.00 0.00 0.00
07/20/19 2:17:20 AM 66 0.0 3.0 53 79 75.3 62.8 29.931 20.09 0.0 0 0.00 0.00 0.00 0.00
07/20/19 2:18:29 AM 66 0.0 3.0 53 79 75.3 62.8 29.934 20.09 0.0 0 0.00 0.00 0.00 0.00
07/20/19 2:19:20 AM 66 0.0 3.0 53 79 75.3 62.7 29.934 20.09 0.0 0 0.00 0.00 0.00 0.00
07/20/19 2:20:32 AM 66 0.0 3.0 53 79 75.3 62.7 29.933 20.09 0.0 0 0.00 0.00 0.00 0.00
07/20/19 2:21:25 AM 66 0.0 3.0 53 79 75.3 62.7 29.933 20.09 0.0 0 0.00 0.00 0.00 0.00
07/20/19 2:22:16 AM 66 0.0 3.0 53 79 75.3 62.7 29.936 20.09 0.0 0 0.00 0.00 0.00 0.00
07/20/19 2:23:25 AM 66 0.0 3.0 53 79 75.2 62.7 29.933 20.09 0.0 0 0.00 0.00 0.00 0.00
07/20/19 2:24:18 AM 66 0.0 3.0 53 79 75.2 62.6 29.934 20.09 0.0 0 0.00 0.00 0.00 0.00
07/20/19 2:25:33 AM 66 0.0 3.0 53 79 75.2 62.6 29.931 20.09 0.0 0 0.00 0.00 0.00 0.00
07/20/19 2:26:24 AM 66 0.0 3.0 53 79 75.2 62.6 29.931 20.09 0.0 0 0.00 0.00 0.00 0.00
07/20/19 2:27:36 AM 66 0.0 3.0 53 79 75.2 62.5 29.930 20.09 0.0 0 0.00 0.00 0.00 0.00
07/20/19 2:28:29 AM 66 0.0 3.0 53 79 75.2 62.5 29.932 20.09 0.0 0 0.00 0.00 0.00 0.00
07/20/19 2:29:35 AM 66 0.0 3.0 53 79 75.2 62.5 29.930 20.09 0.0 0 0.00 0.00 0.00 0.00
07/20/19 2:30:29 AM 66 0.0 3.0 53 79 75.2 62.5 29.933 20.09 0.0 0 0.00 0.00 0.00 0.00
07/20/19 2:31:23 AM 66 0.0 3.0 53 79 75.2 62.4 29.933 20.09 0.0 0 0.00 0.00 0.00 0.00
07/20/19 2:32:34 AM 66 0.0 3.0 53 79 75.2 62.4 29.930 20.09 0.0 0 0.00 0.00 0.00 0.00
07/20/19 2:33:28 AM 66 0.0 3.0 53 79 75.2 62.4 29.932 20.09 0.0 0 0.00 0.00 0.00 0.00
07/20/19 2:34:16 AM 66 0.0 3.0 53 79 75.2 62.3 29.932 20.09 0.0 0 0.00 0.00 0.00 0.00
07/20/19 2:35:31 AM 66 0.0 3.0 53 79 75.2 62.3 29.929 20.09 0.0 0 0.00 0.00 0.00 0.00
07/20/19 2:36:24 AM 66 0.0 3.0 53 79 75.2 62.3 29.929 20.09 0.0 0 0.00 0.00 0.00 0.00
07/20/19 2:37:36 AM 66 0.0 3.0 53 79 75.2 62.3 29.929 20.09 0.0 0 0.00 0.00 0.00 0.00
07/20/19 2:38:30 AM 66 0.0 3.0 53 79 75.2 62.2 29.928 20.09 0.0 0 0.00 0.00 0.00 0.00
07/20/19 2:39:21 AM 66 0.0 3.0 53 79 75.2 62.2 29.928 20.09 0.0 0 0.00 0.00 0.00 0.00
07/20/19 2:40:30 AM 66 0.0 3.0 53 79 75.1 62.2 29.929 20.09 0.0 0 0.00 0.00 0.00 0.00
07/20/19 2:41:24 AM 66 0.0 3.0 53 79 75.1 62.2 29.929 20.09 0.0 0 0.00 0.00 0.00 0.00
07/20/19 2:42:36 AM 66 0.0 3.0 53 79 75.1 62.2 29.929 20.09 0.0 0 0.00 0.00 0.00 0.00
07/20/19 2:43:29 AM 66 0.0 3.0 53 79 75.1 62.1 29.928 20.09 0.0 0 0.00 0.00 0.00 0.00
07/20/19 2:44:23 AM 66 0.0 3.0 53 80 75.1 62.1 29.928 20.09 0.0 0 0.00 0.00 0.00 0.00
07/20/19 2:45:32 AM 66 0.0 3.0 53 80 75.1 62.1 29.927 20.09 0.0 0 0.00 0.00 0.00 0.00
07/20/19 2:46:26 AM 66 0.0 3.0 53 80 75.1 62.1 29.927 20.09 0.0 0 0.00 0.00 0.00 0.00
07/20/19 2:47:20 AM 66 0.0 3.0 53 80 75.1 62.0 29.928 20.09 0.0 0 0.00 0.00 0.00 0.00
07/20/19 2:48:32 AM 66 0.0 3.0 53 80 75.1 62.0 29.925 20.09 0.0 0 0.00 0.00 0.00 0.00
07/20/19 2:49:22 AM 66 0.0 3.0 53 80 75.1 62.0 29.925 20.09 0.0 0 0.00 0.00 0.00 0.00
07/20/19 2:50:31 AM 66 0.0 3.0 53 80 75.1 62.0 29.928 20.09 0.0 0 0.00 0.00 0.00 0.00
07/20/19 2:51:25 AM 66 0.0 3.0 53 80 75.1 62.0 29.928 20.09 0.0 0 0.00 0.00 0.00 0.00
07/20/19 2:52:19 AM 66 0.0 3.0 53 80 75.1 62.0 29.930 20.09 0.0 0 0.00 0.00 0.00 0.00
07/20/19 2:53:31 AM 66 0.0 3.0 53 80 75.1 62.0 29.927 20.09 0.0 0 0.00 0.00 0.00 0.00
07/20/19 2:54:25 AM 66 0.0 3.0 53 80 75.1 62.0 29.927 20.09 0.0 0 0.00 0.00 0.00 0.00
07/20/19 2:55:19 AM 66 0.0 3.0 53 80 75.0 62.0 29.928 20.09 0.0 0 0.00 0.00 0.00 0.00
07/20/19 2:56:25 AM 66 0.0 3.0 53 80 75.1 62.0 29.930 20.09 0.0 0 0.00 0.00 0.00 0.00
07/20/19 2:57:19 AM 66 0.0 3.0 53 80 75.0 61.9 29.928 20.09 0.0 0 0.00 0.00 0.00 0.00
07/20/19 2:58:31 AM 66 0.0 3.0 53 80 75.0 61.9 29.928 20.09 0.0 0 0.00 0.00 0.00 0.00
07/20/19 2:59:21 AM 66 0.0 3.0 53 80 75.0 61.9 29.928 20.09 0.0 0 0.00 0.00 0.00 0.00
07/20/19 3:00:33 AM 66 0.0 3.0 53 80 75.0 61.9 29.927 20.09 0.0 0 0.00 0.00 0.00 0.00
07/20/19 3:01:21 AM 66 0.0 3.0 53 80 75.0 61.9 29.927 20.09 0.0 0 0.00 0.00 0.00 0.00
07/20/19 3:02:36 AM 66 0.0 3.0 53 80 75.0 61.9 29.929 20.09 0.0 0 0.00 0.00 0.00 0.00
07/20/19 3:03:30 AM 66 0.0 3.0 53 80 75.0 61.9 29.929 20.09 0.0 0 0.00 0.00 0.00 0.00
07/20/19 3:04:24 AM 66 0.0 3.0 53 80 75.0 61.9 29.929 20.09 0.0 0 0.00 0.00 0.00 0.00
07/20/19 3:05:36 AM 66 0.0 3.0 53 80 75.0 61.8 29.929 20.09 0.0 0 0.00 0.00 0.00 0.00
07/20/19 3:06:30 AM 66 0.0 3.0 53 80 74.9 61.9 29.930 20.09 0.0 0 0.00 0.00 0.00 0.00
07/20/19 3:07:17 AM 66 0.0 3.0 53 80 74.9 61.8 29.930 20.09 0.0 0 0.00 0.00 0.00 0.00
07/20/19 3:08:33 AM 66 0.0 3.0 53 80 74.9 61.8 29.930 20.09 0.0 0 0.00 0.00 0.00 0.00
07/20/19 3:09:26 AM 66 0.0 3.0 53 80 74.9 61.8 29.930 20.09 0.0 0 0.00 0.00 0.00 0.00
07/20/19 3:10:17 AM 66 0.0 3.0 53 80 74.9 61.8 29.927 20.09 0.0 0 0.00 0.00 0.00 0.00
07/20/19 3:11:29 AM 66 0.0 3.0 53 80 75.0 61.8 29.926 20.09 0.0 0 0.00 0.00 0.00 0.00
07/20/19 3:12:38 AM 66 0.0 3.0 53 80 74.9 61.8 29.926 20.09 0.0 0 0.00 0.00 0.00 0.00
07/20/19 3:13:29 AM 66 0.0 3.0 53 80 74.9 61.8 29.926 20.09 0.0 0 0.00 0.00 0.00 0.00
07/20/19 3:14:22 AM 66 0.0 3.0 53 80 74.9 61.8 29.926 20.09 0.0 0 0.00 0.00 0.00 0.00
07/20/19 3:15:37 AM 66 0.0 3.0 53 80 74.9 61.7 29.928 20.09 0.0 0 0.00 0.00 0.00 0.00
07/20/19 3:16:28 AM 66 0.0 3.0 53 80 74.9 61.7 29.926 20.09 0.0 0 0.00 0.00 0.00 0.00
07/20/19 3:17:22 AM 66 0.0 3.0 53 81 74.9 61.7 29.926 20.09 0.0 0 0.00 0.00 0.00 0.00
07/20/19 3:18:31 AM 66 0.0 3.0 53 81 74.9 61.7 29.926 20.09 0.0 0 0.00 0.00 0.00 0.00
07/20/19 3:19:24 AM 66 0.0 3.0 53 81 74.9 61.7 29.926 20.09 0.0 0 0.00 0.00 0.00 0.00
07/20/19 3:20:36 AM 66 0.0 3.0 53 81 74.9 61.7 29.926 20.09 0.0 0 0.00 0.00 0.00 0.00
07/20/19 3:21:27 AM 66 0.0 3.0 53 81 74.9 61.7 29.926 20.09 0.0 0 0.00 0.00 0.00 0.00
07/20/19 3:22:17 AM 66 0.0 3.0 53 81 74.9 61.7 29.926 20.09 0.0 0 0.00 0.00 0.00 0.00
07/20/19 3:23:26 AM 66 0.0 3.0 53 81 74.8 61.6 29.929 20.09 0.0 0 0.00 0.00 0.00 0.00
07/20/19 3:24:20 AM 66 0.0 3.0 53 81 74.8 61.6 29.929 20.09 0.0 0 0.00 0.00 0.00 0.00
07/20/19 3:25:35 AM 66 0.0 3.0 53 81 74.8 61.6 29.929 20.09 0.0 0 0.00 0.00 0.00 0.00
07/20/19 3:26:29 AM 66 0.0 3.0 53 81 74.8 61.6 29.928 20.09 0.0 0 0.00 0.00 0.00 0.00
07/20/19 3:27:22 AM 66 0.0 3.0 53 81 74.8 61.5 29.928 20.09 0.0 0 0.00 0.00 0.00 0.00
07/20/19 3:28:31 AM 66 0.0 3.0 53 81 74.8 61.5 29.930 20.09 0.0 0 0.00 0.00 0.00 0.00
07/20/19 3:29:25 AM 66 0.0 3.0 53 81 74.8 61.5 29.930 20.09 0.0 0 0.00 0.00 0.00 0.00
07/20/19 3:30:19 AM 66 0.0 3.0 53 81 74.8 61.4 29.924 20.09 0.0 0 0.00 0.00 0.00 0.00
07/20/19 3:31:30 AM 66 0.0 3.0 53 81 74.8 61.4 29.925 20.09 0.0 0 0.00 0.00 0.00 0.00
07/20/19 3:32:24 AM 66 0.0 3.0 53 81 74.8 61.4 29.925 20.09 0.0 0 0.00 0.00 0.00 0.00
07/20/19 3:33:18 AM 66 0.0 3.0 53 81 74.8 61.4 29.924 20.09 0.0 0 0.00 0.00 0.00 0.00
07/20/19 3:34:27 AM 66 0.0 3.0 53 81 74.8 61.3 29.928 20.09 0.0 0 0.00 0.00 0.00 0.00
07/20/19 3:35:20 AM 66 0.0 3.0 53 81 74.7 61.4 29.925 20.09 0.0 0 0.00 0.00 0.00 0.00
07/20/19 3:36:32 AM 66 0.0 3.0 53 81 74.7 61.3 29.925 20.09 0.0 0 0.00 0.00 0.00 0.00
07/20/19 3:37:26 AM 66 0.0 3.0 53 81 74.7 61.3 29.925 20.09 0.0 0 0.00 0.00 0.00 0.00
07/20/19 3:38:20 AM 66 0.0 3.0 53 81 74.7 61.3 29.924 20.09 0.0 0 0.00 0.00 0.00 0.00
07/20/19 3:39:29 AM 66 0.0 3.0 53 81 74.7 61.3 29.927 20.09 0.0 0 0.00 0.00 0.00 0.00
07/20/19 3:40:20 AM 66 0.0 3.0 53 81 74.7 61.3 29.927 20.09 0.0 0 0.00 0.00 0.00 0.00
07/20/19 3:41:35 AM 66 0.0 3.0 53 81 74.7 61.3 29.927 20.09 0.0 0 0.00 0.00 0.00 0.00
07/20/19 3:42:28 AM 66 0.0 3.0 53 81 74.7 61.3 29.921 20.09 0.0 0 0.00 0.00 0.00 0.00
07/20/19 3:43:22 AM 66 0.0 3.0 53 81 74.7 61.3 29.921 20.09 0.0 0 0.00 0.00 0.00 0.00
07/20/19 3:44:34 AM 66 0.0 3.0 53 81 74.7 61.2 29.926 20.09 0.0 0 0.00 0.00 0.00 0.00
07/20/19 3:45:25 AM 66 0.0 3.0 53 81 74.7 61.2 29.926 20.09 0.0 0 0.00 0.00 0.00 0.00
07/20/19 3:46:34 AM 66 0.0 3.0 53 81 74.7 61.2 29.925 20.09 0.0 0 0.00 0.00 0.00 0.00
07/20/19 3:47:28 AM 66 0.0 3.0 53 82 74.6 61.2 29.922 20.09 0.0 0 0.00 0.00 0.00 0.00
07/20/19 3:48:18 AM 66 0.0 3.0 53 82 74.6 61.2 29.922 20.09 0.0 0 0.00 0.00 0.00 0.00
07/20/19 3:49:33 AM 66 0.0 3.0 53 82 74.7 61.1 29.925 20.09 0.0 0 0.00 0.00 0.00 0.00
07/20/19 3:50:21 AM 66 0.0 3.0 53 82 74.7 61.1 29.925 20.09 0.0 0 0.00 0.00 0.00 0.00
07/20/19 3:51:33 AM 66 0.0 3.0 53 82 74.6 61.1 29.922 20.09 0.0 0 0.00 0.00 0.00 0.00
07/20/19 3:52:27 AM 66 0.0 3.0 53 82 74.6 61.1 29.922 20.09 0.0 0 0.00 0.00 0.00 0.00
07/20/19 3:53:17 AM 66 0.0 3.0 53 82 74.6 61.1 29.922 20.09 0.0 0 0.00 0.00 0.00 0.00
07/20/19 3:54:32 AM 66 0.0 3.0 53 82 74.6 61.1 29.927 20.09 0.0 0 0.00 0.00 0.00 0.00
07/20/19 3:55:26 AM 66 0.0 3.0 53 82 74.6 61.1 29.927 20.09 0.0 0 0.00 0.00 0.00 0.00
07/20/19 3:56:35 AM 66 0.0 3.0 53 82 74.6 61.0 29.925 20.09 0.0 0 0.00 0.00 0.00 0.00
07/20/19 3:57:29 AM 66 0.0 3.0 53 82 74.6 61.0 29.927 20.09 0.0 0 0.00 0.00 0.00 0.00
07/20/19 3:58:19 AM 66 0.0 3.0 53 82 74.6 61.0 29.927 20.09 0.0 0 0.00 0.00 0.00 0.00
07/20/19 3:59:31 AM 66 0.0 3.0 53 82 74.6 61.0 29.925 20.09 0.0 0 0.00 0.00 0.00 0.00
07/20/19 4:00:25 AM 66 0.0 3.0 53 82 74.6 61.0 29.925 20.09 0.0 0 0.00 0.00 0.00 0.00
07/20/19 4:01:34 AM 66 0.0 3.0 53 82 74.6 60.9 29.926 20.09 0.0 0 0.00 0.00 0.00 0.00
07/20/19 4:02:24 AM 66 0.0 3.0 53 82 74.6 60.9 29.926 20.09 0.0 0 0.00 0.00 0.00 0.00
07/20/19 4:03:18 AM 66 0.0 3.0 53 82 74.6 60.9 29.925 20.09 0.0 0 0.00 0.00 0.00 0.00
07/20/19 4:04:33 AM 66 0.0 3.0 53 82 74.6 60.9 29.926 20.09 0.0 0 0.00 0.00 0.00 0.00
07/20/19 4:05:27 AM 66 0.0 3.0 53 82 74.6 60.8 29.926 20.09 0.0 0 0.00 0.00 0.00 0.00
07/20/19 4:06:21 AM 66 0.0 3.0 53 82 74.6 60.8 29.929 20.09 0.0 0 0.00 0.00 0.00 0.00
07/20/19 4:07:30 AM 66 0.0 3.0 53 82 74.6 60.8 29.928 20.09 0.0 0 0.00 0.00 0.00 0.00
07/20/19 4:08:21 AM 66 0.0 3.0 53 82 74.6 60.8 29.928 20.09 0.0 0 0.00 0.00 0.00 0.00
07/20/19 4:09:33 AM 66 0.0 3.0 53 82 74.6 60.8 29.926 20.09 0.0 0 0.00 0.00 0.00 0.00
07/20/19 4:10:24 AM 66 0.0 3.0 53 82 74.6 60.7 29.926 20.09 0.0 0 0.00 0.00 0.00 0.00
07/20/19 4:11:18 AM 66 0.0 3.0 53 82 74.6 60.7 29.925 20.09 0.0 0 0.00 0.00 0.00 0.00
07/20/19 4:12:24 AM 66 0.0 3.0 53 82 74.6 60.7 29.925 20.09 0.0 0 0.00 0.00 0.00 0.00
07/20/19 4:13:17 AM 66 0.0 3.0 53 82 74.5 60.7 29.925 20.09 0.0 0 0.00 0.00 0.00 0.00
07/20/19 4:14:29 AM 66 0.0 3.0 53 82 74.5 60.7 29.926 20.09 0.0 0 0.00 0.00 0.00 0.00
07/20/19 4:15:23 AM 66 0.0 3.0 53 83 74.5 60.7 29.926 20.09 0.0 0 0.00 0.00 0.00 0.00
07/20/19 4:16:32 AM 66 0.0 3.0 53 83 74.5 60.7 29.925 20.09 0.0 0 0.00 0.00 0.00 0.00
07/20/19 4:17:23 AM 66 0.0 3.0 53 83 74.5 60.7 29.925 20.09 0.0 0 0.00 0.00 0.00 0.00
07/20/19 4:18:35 AM 66 0.0 3.0 53 83 74.5 60.6 29.925 20.09 0.0 0 0.00 0.00 0.00 0.00
07/20/19 4:19:29 AM 66 0.0 3.0 53 83 74.5 60.6 29.924 20.09 0.0 0 0.00 0.00 0.00 0.00
07/20/19 4:20:20 AM 66 0.0 3.0 53 83 74.5 60.6 29.924 20.09 0.0 0 0.00 0.00 0.00 0.00
07/20/19 4:21:32 AM 66 0.0 3.0 53 83 74.5 60.6 29.927 20.09 0.0 0 0.00 0.00 0.00 0.00
07/20/19 4:22:22 AM 66 0.0 3.0 53 83 74.5 60.5 29.927 20.09 0.0 0 0.00 0.00 0.00 0.00
07/20/19 4:23:31 AM 66 0.0 3.0 53 83 74.5 60.5 29.926 20.09 0.0 0 0.00 0.00 0.00 0.00
07/20/19 4:24:25 AM 66 0.0 3.0 53 83 74.5 60.5 29.926 20.09 0.0 0 0.00 0.00 0.00 0.00
07/20/19 4:25:19 AM 66 0.0 3.0 53 83 74.5 60.5 29.926 20.09 0.0 0 0.00 0.00 0.00 0.00
07/20/19 4:26:34 AM 66 0.0 3.0 53 83 74.5 60.5 29.924 20.09 0.0 0 0.00 0.00 0.00 0.00
07/20/19 4:27:25 AM 66 0.0 3.0 53 83 74.5 60.5 29.924 20.09 0.0 0 0.00 0.00 0.00 0.00
07/20/19 4:28:34 AM 66 0.0 3.0 53 83 74.5 60.5 29.928 20.09 0.0 0 0.00 0.00 0.00 0.00
07/20/19 4:29:28 AM 66 0.0 3.0 53 83 74.5 60.5 29.927 20.09 0.0 0 0.00 0.00 0.00 0.00
07/20/19 4:30:19 AM 66 0.0 3.0 53 83 74.5 60.4 29.927 20.09 0.0 0 0.00 0.00 0.00 0.00
07/20/19 4:31:34 AM 66 0.0 3.0 53 83 74.5 60.4 29.928 20.09 0.0 0 0.00 0.00 0.00 0.00
07/20/19 4:32:28 AM 66 0.0 3.0 53 83 74.5 60.4 29.929 20.09 0.0 0 0.00 0.00 0.00 0.00
07/20/19 4:33:22 AM 66 0.0 3.0 53 83 74.5 60.4 29.929 20.09 0.0 0 0.00 0.00 0.00 0.00
07/20/19 4:34:28 AM 66 0.0 3.0 53 83 74.5 60.4 29.927 20.09 0.0 0 0.00 0.00 0.00 0.00
07/20/19 4:35:25 AM 66 0.0 3.0 53 83 74.5 60.4 29.927 20.09 0.0 0 0.00 0.00 0.00 0.00
07/20/19 4:36:34 AM 66 0.0 3.0 53 83 74.5 60.3 29.930 20.09 0.0 0 0.00 0.00 0.00 0.00
07/20/19 4:37:28 AM 66 0.0 3.0 53 83 74.5 60.4 29.930 20.09 0.0 0 0.00 0.00 0.00 0.00
07/20/19 4:38:18 AM 66 0.0 3.0 53 83 74.5 60.3 29.930 20.09 0.0 0 0.00 0.00 0.00 0.00
07/20/19 4:39:27 AM 66 0.0 3.0 53 83 74.4 60.3 29.929 20.09 0.0 0 0.00 0.00 0.00 0.00
07/20/19 4:40:21 AM 66 0.0 3.0 53 83 74.4 60.3 29.929 20.09 0.0 0 0.00 0.00 0.00 0.00
07/20/19 4:41:36 AM 66 0.0 3.0 53 83 74.4 60.3 29.930 20.09 0.0 0 0.00 0.00 0.00 0.00
07/20/19 4:42:27 AM 66 0.0 3.0 53 84 74.4 60.3 29.931 20.09 0.0 0 0.00 0.00 0.00 0.00
07/20/19 4:43:21 AM 66 0.0 3.0 53 84 74.4 60.3 29.931 20.09 0.0 0 0.00 0.00 0.00 0.00
07/20/19 4:44:30 AM 66 0.0 3.0 53 84 74.4 60.2 29.931 20.09 0.0 0 0.00 0.00 0.00 0.00
07/20/19 4:45:24 AM 66 0.0 3.0 53 84 74.4 60.2 29.931 20.09 0.0 0 0.00 0.00 0.00 0.00
07/20/19 4:46:36 AM 66 0.0 3.0 53 84 74.4 60.2 29.934 20.09 0.0 0 0.00 0.00 0.00 0.00
07/20/19 4:47:30 AM 66 0.0 3.0 53 84 74.3 60.2 29.934 20.09 0.0 0 0.00 0.00 0.00 0.00
07/20/19 4:48:24 AM 66 0.0 3.0 53 84 74.3 60.2 29.934 20.09 0.0 0 0.00 0.00 0.00 0.00
07/20/19 4:49:36 AM 66 0.0 3.0 53 84 74.4 60.1 29.933 20.09 0.0 0 0.00 0.00 0.00 0.00
07/20/19 4:50:24 AM 66 0.0 3.0 53 84 74.4 60.1 29.933 20.09 0.0 0 0.00 0.00 0.00 0.00
07/20/19 4:51:18 AM 66 0.0 3.0 53 84 74.4 60.1 29.934 20.09 0.0 0 0.00 0.00 0.00 0.00
07/20/19 4:52:30 AM 66 0.0 3.0 53 84 74.3 60.1 29.936 20.09 0.0 0 0.00 0.00 0.00 0.00
07/20/19 4:53:24 AM 66 0.0 3.0 53 84 74.3 60.1 29.936 20.09 0.0 0 0.00 0.00 0.00 0.00
07/20/19 4:54:18 AM 66 0.0 3.0 53 84 74.3 60.0 29.936 20.09 0.0 0 0.00 0.00 0.00 0.00
07/20/19 4:55:27 AM 66 0.0 3.0 53 84 74.3 60.0 29.936 20.09 0.0 0 0.00 0.00 0.00 0.00
07/20/19 4:56:18 AM 66 0.0 3.0 53 84 74.3 60.0 29.938 20.09 0.0 0 0.00 0.00 0.00 0.00
07/20/19 4:57:30 AM 66 0.0 3.0 53 85 74.3 59.9 29.940 20.09 0.0 0 0.00 0.00 0.00 0.00
07/20/19 4:58:23 AM 66 0.0 3.0 53 85 74.3 59.9 29.940 20.09 0.0 0 0.00 0.00 0.00 0.00
07/20/19 4:59:17 AM 66 0.0 3.0 53 85 74.3 59.9 29.937 20.09 0.0 0 0.00 0.00 0.00 0.00
07/20/19 5:00:29 AM 66 0.0 3.0 53 85 74.2 59.9 29.939 20.09 0.0 0 0.00 0.00 0.00 0.00
07/20/19 5:02:30 AM 66 0.0 3.0 53 85 74.2 59.9 29.940 20.09 0.0 0 0.00 0.00 0.00 0.00
07/20/19 5:03:21 AM 66 0.0 3.0 53 85 74.2 59.9 29.940 20.09 0.0 0 0.00 0.00 0.00 0.00
07/20/19 5:04:33 AM 66 0.0 3.0 53 85 74.2 59.8 29.937 20.09 0.0 0 0.00 0.00 0.00 0.00
07/20/19 5:05:30 AM 66 0.0 3.0 53 85 74.2 59.8 29.937 20.09 0.0 0 0.00 0.00 0.00 0.00
07/20/19 5:06:18 AM 66 0.0 3.0 53 85 74.2 59.8 29.938 20.09 0.0 0 0.00 0.00 0.00 0.00
07/20/19 5:07:30 AM 66 0.0 3.0 53 85 74.2 59.8 29.939 20.09 0.0 0 0.00 0.00 0.00 0.00
07/20/19 5:08:23 AM 66 0.0 3.0 53 85 74.2 59.8 29.939 20.09 0.0 0 0.00 0.00 0.00 0.00
07/20/19 5:09:36 AM 66 0.0 3.0 53 85 74.2 59.8 29.937 20.09 0.0 0 0.00 0.00 0.00 0.00
07/20/19 5:10:29 AM 66 0.0 3.0 53 85 74.2 59.8 29.940 20.09 0.0 0 0.00 0.00 0.00 0.00
07/20/19 5:11:23 AM 66 0.0 3.0 53 85 74.2 59.8 29.940 20.09 0.0 0 0.00 0.00 0.00 0.00
07/20/19 5:12:32 AM 66 0.0 3.0 53 85 74.2 59.7 29.940 20.09 0.0 0 0.00 0.00 0.00 0.00
07/20/19 5:13:23 AM 66 0.0 3.0 53 85 74.2 59.7 29.940 20.09 0.0 0 0.00 0.00 0.00 0.00
07/20/19 5:14:35 AM 66 0.0 3.0 53 85 74.1 59.7 29.941 20.09 0.0 0 0.00 0.00 0.00 0.00
07/20/19 5:15:29 AM 66 0.0 3.0 53 85 74.2 59.7 29.939 20.09 0.0 0 0.00 0.00 0.00 0.00
07/20/19 5:16:20 AM 66 0.0 3.0 53 85 74.2 59.7 29.939 20.09 0.0 0 0.00 0.00 0.00 0.00
07/20/19 5:17:29 AM 66 0.0 3.0 53 85 74.1 59.7 29.939 20.09 0.0 0 0.00 0.00 0.00 0.00
07/20/19 5:18:23 AM 66 0.0 3.0 53 85 74.1 59.7 29.939 20.09 0.0 0 0.00 0.00 0.00 0.00
07/20/19 5:19:35 AM 66 0.0 3.0 53 86 74.1 59.7 29.940 20.09 0.0 0 0.00 0.00 0.00 0.00
07/20/19 5:20:26 AM 66 0.0 3.0 53 86 74.1 59.7 29.941 20.09 0.0 0 0.00 0.00 0.00 0.00
07/20/19 5:21:20 AM 66 0.0 3.0 53 86 74.1 59.7 29.941 20.09 0.0 0 0.00 0.00 0.00 0.00
07/20/19 5:22:32 AM 66 0.0 3.0 53 86 74.1 59.7 29.939 20.09 0.0 0 0.00 0.00 0.00 0.00
07/20/19 5:23:23 AM 66 0.0 3.0 53 86 74.1 59.7 29.939 20.09 0.0 0 0.00 0.00 0.00 0.00
07/20/19 5:24:36 AM 66 0.0 3.0 53 86 74.1 59.7 29.940 20.09 0.0 0 0.00 0.00 0.00 0.00
07/20/19 5:25:29 AM 66 0.0 3.0 53 86 74.1 59.7 29.939 20.09 0.0 0 0.00 0.00 0.00 0.00
07/20/19 5:26:20 AM 66 0.0 3.0 53 86 74.1 59.7 29.939 20.09 0.0 0 0.00 0.00 0.00 0.00
07/20/19 5:27:33 AM 66 0.0 3.0 53 86 74.1 59.7 29.940 20.09 0.0 0 0.00 0.00 0.00 0.00
07/20/19 5:28:24 AM 66 0.0 3.0 53 86 74.1 59.7 29.940 20.09 0.0 0 0.00 0.00 0.00 0.00
07/20/19 5:29:36 AM 66 0.0 3.0 53 86 74.0 59.7 29.940 20.09 0.0 0 0.00 0.00 0.00 0.00
07/20/19 5:30:27 AM 66 0.0 3.0 53 86 74.1 59.7 29.941 20.09 0.0 0 0.00 0.00 0.00 0.00
07/20/19 5:31:21 AM 66 0.0 3.0 53 86 74.1 59.6 29.941 20.09 0.0 0 0.00 0.00 0.00 0.00
07/20/19 5:32:33 AM 66 0.0 3.0 53 86 74.1 59.6 29.943 20.09 0.0 0 0.00 0.00 0.00 0.00
07/20/19 5:33:21 AM 66 0.0 3.0 53 86 74.1 59.6 29.943 20.09 0.0 0 0.00 0.00 0.00 0.00
07/20/19 5:34:33 AM 66 0.0 3.0 53 86 74.0 59.6 29.941 20.09 0.0 0 0.00 0.00 0.00 0.00
07/20/19 5:35:27 AM 66 0.0 3.0 53 86 74.0 59.6 29.941 20.09 0.0 0 0.00 0.00 0.00 0.00
07/20/19 5:36:15 AM 66 0.0 3.0 53 86 74.1 59.6 29.943 20.09 0.0 0 0.00 0.00 0.00 0.00
07/20/19 5:37:27 AM 66 0.0 3.0 53 86 74.0 59.6 29.940 20.09 0.0 0 0.00 0.00 0.00 0.00
07/20/19 5:38:21 AM 66 0.0 3.0 53 86 74.0 59.6 29.940 20.09 0.0 0 0.00 0.00 0.00 0.00
07/20/19 5:39:28 AM 66 0.0 3.0 53 86 74.0 59.6 29.941 20.09 0.0 0 0.00 0.00 0.00 0.00
07/20/19 5:40:21 AM 66 0.0 3.0 53 86 74.0 59.6 29.941 20.09 0.0 0 0.00 0.00 0.00 0.00
07/20/19 5:41:34 AM 66 0.0 3.0 53 86 74.0 59.6 29.942 20.09 0.0 0 0.00 0.00 0.00 0.00
07/20/19 5:42:25 AM 66 0.0 3.0 53 86 74.0 59.6 29.942 20.09 0.0 0 0.00 0.00 0.00 0.00
07/20/19 5:43:19 AM 66 0.0 3.0 53 86 74.0 59.6 29.942 20.09 0.0 0 0.00 0.00 0.00 0.00
07/20/19 5:44:28 AM 66 0.0 3.0 53 86 74.0 59.6 29.942 20.09 0.0 0 0.00 0.00 0.00 0.00
07/20/19 5:45:22 AM 66 0.0 3.0 53 86 74.0 59.6 29.942 20.09 0.0 0 0.00 0.00 0.00 0.00
07/20/19 5:46:34 AM 66 0.0 3.0 53 86 74.1 59.5 29.943 20.09 0.0 0 0.00 0.00 0.00 0.00
07/20/19 5:47:28 AM 66 0.0 3.0 53 86 74.0 59.5 29.946 20.09 0.0 0 0.00 0.00 0.00 0.00
07/20/19 5:48:22 AM 66 0.0 3.0 53 86 74.0 59.5 29.946 20.09 0.0 0 0.00 0.00 0.00 0.00
07/20/19 5:49:28 AM 66 0.0 3.0 53 86 74.1 59.4 29.946 20.09 0.0 0 0.00 0.00 0.00 0.00
07/20/19 5:50:22 AM 66 0.0 3.0 53 86 74.1 59.5 29.946 20.09 0.0 0 0.00 0.00 0.00 0.00
07/20/19 5:51:34 AM 66 0.0 3.0 53 86 74.1 59.5 29.948 20.09 0.0 0 0.00 0.00 0.00 0.00
07/20/19 5:52:28 AM 66 0.0 3.0 53 86 74.1 59.4 29.945 20.09 0.0 0 0.00 0.00 0.00 0.00
07/20/19 5:53:22 AM 66 0.0 3.0 53 86 74.1 59.4 29.945 20.09 0.0 0 0.00 0.00 0.00 0.00
07/20/19 5:54:34 AM 66 0.0 3.0 53 86 74.1 59.4 29.946 20.09 0.0 0 0.00 0.00 0.00 0.00
07/20/19 5:55:22 AM 66 0.0 3.0 53 86 74.1 59.4 29.946 20.09 0.0 0 0.00 0.00 0.00 0.00
07/20/19 5:56:34 AM 66 0.0 3.0 53 86 74.1 59.4 29.948 20.09 0.0 5 0.00 0.00 0.00 0.00
07/20/19 5:57:28 AM 66 0.0 3.0 53 86 74.1 59.3 29.948 20.09 0.0 5 0.00 0.00 0.00 0.00
07/20/19 5:58:22 AM 66 0.0 3.0 53 86 74.1 59.3 29.948 20.09 0.0 5 0.00 0.00 0.00 0.00
07/20/19 5:59:35 AM 66 0.0 3.0 53 86 74.1 59.3 29.951 20.09 0.0 5 0.00 0.00 0.00 0.00
07/20/19 6:00:23 AM 66 0.0 3.0 53 86 74.1 59.3 29.951 20.09 0.0 5 0.00 0.00 0.00 0.00
07/20/19 6:01:17 AM 66 0.0 3.0 53 86 74.1 59.3 29.945 20.09 0.0 5 0.00 0.00 0.00 0.00
07/20/19 6:02:29 AM 66 0.0 3.0 53 87 74.1 59.3 29.946 20.09 0.0 7 0.00 0.00 0.00 0.00
07/20/19 6:03:23 AM 66 0.0 3.0 53 87 74.1 59.3 29.946 20.09 0.0 7 0.00 0.00 0.00 0.00
07/20/19 6:04:35 AM 66 0.0 3.0 53 87 74.1 59.2 29.946 20.09 0.0 7 0.00 0.00 0.00 0.00
07/20/19 6:05:29 AM 66 0.0 3.0 53 87 74.1 59.2 29.947 20.09 0.0 7 0.00 0.00 0.00 0.00
07/20/19 6:06:35 AM 66 0.0 3.0 53 87 74.1 59.2 29.948 20.09 0.0 7 0.00 0.00 0.00 0.00
07/20/19 6:07:30 AM 66 0.0 3.0 53 87 74.0 59.2 29.947 20.09 0.0 7 0.00 0.00 0.00 0.00
07/20/19 6:08:21 AM 66 0.0 3.0 53 87 74.0 59.2 29.947 20.09 0.0 9 0.00 0.00 0.00 0.00
07/20/19 6:09:33 AM 66 0.0 3.0 53 87 74.0 59.2 29.948 20.09 0.0 9 0.00 0.00 0.00 0.00
07/20/19 6:10:27 AM 66 0.0 3.0 53 87 74.0 59.1 29.948 20.09 0.0 9 0.00 0.00 0.00 0.00
07/20/19 6:11:36 AM 66 0.0 3.0 53 87 74.0 59.1 29.949 20.09 0.0 9 0.00 0.00 0.00 0.00
07/20/19 6:12:27 AM 66 0.0 3.0 53 87 74.0 59.1 29.949 20.09 0.0 11 0.00 0.00 0.00 0.00
07/20/19 6:13:24 AM 66 0.0 3.0 53 87 74.0 59.1 29.950 20.09 0.0 11 0.00 0.00 0.00 0.00
07/20/19 6:14:37 AM 66 0.0 3.0 53 87 74.0 59.1 29.951 20.09 0.0 11 0.00 0.00 0.00 0.00
07/20/19 6:15:31 AM 66 0.0 3.0 53 87 74.0 59.1 29.950 20.09 0.0 12 0.00 0.00 0.00 0.00
07/20/19 6:16:22 AM 66 0.0 3.0 53 87 74.0 59.1 29.950 20.09 0.0 12 0.00 0.00 0.00 0.00
07/20/19 6:17:31 AM 66 0.0 3.0 53 87 74.1 59.0 29.951 20.09 0.0 14 0.00 0.00 0.00 0.00
07/20/19 6:18:22 AM 66 0.0 3.0 53 87 74.1 59.0 29.951 20.09 0.0 14 0.00 0.00 0.00 0.00
07/20/19 6:19:37 AM 66 0.0 3.0 53 87 74.0 59.0 29.950 20.09 0.0 16 0.00 0.00 0.00 0.00
07/20/19 6:20:31 AM 66 0.0 3.0 53 87 74.1 59.0 29.949 20.09 0.0 16 0.00 0.00 0.00 0.00
07/20/19 6:21:22 AM 66 0.0 3.0 53 87 74.1 59.0 29.949 20.09 0.0 18 0.00 0.00 0.00 0.00
07/20/19 6:22:31 AM 66 0.0 3.0 53 87 74.1 59.0 29.950 20.09 0.0 19 0.00 0.00 0.00 0.00
07/20/19 6:23:22 AM 66 0.0 3.0 53 87 74.1 59.1 29.950 20.09 0.0 19 0.00 0.00 0.00 0.00
07/20/19 6:24:37 AM 66 0.0 3.0 53 87 74.1 59.1 29.950 20.09 0.0 21 0.00 0.00 0.00 0.00
07/20/19 6:25:31 AM 66 0.0 3.0 53 87 74.1 59.1 29.950 20.09 0.0 23 0.00 0.00 0.00 0.00
07/20/19 6:26:22 AM 66 0.0 3.0 53 88 74.1 59.1 29.950 20.09 0.0 25 0.00 0.00 0.00 0.00
07/20/19 6:27:31 AM 66 0.0 3.0 53 87 74.1 59.1 29.950 20.09 0.0 25 0.00 0.00 0.00 0.00
07/20/19 6:28:25 AM 66 0.0 3.0 53 87 74.1 59.1 29.950 20.09 0.0 26 0.00 0.00 0.00 0.00
07/20/19 6:29:16 AM 66 0.0 3.0 53 87 74.1 59.1 29.950 20.09 0.0 28 0.00 0.00 0.00 0.00
07/20/19 6:30:31 AM 66 0.0 3.0 53 87 74.1 59.1 29.949 20.09 0.0 33 0.00 0.00 0.00 0.00
07/20/19 6:31:22 AM 66 0.0 3.0 53 87 74.1 59.1 29.949 20.09 0.0 39 0.00 0.00 0.00 0.00
07/20/19 6:32:37 AM 66 0.0 3.0 53 87 74.1 59.2 29.950 20.09 0.0 42 0.00 0.00 0.00 0.00
07/20/19 6:33:25 AM 66 0.0 3.0 53 87 74.1 59.1 29.950 20.09 0.0 44 0.00 0.00 0.00 0.00
07/20/19 6:34:19 AM 66 0.0 3.0 53 88 74.1 59.1 29.950 20.09 0.0 46 0.00 0.00 0.00 0.00
07/20/19 6:35:34 AM 66 0.0 3.0 53 88 74.2 59.2 29.950 20.09 0.0 47 0.00 0.00 0.00 0.00
07/20/19 6:36:25 AM 66 0.0 3.0 53 88 74.2 59.2 29.950 20.09 0.0 51 0.00 0.00 0.00 0.00
07/20/19 6:37:19 AM 66 0.0 3.0 53 88 74.2 59.2 29.951 20.09 0.0 53 0.00 0.00 0.00 0.00
07/20/19 6:38:29 AM 66 0.0 3.0 53 88 74.2 59.2 29.950 20.09 0.0 56 0.00 0.00 0.00 0.00
07/20/19 6:39:20 AM 66 0.0 3.0 53 88 74.2 59.3 29.950 20.09 0.0 56 0.00 0.00 0.00 0.00
07/20/19 6:40:35 AM 66 0.0 3.0 53 88 74.1 59.3 29.952 20.09 0.0 60 0.00 0.00 0.00 0.00
07/20/19 6:41:26 AM 66 0.0 3.0 53 88 74.2 59.4 29.952 20.09 0.0 62 0.00 0.00 0.00 0.00
07/20/19 6:42:17 AM 66 0.0 3.0 53 88 74.2 59.4 29.955 20.09 0.0 63 0.00 0.00 0.00 0.00
07/20/19 6:43:32 AM 66 0.0 3.0 53 88 74.1 59.4 29.953 20.09 0.0 65 0.00 0.00 0.00 0.00
07/20/19 6:44:20 AM 66 0.0 3.0 53 88 74.1 59.5 29.953 20.09 0.0 67 0.00 0.00 0.00 0.00
07/20/19 6:45:36 AM 66 0.0 3.0 53 88 74.2 59.5 29.951 20.09 0.0 69 0.00 0.00 0.00 0.00
07/20/19 6:46:27 AM 66 0.0 3.0 53 88 74.2 59.6 29.951 20.09 0.0 70 0.00 0.00 0.00 0.00
07/20/19 6:47:17 AM 66 0.0 3.0 53 89 74.1 59.6 29.952 20.09 0.0 72 0.00 0.00 0.00 0.00
07/20/19 6:48:29 AM 66 0.0 3.0 53 89 74.2 59.8 29.950 20.09 0.0 76 0.00 0.00 0.00 0.00
07/20/19 6:49:18 AM 66 0.0 3.0 53 89 74.2 59.9 29.950 20.09 0.0 77 0.00 0.00 0.00 0.00
07/20/19 6:50:30 AM 66 0.0 3.0 53 89 74.1 59.9 29.952 20.09 0.0 81 0.00 0.00 0.00 0.00
07/20/19 6:51:21 AM 66 0.0 3.0 54 89 74.1 60.0 29.952 20.09 0.0 83 0.00 0.00 0.00 0.00
07/20/19 6:52:33 AM 66 0.0 3.0 54 89 74.1 60.1 29.949 20.09 0.0 86 0.00 0.00 0.00 0.00
07/20/19 6:53:27 AM 66 0.0 3.0 54 89 74.1 60.2 29.949 20.09 0.0 88 0.00 0.00 0.00 0.00
07/20/19 6:54:21 AM 66 0.0 3.0 54 89 74.1 60.3 29.951 20.09 0.0 88 0.00 0.00 0.00 0.00
07/20/19 6:55:30 AM 66 0.0 3.0 54 89 74.1 60.4 29.952 20.09 0.0 91 0.00 0.00 0.00 0.00
07/20/19 6:56:21 AM 66 0.0 3.0 54 89 74.1 60.4 29.952 20.09 0.0 93 0.00 0.00 0.00 0.00
07/20/19 6:57:33 AM 66 0.0 3.0 54 88 74.1 60.5 29.950 20.09 0.0 95 0.00 0.00 0.00 0.00
07/20/19 6:58:24 AM 66 0.0 3.0 54 88 74.1 60.6 29.950 20.09 0.0 98 0.00 0.00 0.00 0.00
07/20/19 6:59:15 AM 66 0.0 3.0 54 88 74.1 60.7 29.950 20.09 0.0 98 0.00 0.00 0.00 0.00
07/20/19 7:00:27 AM 66 0.0 3.0 54 88 74.1 60.7 29.951 20.09 0.0 102 0.00 0.00 0.00 0.00
07/20/19 7:01:18 AM 66 0.0 3.0 54 88 74.1 60.8 29.950 20.09 0.0 104 0.00 0.00 0.00 0.00
07/20/19 7:02:34 AM 66 0.0 3.0 54 88 74.1 60.9 29.952 20.09 0.0 105 0.00 0.00 0.00 0.00
07/20/19 7:03:25 AM 66 0.0 3.0 54 88 74.1 60.9 29.952 20.09 0.0 100 0.00 0.00 0.00 0.00
07/20/19 7:04:19 AM 66 0.0 3.0 54 88 74.1 61.0 29.948 20.09 0.0 98 0.00 0.00 0.00 0.00
07/20/19 7:05:28 AM 67 0.0 3.0 55 87 74.0 61.1 29.949 20.09 0.0 98 0.00 0.00 0.00 0.00
07/20/19 7:06:19 AM 67 0.0 3.0 55 87 74.0 61.1 29.950 20.09 0.0 111 0.00 0.00 0.00 0.00
07/20/19 7:07:31 AM 67 0.0 3.0 55 87 74.0 61.2 29.949 20.09 0.0 127 0.00 0.00 0.00 0.00
07/20/19 7:08:25 AM 67 4.0 4.0 55 87 74.0 61.2 29.949 20.09 0.0 127 0.00 0.00 0.00 0.00
07/20/19 7:09:16 AM 67 3.0 4.0 55 87 73.9 61.2 29.949 20.09 0.0 116 0.00 0.00 0.00 0.00
07/20/19 7:10:29 AM 67 3.0 4.0 55 87 73.7 61.3 29.950 20.09 0.0 128 0.00 0.00 0.00 0.00
07/20/19 7:11:20 AM 67 3.0 4.0 55 86 73.7 61.3 29.950 20.09 0.0 120 0.00 0.00 0.00 0.00
07/20/19 7:12:32 AM 67 3.0 4.0 55 86 73.6 61.4 29.949 20.09 0.0 107 0.00 0.00 0.00 0.00
07/20/19 7:13:23 AM 66 2.0 4.0 56 86 73.6 61.4 29.949 20.09 0.0 98 0.00 0.00 0.00 0.00
07/20/19 7:14:17 AM 67 3.0 4.0 56 86 73.5 61.4 29.946 20.09 0.0 120 0.00 0.00 0.00 0.00
07/20/19 7:15:29 AM 67 2.0 4.0 56 86 73.3 61.4 29.949 20.09 0.0 148 0.00 0.00 0.00 0.00
07/20/19 7:16:17 AM 69 2.0 4.0 56 86 73.3 61.5 29.949 20.09 0.0 153 0.00 0.00 0.00 0.00
07/20/19 7:17:29 AM 69 2.0 4.0 56 86 73.2 61.6 29.950 20.09 0.0 162 0.00 0.00 0.00 0.00
07/20/19 7:18:23 AM 69 1.0 4.0 56 86 73.2 61.6 29.950 20.09 0.0 109 0.00 0.00 0.00 0.00
07/20/19 7:19:17 AM 69 2.0 4.0 56 86 73.1 61.7 29.949 20.09 0.0 84 0.00 0.00 0.00 0.00
07/20/19 7:20:29 AM 69 2.0 4.0 57 86 73.0 61.7 29.950 20.09 0.0 83 0.00 0.00 0.00 0.00
07/20/19 7:21:24 AM 69 2.0 4.0 57 86 73.0 61.7 29.950 20.09 0.0 86 0.00 0.00 0.00 0.00
07/20/19 7:22:33 AM 69 3.0 4.0 57 86 72.8 61.8 29.950 20.09 0.0 83 0.00 0.00 0.00 0.00
07/20/19 7:23:24 AM 69 2.0 4.0 57 86 72.8 61.8 29.950 20.09 0.0 83 0.00 0.00 0.00 0.00
07/20/19 7:24:36 AM 69 1.0 4.0 57 86 72.7 61.8 29.949 20.09 0.0 86 0.00 0.00 0.00 0.00
07/20/19 7:25:33 AM 69 3.0 4.0 58 86 72.6 61.8 29.948 20.09 0.0 86 0.00 0.00 0.00 0.00
07/20/19 7:26:24 AM 69 1.0 4.0 58 86 72.6 61.8 29.948 20.09 0.0 97 0.00 0.00 0.00 0.00
07/20/19 7:27:34 AM 69 2.0 4.0 58 86 72.5 61.8 29.949 20.09 0.0 100 0.00 0.00 0.00 0.00
07/20/19 7:28:25 AM 69 2.0 4.0 58 86 72.5 61.8 29.949 20.09 0.0 104 0.00 0.00 0.00 0.00
07/20/19 7:29:16 AM 69 1.0 4.0 58 86 72.4 61.8 29.950 20.09 0.0 104 0.00 0.00 0.00 0.00
07/20/19 7:30:28 AM 69 1.0 4.0 58 86 72.3 61.8 29.951 20.09 0.0 104 0.00 0.00 0.00 0.00
07/20/19 7:31:22 AM 69 3.0 4.0 58 86 72.3 61.9 29.951 20.09 0.0 105 0.00 0.00 0.00 0.00
07/20/19 7:32:31 AM 78 2.0 4.0 58 86 72.2 61.8 29.950 20.09 0.0 109 0.00 0.00 0.00 0.00
07/20/19 7:33:22 AM 78 3.0 4.0 58 86 72.2 61.8 29.950 20.09 0.0 116 0.00 0.00 0.00 0.00
07/20/19 7:34:16 AM 78 3.0 4.0 58 86 72.2 61.9 29.950 20.09 0.0 142 0.00 0.00 0.00 0.00
07/20/19 7:35:32 AM 78 1.0 4.0 58 86 72.1 61.9 29.950 20.09 0.5 213 0.00 0.00 0.00 0.00
07/20/19 7:36:23 AM 78 0.0 4.0 58 86 72.1 61.9 29.950 20.09 0.5 202 0.00 0.00 0.00 0.00
07/20/19 7:37:35 AM 78 2.0 4.0 58 86 72.0 61.9 29.951 20.09 0.0 130 0.00 0.00 0.00 0.00
07/20/19 7:38:26 AM 78 4.0 4.0 59 86 72.0 61.9 29.951 20.09 0.5 130 0.00 0.00 0.00 0.00
07/20/19 7:39:17 AM 78 2.0 4.0 59 86 71.9 62.0 29.951 20.09 0.5 134 0.00 0.00 0.00 0.00
07/20/19 7:40:29 AM 78 1.0 4.0 59 86 71.8 62.0 29.951 20.09 0.5 132 0.00 0.00 0.00 0.00
07/20/19 7:41:24 AM 78 2.0 4.0 59 86 71.8 62.0 29.951 20.09 0.5 134 0.00 0.00 0.00 0.00
07/20/19 7:42:33 AM 78 1.0 4.0 59 86 71.7 62.0 29.952 20.09 0.5 135 0.00 0.00 0.00 0.00
07/20/19 7:43:21 AM 78 0.0 4.0 59 86 71.7 62.0 29.952 20.09 0.5 135 0.00 0.00 0.00 0.00
07/20/19 7:44:34 AM 81 3.0 4.0 59 86 71.6 62.1 29.955 20.09 0.5 148 0.00 0.00 0.00 0.00
07/20/19 7:45:28 AM 92 3.0 4.0 59 86 71.6 62.1 29.955 20.09 0.5 134 0.00 0.00 0.00 0.00
07/20/19 7:46:19 AM 92 1.0 4.0 59 86 71.6 62.1 29.955 20.09 0.5 128 0.00 0.00 0.00 0.00
07/20/19 7:47:31 AM 92 1.0 4.0 59 86 71.5 62.1 29.955 20.09 0.5 132 0.00 0.00 0.00 0.00
07/20/19 7:48:25 AM 92 2.0 4.0 59 86 71.5 62.2 29.955 20.09 0.6 139 0.00 0.00 0.00 0.00
07/20/19 7:49:34 AM 92 0.0 4.0 60 86 71.5 62.3 29.956 20.09 0.6 139 0.00 0.00 0.00 0.00
07/20/19 7:50:25 AM 92 0.0 4.0 60 86 71.5 62.3 29.956 20.09 0.7 139 0.00 0.00 0.00 0.00
07/20/19 7:51:37 AM 136 3.0 4.0 60 86 71.5 62.4 29.958 20.09 0.7 306 0.00 0.00 0.00 0.00
07/20/19 7:52:29 AM 150 4.0 5.0 60 86 71.5 62.4 29.959 20.09 0.7 343 0.00 0.00 0.00 0.00
07/20/19 7:53:23 AM 150 3.0 5.0 60 86 71.5 62.4 29.959 20.09 0.7 343 0.00 0.00 0.00 0.00
07/20/19 7:54:32 AM 150 2.0 5.0 60 85 71.5 62.4 29.958 20.09 0.6 137 0.00 0.00 0.00 0.00
07/20/19 7:55:23 AM 150 1.0 5.0 60 85 71.5 62.5 29.958 20.09 0.6 162 0.00 0.00 0.00 0.00
07/20/19 7:56:18 AM 167 5.0 5.0 60 85 71.5 62.5 29.958 20.09 0.7 162 0.00 0.00 0.00 0.00
07/20/19 7:57:30 AM 178 3.0 6.0 60 85 71.5 62.5 29.961 20.09 0.7 248 0.00 0.00 0.00 0.00
07/20/19 7:58:21 AM 177 3.0 6.0 60 85 71.5 62.5 29.961 20.09 0.7 200 0.00 0.00 0.00 0.00
07/20/19 7:59:30 AM 178 1.0 6.0 60 85 71.5 62.6 29.960 20.09 0.7 179 0.00 0.00 0.00 0.00
07/20/19 8:00:21 AM 178 0.0 6.0 60 85 71.5 62.6 29.960 20.09 0.8 179 0.00 0.00 0.00 0.00
07/20/19 8:01:34 AM 178 2.0 6.0 60 85 71.5 62.7 29.961 20.09 0.8 325 0.00 0.00 0.00 0.00
07/20/19 8:02:25 AM 178 0.0 6.0 60 85 71.5 62.7 29.961 20.09 0.9 325 0.00 0.00 0.00 0.00
07/20/19 8:03:19 AM 178 0.0 6.0 60 85 71.5 62.8 29.961 20.09 0.9 323 0.00 0.00 0.00 0.00
07/20/19 8:04:32 AM 178 0.0 6.0 60 85 71.5 62.9 29.961 20.09 0.8 323 0.00 0.00 0.00 0.00
07/20/19 8:05:23 AM 178 0.0 6.0 60 85 71.5 62.9 29.961 20.09 0.9 230 0.00 0.00 0.00 0.00
07/20/19 8:06:32 AM 178 0.0 6.0 60 85 71.5 63.0 29.958 20.09 0.9 269 0.00 0.00 0.00 0.00
07/20/19 8:07:26 AM 178 0.0 6.0 60 85 71.5 63.1 29.958 20.09 0.9 269 0.00 0.00 0.00 0.00
07/20/19 8:08:21 AM 178 0.0 6.0 60 85 71.5 63.1 29.958 20.09 0.9 295 0.00 0.00 0.00 0.00
07/20/19 8:09:33 AM 178 0.0 6.0 60 85 71.5 63.2 29.960 20.09 1.0 329 0.00 0.00 0.00 0.00
07/20/19 8:10:24 AM 178 0.0 6.0 60 85 71.5 63.2 29.960 20.09 1.0 336 0.00 0.00 0.00 0.00
07/20/19 8:11:36 AM 178 0.0 6.0 60 85 71.4 63.3 29.958 20.09 1.1 345 0.00 0.00 0.00 0.00
07/20/19 8:12:28 AM 178 0.0 6.0 60 85 71.4 63.4 29.962 20.09 1.1 353 0.00 0.00 0.00 0.00
07/20/19 8:13:19 AM 177 0.0 6.0 60 85 71.4 63.5 29.962 20.09 1.1 362 0.00 0.00 0.00 0.00
07/20/19 8:14:34 AM 177 0.0 6.0 60 85 71.3 63.6 29.961 20.09 1.1 366 0.00 0.00 0.00 0.00
07/20/19 8:15:26 AM 178 0.0 6.0 60 85 71.3 63.6 29.961 20.09 1.1 371 0.00 0.00 0.00 0.00
07/20/19 8:16:35 AM 178 0.0 6.0 60 85 71.3 63.8 29.960 20.09 1.2 373 0.00 0.00 0.00 0.00
07/20/19 8:17:26 AM 178 0.0 6.0 60 85 71.3 64.0 29.960 20.09 1.2 373 0.00 0.00 0.00 0.00
07/20/19 8:18:17 AM 178 0.0 6.0 60 85 71.3 64.1 29.960 20.09 1.2 374 0.00 0.00 0.00 0.00
07/20/19 8:19:33 AM 177 0.0 6.0 60 84 71.2 64.2 29.963 20.09 1.2 378 0.00 0.00 0.00 0.00
07/20/19 8:20:24 AM 177 0.0 6.0 60 84 71.2 64.3 29.963 20.09 1.2 380 0.00 0.00 0.00 0.00
07/20/19 8:21:34 AM 177 0.0 6.0 60 84 71.1 64.5 29.962 20.09 1.3 378 0.00 0.00 0.00 0.00
07/20/19 8:22:25 AM 177 0.0 6.0 60 83 71.1 64.6 29.962 20.09 1.3 378 0.00 0.00 0.00 0.00
07/20/19 8:23:19 AM 177 0.0 6.0 60 83 71.1 64.6 29.960 20.09 1.3 383 0.00 0.00 0.00 0.00
07/20/19 8:24:35 AM 177 0.0 6.0 60 83 71.0 64.7 29.962 20.09 1.3 385 0.00 0.00 0.00 0.00
07/20/19 8:25:29 AM 178 0.0 6.0 60 83 71.1 64.9 29.962 20.09 1.3 385 0.00 0.00 0.00 0.00
07/20/19 8:26:17 AM 337 2.0 6.0 60 83 71.1 65.0 29.959 20.09 1.3 388 0.00 0.00 0.00 0.00
07/20/19 8:27:26 AM 337 1.0 6.0 61 82 71.1 65.0 29.960 20.09 1.4 394 0.00 0.00 0.00 0.00
07/20/19 8:28:21 AM 335 2.0 6.0 61 82 71.1 65.1 29.960 20.09 1.4 396 0.00 0.00 0.00 0.00
07/20/19 8:29:33 AM 335 1.0 6.0 61 81 71.1 65.2 29.961 20.09 1.4 397 0.00 0.00 0.00 0.00
07/20/19 8:30:27 AM 335 2.0 6.0 61 81 71.1 65.2 29.960 20.09 1.4 408 0.00 0.00 0.00 0.00
07/20/19 8:31:19 AM 335 2.0 6.0 61 81 71.1 65.2 29.960 20.09 1.5 411 0.00 0.00 0.00 0.00
07/20/19 8:32:28 AM 335 2.0 6.0 61 80 71.1 65.2 29.959 20.09 1.5 417 0.00 0.00 0.00 0.00
07/20/19 8:33:19 AM 335 0.0 6.0 61 80 71.1 65.2 29.960 20.09 1.5 424 0.00 0.00 0.00 0.00
07/20/19 8:34:32 AM 335 0.0 6.0 61 80 71.2 65.3 29.959 20.09 1.5 427 0.00 0.00 0.00 0.00
07/20/19 8:35:26 AM 213 4.0 6.0 61 80 71.2 65.4 29.959 20.09 1.5 427 0.00 0.00 0.00 0.00
07/20/19 8:36:17 AM 213 3.0 6.0 61 80 71.1 65.5 29.957 20.09 1.6 427 0.00 0.00 0.00 0.00
07/20/19 8:37:26 AM 213 2.0 6.0 61 80 71.2 65.6 29.957 20.09 1.6 432 0.00 0.00 0.00 0.00
07/20/19 8:38:21 AM 213 2.0 6.0 61 80 71.2 65.7 29.955 20.09 1.6 436 0.00 0.00 0.00 0.00
07/20/19 8:39:30 AM 213 0.0 6.0 61 80 71.2 65.8 29.956 20.09 1.6 434 0.00 0.00 0.00 0.00
07/20/19 8:40:25 AM 213 1.0 6.0 61 80 71.2 65.9 29.956 20.09 1.6 438 0.00 0.00 0.00 0.00
07/20/19 8:41:37 AM 213 0.0 6.0 61 79 71.2 66.0 29.958 20.09 1.7 445 0.00 0.00 0.00 0.00
07/20/19 8:42:31 AM 213 0.0 6.0 61 79 71.3 66.1 29.957 20.09 1.7 450 0.00 0.00 0.00 0.00
07/20/19 8:43:17 AM 209 2.0 6.0 61 79 71.3 66.1 29.957 20.09 1.7 457 0.00 0.00 0.00 0.00
07/20/19 8:44:32 AM 196 5.0 6.0 61 80 71.3 66.3 29.957 20.09 1.7 459 0.00 0.00 0.00 0.00
07/20/19 8:45:26 AM 318 2.0 6.0 61 79 71.3 66.4 29.957 20.09 1.8 462 0.00 0.00 0.00 0.00
07/20/19 8:46:18 AM 317 3.0 6.0 61 79 71.3 66.5 29.955 20.09 1.8 466 0.00 0.00 0.00 0.00
07/20/19 8:47:30 AM 294 3.0 6.0 61 78 71.3 66.6 29.954 20.09 1.8 471 0.00 0.00 0.00 0.00
07/20/19 8:48:19 AM 294 0.0 6.0 61 78 71.3 66.5 29.954 20.09 1.8 473 0.00 0.00 0.00 0.00
07/20/19 8:49:31 AM 223 3.0 6.0 61 78 71.3 66.6 29.956 20.09 1.9 476 0.00 0.00 0.00 0.00
07/20/19 8:50:23 AM 223 3.0 6.0 61 78 71.3 66.6 29.956 20.09 1.9 480 0.00 0.00 0.00 0.00
07/20/19 8:51:36 AM 221 3.0 6.0 61 77 71.3 66.7 29.955 20.09 1.9 482 0.00 0.00 0.00 0.00
07/20/19 8:52:27 AM 206 4.0 6.0 61 78 71.3 66.8 29.955 20.09 1.9 482 0.00 0.00 0.00 0.00
07/20/19 8:53:21 AM 221 5.0 6.0 61 78 71.3 66.9 29.955 20.09 1.9 487 0.00 0.00 0.00 0.00
07/20/19 8:54:28 AM 230 3.0 6.0 61 78 71.4 67.0 29.955 20.09 2.0 492 0.00 0.00 0.00 0.00
07/20/19 8:55:22 AM 230 3.0 6.0 61 78 71.4 67.1 29.955 20.09 2.0 492 0.00 0.00 0.00 0.00
07/20/19 8:56:35 AM 220 5.0 6.0 61 78 71.4 67.2 29.956 20.09 2.0 499 0.00 0.00 0.00 0.00
07/20/19 8:57:26 AM 243 4.0 7.0 61 77 71.4 67.3 29.956 20.09 2.0 501 0.00 0.00 0.00 0.00
07/20/19 8:58:20 AM 219 5.0 7.0 61 77 71.5 67.4 29.955 20.09 2.0 506 0.00 0.00 0.00 0.00
07/20/19 8:59:27 AM 216 6.0 7.0 61 76 71.5 67.4 29.955 20.09 2.1 508 0.00 0.00 0.00 0.00
07/20/19 9:00:18 AM 213 5.0 7.0 61 76 71.5 67.4 29.955 20.09 2.1 512 0.00 0.00 0.00 0.00
07/20/19 9:01:30 AM 223 4.0 7.0 61 75 71.5 67.4 29.957 20.09 2.1 517 0.00 0.00 0.00 0.00
07/20/19 9:02:24 AM 236 3.0 7.0 61 75 71.5 67.4 29.957 20.09 2.2 517 0.00 0.00 0.00 0.00
07/20/19 9:03:19 AM 236 0.0 7.0 61 76 71.6 67.4 29.957 20.09 2.2 522 0.00 0.00 0.00 0.00
07/20/19 9:04:25 AM 211 6.0 7.0 61 76 71.6 67.4 29.956 20.09 2.2 526 0.00 0.00 0.00 0.00
07/20/19 9:05:19 AM 214 3.0 7.0 61 76 71.6 67.5 29.956 20.09 2.2 531 0.00 0.00 0.00 0.00
07/20/19 9:06:32 AM 240 3.0 7.0 61 75 71.6 67.5 29.956 20.09 2.2 533 0.00 0.00 0.00 0.00
07/20/19 9:07:26 AM 221 3.0 7.0 61 76 71.6 67.6 29.956 20.09 2.3 534 0.00 0.00 0.00 0.00
07/20/19 9:08:17 AM 223 3.0 7.0 61 75 71.7 67.6 29.957 20.09 2.3 536 0.00 0.00 0.00 0.00
07/20/19 9:09:30 AM 223 1.0 7.0 61 75 71.7 67.7 29.957 20.09 2.3 538 0.00 0.00 0.00 0.00
07/20/19 9:10:18 AM 195 4.0 7.0 61 75 71.7 67.7 29.957 20.09 2.3 538 0.00 0.00 0.00 0.00
07/20/19 9:11:31 AM 194 1.0 7.0 61 75 71.8 67.8 29.957 20.09 2.4 543 0.00 0.00 0.00 0.00
07/20/19 9:12:25 AM 192 2.0 7.0 61 75 71.8 67.9 29.957 20.09 2.4 547 0.00 0.00 0.00 0.00
07/20/19 9:13:19 AM 249 3.0 7.0 61 76 71.8 68.0 29.956 20.09 2.4 550 0.00 0.00 0.00 0.00
07/20/19 9:14:32 AM 252 3.0 7.0 61 76 71.8 68.1 29.957 20.09 2.5 555 0.00 0.00 0.00 0.00
07/20/19 9:15:23 AM 227 3.0 7.0 61 76 71.8 68.2 29.957 20.09 2.5 559 0.00 0.00 0.00 0.00
07/20/19 9:16:33 AM 240 3.0 7.0 61 75 71.9 68.3 29.957 20.09 2.5 563 0.00 0.00 0.00 0.00
07/20/19 9:17:21 AM 232 3.0 7.0 61 75 71.9 68.3 29.957 20.09 2.5 564 0.00 0.00 0.00 0.00
07/20/19 9:18:34 AM 211 1.0 7.0 61 74 71.9 68.3 29.957 20.09 2.6 570 0.00 0.00 0.00 0.00
07/20/19 9:19:25 AM 224 3.0 7.0 61 74 71.9 68.4 29.957 20.09 2.6 570 0.00 0.00 0.00 0.00
07/20/19 9:20:16 AM 229 3.0 7.0 61 74 72.0 68.5 29.959 20.09 2.6 573 0.00 0.00 0.00 0.00
07/20/19 9:21:26 AM 230 2.0 7.0 61 73 72.0 68.5 29.957 20.09 2.7 577 0.00 0.00 0.00 0.00
07/20/19 9:22:17 AM 229 2.0 7.0 61 73 72.0 68.5 29.958 20.09 2.7 580 0.00 0.00 0.00 0.00
07/20/19 9:23:32 AM 227 2.0 7.0 61 73 72.1 68.6 29.957 20.09 2.7 584 0.00 0.00 0.00 0.00
07/20/19 9:24:24 AM 227 0.0 7.0 61 73 72.1 68.6 29.957 20.09 2.7 585 0.00 0.00 0.00 0.00
07/20/19 9:25:18 AM 80 1.0 7.0 61 72 72.1 68.7 29.959 20.09 2.8 585 0.00 0.00 0.00 0.00
07/20/19 9:26:24 AM 80 2.0 7.0 61 72 72.1 68.8 29.958 20.09 2.8 594 0.00 0.00 0.00 0.00
07/20/19 9:27:19 AM 141 2.0 7.0 61 72 72.1 68.9 29.956 20.09 2.8 599 0.00 0.00 0.00 0.00
07/20/19 9:28:32 AM 141 3.0 7.0 61 72 72.1 69.0 29.958 20.09 2.9 601 0.00 0.00 0.00 0.00
07/20/19 9:29:23 AM 141 2.0 7.0 61 72 72.1 69.0 29.958 20.09 2.9 605 0.00 0.00 0.00 0.00
07/20/19 9:30:18 AM 141 1.0 7.0 61 72 72.2 69.2 29.958 20.09 2.9 608 0.00 0.00 0.00 0.00
07/20/19 9:31:27 AM 145 3.0 7.0 61 72 72.2 69.3 29.958 20.09 3.0 608 0.00 0.00 0.00 0.00
07/20/19 9:32:22 AM 159 2.0 7.0 61 72 72.2 69.4 29.958 20.09 3.0 613 0.00 0.00 0.00 0.00
07/20/19 9:33:31 AM 159 2.0 7.0 61 71 72.2 69.5 29.958 20.09 3.0 617 0.00 0.00 0.00 0.00
07/20/19 9:34:26 AM 159 1.0 7.0 61 71 72.2 69.6 29.958 20.09 3.0 619 0.00 0.00 0.00 0.00
07/20/19 9:35:20 AM 159 0.0 7.0 61 71 72.3 69.7 29.961 20.09 3.1 622 0.00 0.00 0.00 0.00
07/20/19 9:36:32 AM 159 0.0 7.0 61 70 72.3 69.8 29.961 20.09 3.1 628 0.00 0.00 0.00 0.00
07/20/19 9:37:21 AM 158 2.0 7.0 61 71 72.3 69.9 29.961 20.09 3.1 629 0.00 0.00 0.00 0.00
07/20/19 9:38:33 AM 158 0.0 7.0 61 70 72.4 70.1 29.959 20.09 3.2 633 0.00 0.00 0.00 0.00
07/20/19 9:39:28 AM 159 4.0 7.0 61 70 72.4 70.4 29.959 20.09 3.2 633 0.00 0.00 0.00 0.00
07/20/19 9:40:19 AM 159 2.0 7.0 61 69 72.3 70.5 29.958 20.09 3.2 636 0.00 0.00 0.00 0.00
07/20/19 9:41:31 AM 159 2.0 7.0 61 69 72.4 70.7 29.958 20.09 3.3 640 0.00 0.00 0.00 0.00
07/20/19 9:42:19 AM 167 3.0 7.0 61 68 72.4 70.8 29.958 20.09 3.3 643 0.00 0.00 0.00 0.00
07/20/19 9:43:32 AM 167 3.0 7.0 61 68 72.4 70.9 29.955 20.09 3.3 647 0.00 0.00 0.00 0.00
07/20/19 9:44:24 AM 167 4.0 7.0 61 68 72.4 71.0 29.955 20.09 3.4 650 0.00 0.00 0.00 0.00
07/20/19 9:45:18 AM 167 1.0 7.0 61 68 72.5 71.1 29.957 20.09 3.4 654 0.00 0.00 0.00 0.00
07/20/19 9:46:30 AM 167 0.0 7.0 61 68 72.5 71.1 29.954 20.09 3.4 654 0.00 0.00 0.00 0.00
07/20/19 9:47:25 AM 167 0.0 7.0 61 68 72.5 71.2 29.954 20.09 3.5 659 0.00 0.00 0.00 0.00
07/20/19 9:48:31 AM 167 1.0 7.0 61 68 72.5 71.4 29.955 20.09 3.5 664 0.00 0.00 0.00 0.00
07/20/19 9:49:26 AM 167 3.0 7.0 61 69 72.5 71.5 29.955 20.09 3.5 666 0.00 0.00 0.00 0.00
07/20/19 9:50:20 AM 167 3.0 7.0 61 68 72.6 71.7 29.956 20.09 3.5 664 0.00 0.00 0.00 0.00
07/20/19 9:51:30 AM 206 3.0 7.0 61 67 72.6 71.9 29.956 20.09 3.6 666 0.00 0.00 0.00 0.00
07/20/19 9:52:24 AM 229 5.0 7.0 61 67 72.6 72.0 29.956 20.09 3.6 670 0.00 0.00 0.00 0.00
07/20/19 9:53:34 AM 244 3.0 7.0 61 66 72.6 72.1 29.954 20.09 3.6 679 0.00 0.00 0.00 0.00
07/20/19 9:54:25 AM 236 2.0 7.0 61 67 72.6 72.1 29.954 20.09 3.7 680 0.00 0.00 0.00 0.00
07/20/19 9:55:17 AM 240 4.0 7.0 61 66 72.6 72.2 29.956 20.09 3.7 680 0.00 0.00 0.00 0.00
07/20/19 9:56:29 AM 261 3.0 7.0 61 66 72.7 72.2 29.956 20.09 3.8 686 0.00 0.00 0.00 0.00
07/20/19 9:57:20 AM 262 2.0 7.0 61 65 72.7 72.2 29.956 20.09 3.8 689 0.00 0.00 0.00 0.00
07/20/19 9:58:30 AM 262 1.0 7.0 61 65 72.8 72.1 29.959 20.09 3.8 691 0.00 0.00 0.00 0.00
07/20/19 9:59:21 AM 256 2.0 7.0 61 65 72.8 72.0 29.959 20.09 3.8 691 0.00 0.00 0.00 0.00
07/20/19 10:00:34 AM 257 3.0 7.0 61 67 72.8 72.1 29.957 20.09 1.2 693 0.00 0.00 0.00 0.00
07/20/19 10:01:28 AM 257 0.0 7.0 61 67 72.8 72.1 29.957 20.09 3.9 698 0.00 0.00 0.00 0.00
07/20/19 10:02:19 AM 257 1.0 7.0 61 66 72.8 72.1 29.959 20.09 4.0 700 0.00 0.00 0.00 0.00
07/20/19 10:03:32 AM 300 3.0 7.0 61 65 72.8 72.2 29.957 20.09 4.0 703 0.00 0.00 0.00 0.00
07/20/19 10:04:20 AM 300 2.0 7.0 61 65 72.8 72.2 29.957 20.09 4.0 707 0.00 0.00 0.00 0.00
07/20/19 10:05:33 AM 300 2.0 7.0 61 65 72.9 72.2 29.958 20.09 4.1 710 0.00 0.00 0.00 0.00
07/20/19 10:06:24 AM 295 3.0 7.0 61 65 72.9 72.2 29.958 20.09 4.1 712 0.00 0.00 0.00 0.00
07/20/19 10:07:19 AM 293 3.0 7.0 61 65 72.9 72.3 29.956 20.09 4.1 715 0.00 0.00 0.00 0.00
07/20/19 10:08:31 AM 293 1.0 7.0 61 64 72.9 72.2 29.956 20.09 4.2 717 0.00 0.00 0.00 0.00
07/20/19 10:09:23 AM 293 1.0 7.0 61 64 72.9 72.2 29.956 20.09 4.2 717 0.00 0.00 0.00 0.00
07/20/19 10:10:32 AM 294 2.0 7.0 61 65 72.9 72.2 29.956 20.09 4.2 724 0.00 0.00 0.00 0.00
07/20/19 10:11:26 AM 294 0.0 7.0 61 65 72.9 72.2 29.956 20.09 4.2 728 0.00 0.00 0.00 0.00
07/20/19 10:12:18 AM 294 2.0 7.0 61 65 73.0 72.2 29.955 20.09 4.3 729 0.00 0.00 0.00 0.00
07/20/19 10:13:30 AM 294 1.0 7.0 61 64 72.9 72.2 29.957 20.09 4.3 729 0.00 0.00 0.00 0.00
07/20/19 10:14:25 AM 294 2.0 7.0 61 65 72.9 72.4 29.957 20.09 4.4 729 0.00 0.00 0.00 0.00
07/20/19 10:15:34 AM 294 1.0 7.0 61 65 73.0 72.5 29.955 20.09 4.4 733 0.00 0.00 0.00 0.00
07/20/19 10:16:26 AM 292 3.0 7.0 61 65 73.0 72.7 29.955 20.09 4.4 733 0.00 0.00 0.00 0.00
07/20/19 10:17:20 AM 291 2.0 7.0 61 66 73.0 72.8 29.954 20.09 4.5 737 0.00 0.00 0.00 0.00
07/20/19 10:18:33 AM 290 2.0 7.0 61 64 73.0 72.9 29.954 20.09 4.5 742 0.00 0.00 0.00 0.00
07/20/19 10:19:24 AM 178 2.0 7.0 61 64 73.0 73.0 29.954 20.09 4.5 744 0.00 0.00 0.00 0.00
07/20/19 10:20:33 AM 178 1.0 7.0 61 64 73.0 73.1 29.951 20.09 4.6 747 0.00 0.00 0.00 0.00
07/20/19 10:21:25 AM 178 1.0 7.0 61 64 73.0 73.2 29.951 20.09 4.6 747 0.00 0.00 0.00 0.00
07/20/19 10:22:19 AM 178 2.0 7.0 61 63 73.0 73.3 29.950 20.09 4.6 747 0.00 0.00 0.00 0.00
07/20/19 10:23:32 AM 177 2.0 7.0 61 63 73.0 73.5 29.951 20.09 4.6 754 0.00 0.00 0.00 0.00
07/20/19 10:24:23 AM 177 2.0 7.0 61 62 73.0 73.7 29.951 20.09 4.7 758 0.00 0.00 0.00 0.00
07/20/19 10:25:18 AM 177 1.0 7.0 61 61 73.0 73.9 29.950 20.09 4.7 758 0.00 0.00 0.00 0.00
07/20/19 10:26:24 AM 177 1.0 7.0 61 62 73.0 74.0 29.950 20.09 4.8 770 0.00 0.00 0.00 0.00
07/20/19 10:27:36 AM 176 2.0 7.0 61 61 73.0 74.2 29.948 20.09 4.8 772 0.00 0.00 0.00 0.00
07/20/19 10:28:31 AM 177 2.0 7.0 61 61 73.1 74.3 29.948 20.09 4.8 773 0.00 0.00 0.00 0.00
07/20/19 10:29:22 AM 178 2.0 7.0 61 60 73.1 74.4 29.948 20.09 4.8 773 0.00 0.00 0.00 0.00
07/20/19 10:30:35 AM 178 1.0 7.0 61 62 73.1 74.5 29.947 20.09 4.9 773 0.00 0.00 0.00 0.00
07/20/19 10:31:23 AM 178 2.0 7.0 61 62 73.1 74.7 29.947 20.09 4.9 773 0.00 0.00 0.00 0.00
07/20/19 10:32:36 AM 181 5.0 7.0 61 61 73.0 74.9 29.948 20.09 4.9 777 0.00 0.00 0.00 0.00
07/20/19 10:33:30 AM 186 4.0 7.0 61 62 73.1 75.1 29.945 20.09 5.0 784 0.00 0.00 0.00 0.00
07/20/19 10:34:24 AM 179 2.0 7.0 61 59 73.1 75.3 29.945 20.09 5.0 786 0.00 0.00 0.00 0.00
07/20/19 10:35:37 AM 183 4.0 7.0 61 58 73.1 75.3 29.944 20.09 5.0 788 0.00 0.00 0.00 0.00
07/20/19 10:36:22 AM 182 2.0 7.0 61 57 73.1 75.3 29.944 20.09 5.0 793 0.00 0.00 0.00 0.00
07/20/19 10:37:34 AM 169 6.0 7.0 61 57 73.2 75.3 29.944 20.09 5.1 796 0.00 0.00 0.00 0.00
07/20/19 10:38:26 AM 135 2.0 7.0 61 56 73.2 75.3 29.944 20.09 5.1 796 0.00 0.00 0.00 0.00
07/20/19 10:39:20 AM 151 1.0 7.0 61 58 73.2 75.3 29.943 20.09 5.1 798 0.00 0.00 0.00 0.00
07/20/19 10:40:33 AM 190 3.0 7.0 61 58 73.2 75.4 29.942 20.09 5.2 802 0.00 0.00 0.00 0.00
07/20/19 10:41:24 AM 238 3.0 7.0 61 57 73.2 75.5 29.942 20.09 5.2 809 0.00 0.00 0.00 0.00
07/20/19 10:42:34 AM 225 4.0 7.0 61 58 73.2 75.6 29.942 20.09 5.2 810 0.00 0.00 0.00 0.00
07/20/19 10:43:28 AM 266 4.0 7.0 61 57 73.2 75.6 29.942 20.09 5.3 810 0.00 0.00 0.00 0.00
07/20/19 10:44:19 AM 236 2.0 7.0 61 56 73.3 75.7 29.941 20.09 5.3 809 0.00 0.00 0.00 0.00
07/20/19 10:45:35 AM 221 3.0 7.0 61 56 73.3 75.7 29.940 20.09 5.3 807 0.00 0.00 0.00 0.00
07/20/19 10:46:23 AM 234 4.0 7.0 61 55 73.3 75.7 29.940 20.09 5.3 812 0.00 0.00 0.00 0.00
07/20/19 10:47:32 AM 236 3.0 7.0 61 56 73.3 75.8 29.940 20.09 5.4 814 0.00 0.00 0.00 0.00
07/20/19 10:48:23 AM 236 1.0 7.0 61 56 73.3 75.8 29.940 20.09 5.4 816 0.00 0.00 0.00 0.00
07/20/19 10:49:33 AM 236 2.0 7.0 61 54 73.3 75.8 29.940 20.09 5.5 821 0.00 0.00 0.00 0.00
07/20/19 10:50:28 AM 236 1.0 7.0 61 54 73.3 75.9 29.940 20.09 5.5 823 0.00 0.00 0.00 0.00
07/20/19 10:51:16 AM 236 2.0 7.0 61 54 73.3 76.0 29.939 20.09 5.6 828 0.00 0.00 0.00 0.00
07/20/19 10:52:25 AM 236 2.0 7.0 61 53 73.4 76.0 29.941 20.09 5.6 830 0.00 0.00 0.00 0.00
07/20/19 10:53:20 AM 236 1.0 7.0 61 53 73.4 76.1 29.943 20.09 5.6 828 0.00 0.00 0.00 0.00
07/20/19 10:54:32 AM 236 1.0 7.0 61 54 73.4 76.4 29.941 20.09 5.6 830 0.00 0.00 0.00 0.00
07/20/19 10:55:27 AM 237 2.0 7.0 61 54 73.4 76.6 29.941 20.09 5.6 830 0.00 0.00 0.00 0.00
07/20/19 10:56:18 AM 237 1.0 7.0 61 53 73.4 76.7 29.944 20.09 5.6 831 0.00 0.00 0.00 0.00
07/20/19 10:57:30 AM 237 0.0 7.0 61 54 73.4 77.1 29.940 20.09 5.7 826 0.00 0.00 0.00 0.00
07/20/19 10:58:19 AM 237 3.0 7.0 61 53 73.4 77.3 29.940 20.09 5.7 830 0.00 0.00 0.00 0.00
07/20/19 10:59:31 AM 219 5.0 7.0 61 53 73.5 77.5 29.939 20.09 5.7 826 0.00 0.00 0.00 0.00
07/20/19 11:00:22 AM 224 3.0 7.0 61 53 73.5 77.6 29.939 20.09 5.7 830 0.00 0.00 0.00 0.00
07/20/19 11:01:35 AM 210 3.0 7.0 61 50 73.5 77.7 29.938 20.09 5.8 833 0.00 0.00 0.00 0.00
07/20/19 11:02:27 AM 210 0.0 7.0 61 50 73.5 77.8 29.938 20.09 5.8 842 0.00 0.00 0.00 0.00
07/20/19 11:03:36 AM 212 2.0 7.0 61 50 73.5 77.9 29.938 20.09 5.8 842 0.00 0.00 0.00 0.00
07/20/19 11:04:28 AM 271 4.0 7.0 61 50 73.5 78.0 29.938 20.09 5.8 842 0.00 0.00 0.00 0.00
07/20/19 11:05:22 AM 235 3.0 7.0 61 51 73.5 78.0 29.939 20.09 5.9 842 0.00 0.00 0.00 0.00
07/20/19 11:06:34 AM 229 4.0 8.0 61 51 73.6 78.2 29.941 20.09 6.0 853 0.00 0.00 0.00 0.00
07/20/19 11:07:26 AM 195 4.0 8.0 61 49 73.6 78.3 29.941 20.09 6.0 853 0.00 0.00 0.00 0.00
07/20/19 11:08:20 AM 191 2.0 8.0 61 49 73.5 78.3 29.941 20.09 6.0 853 0.00 0.00 0.00 0.00
07/20/19 11:09:30 AM 301 3.0 8.0 61 49 73.6 78.3 29.939 20.09 5.9 851 0.00 0.00 0.00 0.00
07/20/19 11:10:21 AM 288 4.0 8.0 61 50 73.6 78.4 29.939 20.09 5.9 853 0.00 0.00 0.00 0.00
07/20/19 11:11:34 AM 295 4.0 8.0 61 47 73.6 78.4 29.939 20.09 6.0 854 0.00 0.00 0.00 0.00
07/20/19 11:12:25 AM 296 3.0 8.0 61 46 73.6 78.4 29.939 20.09 6.0 849 0.00 0.00 0.00 0.00
07/20/19 11:13:20 AM 302 4.0 8.0 61 45 73.6 78.2 29.941 20.09 6.0 847 0.00 0.00 0.00 0.00
07/20/19 11:14:29 AM 290 2.0 8.0 61 45 73.6 78.1 29.939 20.09 6.1 851 0.00 0.00 0.00 0.00
07/20/19 11:15:23 AM 295 2.0 8.0 61 44 73.6 78.1 29.939 20.09 6.1 858 0.00 0.00 0.00 0.00
07/20/19 11:16:36 AM 294 4.0 8.0 61 44 73.7 78.1 29.939 20.09 6.1 856 0.00 0.00 0.00 0.00
07/20/19 11:17:27 AM 299 2.0 8.0 61 44 73.7 78.0 29.939 20.09 6.1 856 0.00 0.00 0.00 0.00
07/20/19 11:18:19 AM 242 3.0 8.0 61 44 73.7 78.0 29.939 20.09 6.2 858 0.00 0.00 0.00 0.00
07/20/19 11:19:28 AM 181 7.0 8.0 61 48 73.7 78.2 29.938 20.09 6.2 856 0.00 0.00 0.00 0.00
07/20/19 11:20:23 AM 206 3.0 8.0 61 45 73.7 78.2 29.938 20.09 6.2 860 0.00 0.00 0.00 0.00
07/20/19 11:21:35 AM 167 5.0 8.0 61 45 73.7 78.3 29.939 20.09 6.3 882 0.00 0.00 0.00 0.00
07/20/19 11:22:27 AM 167 4.0 8.0 61 45 73.7 78.4 29.939 20.09 6.4 882 0.00 0.00 0.00 0.00
07/20/19 11:23:21 AM 167 1.0 8.0 61 45 73.7 78.4 29.939 20.09 6.4 882 0.00 0.00 0.00 0.00
07/20/19 11:24:34 AM 161 2.0 8.0 61 44 73.8 78.6 29.939 20.09 6.4 881 0.00 0.00 0.00 0.00
07/20/19 11:25:22 AM 161 2.0 8.0 61 44 73.8 78.7 29.939 20.09 6.4 879 0.00 0.00 0.00 0.00
07/20/19 11:26:35 AM 177 4.0 8.0 61 45 73.8 79.0 29.942 20.09 6.5 881 0.00 0.00 0.00 0.00
07/20/19 11:27:26 AM 242 4.0 8.0 61 45 73.8 79.1 29.942 20.09 6.5 882 0.00 0.00 0.00 0.00
07/20/19 11:28:20 AM 294 5.0 8.0 61 43 73.8 79.2 29.941 20.09 6.6 888 0.00 0.00 0.00 0.00
07/20/19 11:29:33 AM 283 3.0 8.0 61 38 73.8 79.2 29.941 20.09 6.6 891 0.00 0.00 0.00 0.00
07/20/19 11:30:21 AM 316 3.0 8.0 61 39 73.8 79.3 29.941 20.09 6.6 895 0.00 0.00 0.00 0.00
07/20/19 11:31:35 AM 315 3.0 8.0 61 38 73.8 79.3 29.942 20.09 6.7 896 0.00 0.00 0.00 0.00
07/20/19 11:32:26 AM 317 2.0 8.0 61 38 73.8 79.3 29.942 20.09 6.7 895 0.00 0.00 0.00 0.00
07/20/19 11:33:18 AM 313 4.0 8.0 61 38 73.8 79.3 29.940 20.09 6.7 895 0.00 0.00 0.00 0.00
07/20/19 11:34:33 AM 309 1.0 8.0 61 37 73.8 79.2 29.938 20.09 6.7 896 0.00 0.00 0.00 0.00
07/20/19 11:35:28 AM 309 1.0 8.0 61 40 73.8 79.3 29.938 20.09 6.7 898 0.00 0.00 0.00 0.00
07/20/19 11:36:31 AM 219 6.0 8.0 61 38 73.9 79.4 29.939 20.09 6.8 896 0.00 0.00 0.00 0.00
07/20/19 11:37:26 AM 187 5.0 8.0 61 37 73.9 79.6 29.939 20.09 6.8 896 0.00 0.00 0.00 0.00
07/20/19 11:38:17 AM 205 4.0 8.0 61 38 73.9 79.6 29.940 20.09 6.8 905 0.00 0.00 0.00 0.00
07/20/19 11:39:30 AM 244 9.0 9.0 61 40 73.9 79.9 29.943 20.09 6.8 907 0.00 0.00 0.00 0.00
07/20/19 11:40:24 AM 229 7.0 9.0 61 37 73.9 79.9 29.943 20.09 6.8 911 0.00 0.00 0.00 0.00
07/20/19 11:41:31 AM 260 3.0 9.0 61 38 73.9 80.0 29.942 20.09 6.9 914 0.00 0.00 0.00 0.00
07/20/19 11:42:25 AM 291 3.0 9.0 61 37 73.9 80.1 29.942 20.09 6.9 911 0.00 0.00 0.00 0.00
07/20/19 11:43:35 AM 275 2.0 9.0 61 36 73.9 80.2 29.940 20.09 6.9 911 0.00 0.00 0.00 0.00
07/20/19 11:44:29 AM 287 4.0 9.0 61 40 73.9 80.3 29.941 20.09 6.9 909 0.00 0.00 0.00 0.00
07/20/19 11:45:24 AM 300 4.0 9.0 61 37 73.9 80.3 29.941 20.09 6.9 911 0.00 0.00 0.00 0.00
07/20/19 11:46:30 AM 311 2.0 9.0 61 34 74.0 80.3 29.941 20.09 7.0 912 0.00 0.00 0.00 0.00
07/20/19 11:47:22 AM 311 0.0 9.0 61 34 74.0 80.2 29.941 20.09 7.0 914 0.00 0.00 0.00 0.00
07/20/19 11:48:38 AM 246 2.0 9.0 61 36 74.0 80.3 29.939 20.09 7.0 914 0.00 0.00 0.00 0.00
07/20/19 11:49:30 AM 220 7.0 10.0 61 39 74.0 80.4 29.941 20.09 7.0 912 0.00 0.00 0.00 0.00
07/20/19 11:50:21 AM 236 5.0 10.0 61 39 74.0 80.5 29.941 20.09 7.0 916 0.00 0.00 0.00 0.00
07/20/19 11:51:34 AM 235 4.0 10.0 61 38 74.0 80.7 29.940 20.09 7.1 918 0.00 0.00 0.00 0.00
07/20/19 11:52:23 AM 279 3.0 10.0 61 38 74.0 80.7 29.940 20.09 7.1 918 0.00 0.00 0.00 0.00
07/20/19 11:53:17 AM 229 4.0 10.0 61 38 74.0 80.7 29.939 20.09 7.1 919 0.00 0.00 0.00 0.00
07/20/19 11:54:27 AM 250 5.0 10.0 61 38 74.0 80.8 29.941 20.09 7.1 919 0.00 0.00 0.00 0.00
07/20/19 11:55:22 AM 217 5.0 10.0 61 38 74.0 80.8 29.941 20.09 7.1 923 0.00 0.00 0.00 0.00
07/20/19 11:56:31 AM 234 2.0 10.0 61 39 74.1 80.9 29.939 20.09 7.2 923 0.00 0.00 0.00 0.00
07/20/19 11:57:20 AM 232 3.0 10.0 61 38 74.1 81.0 29.939 20.09 7.2 925 0.00 0.00 0.00 0.00
07/20/19 11:58:33 AM 232 4.0 10.0 61 38 74.1 81.1 29.939 20.09 7.2 921 0.00 0.00 0.00 0.00
07/20/19 11:59:24 AM 254 3.0 10.0 61 41 74.1 81.2 29.939 20.09 7.2 925 0.00 0.00 0.00 0.00
07/20/19 12:00:37 PM 193 4.0 10.0 61 39 74.1 81.3 29.938 20.09 7.2 926 0.00 0.00 0.00 0.00
07/20/19 12:01:29 PM 170 4.0 10.0 61 39 74.2 81.3 29.938 20.09 7.2 926 0.00 0.00 0.00 0.00
07/20/19 12:02:23 PM 173 8.0 10.0 61 36 74.2 81.4 29.938 20.09 7.2 926 0.00 0.00 0.00 0.00
07/20/19 12:03:30 PM 192 5.0 10.0 61 35 74.2 81.4 29.937 20.09 7.2 928 0.00 0.00 0.00 0.00
07/20/19 12:04:22 PM 215 4.0 10.0 61 35 74.2 81.4 29.937 20.09 7.3 930 0.00 0.00 0.00 0.00
07/20/19 12:05:20 PM 74 1.0 10.0 61 36 74.2 81.5 29.936 20.09 7.3 932 0.00 0.00 0.00 0.00
07/20/19 12:06:29 PM 205 4.0 10.0 61 35 74.3 81.5 29.936 20.09 7.3 932 0.00 0.00 0.00 0.00
07/20/19 12:07:21 PM 209 6.0 10.0 61 34 74.3 81.5 29.936 20.09 7.3 937 0.00 0.00 0.00 0.00
07/20/19 12:08:30 PM 227 2.0 10.0 61 34 74.3 81.5 29.934 20.09 7.4 940 0.00 0.00 0.00 0.00
07/20/19 12:09:22 PM 173 2.0 10.0 61 34 74.3 81.5 29.934 20.09 7.4 940 0.00 0.00 0.00 0.00
07/20/19 12:10:35 PM 168 7.0 10.0 61 35 74.3 81.6 29.934 20.09 7.4 940 0.00 0.00 0.00 0.00
07/20/19 12:11:26 PM 171 4.0 10.0 61 34 74.3 81.6 29.934 20.09 7.4 940 0.00 0.00 0.00 0.00
07/20/19 12:12:21 PM 171 0.0 10.0 61 33 74.3 81.6 29.935 20.09 7.4 944 0.00 0.00 0.00 0.00
07/20/19 12:13:30 PM 134 3.0 10.0 61 35 74.4 81.7 29.933 20.09 7.4 944 0.00 0.00 0.00 0.00
07/20/19 12:14:22 PM 113 3.0 10.0 61 34 74.4 81.8 29.933 20.09 7.5 946 0.00 0.00 0.00 0.00
07/20/19 12:15:38 PM 184 4.0 10.0 61 33 74.4 81.8 29.933 20.09 7.5 944 0.00 0.00 0.00 0.00
07/20/19 12:16:27 PM 151 5.0 10.0 61 33 74.5 82.0 29.933 20.09 7.5 946 0.00 0.00 0.00 0.00
07/20/19 12:17:19 PM 135 4.0 10.0 61 33 74.5 82.1 29.931 20.09 7.5 949 0.00 0.00 0.00 0.00
07/20/19 12:18:32 PM 175 3.0 10.0 61 32 74.4 82.1 29.931 20.09 7.5 949 0.00 0.00 0.00 0.00
07/20/19 12:19:20 PM 144 5.0 10.0 61 32 74.4 82.1 29.931 20.09 7.5 947 0.00 0.00 0.00 0.00
07/20/19 12:20:33 PM 130 7.0 10.0 61 33 74.5 82.1 29.928 20.09 7.5 949 0.00 0.00 0.00 0.00
07/20/19 12:21:25 PM 128 2.0 10.0 61 32 74.5 82.1 29.928 20.09 7.5 949 0.00 0.00 0.00 0.00
07/20/19 12:22:16 PM 115 7.0 10.0 61 32 74.5 82.1 29.929 20.09 7.5 951 0.00 0.00 0.00 0.00
07/20/19 12:23:32 PM 158 3.0 10.0 61 31 74.5 82.1 29.929 20.09 7.5 951 0.00 0.00 0.00 0.00
07/20/19 12:24:18 PM 164 4.0 10.0 61 32 74.5 82.0 29.929 20.09 7.5 951 0.00 0.00 0.00 0.00
07/20/19 12:25:34 PM 148 3.0 10.0 61 34 74.5 82.0 29.927 20.09 7.5 951 0.00 0.00 0.00 0.00
07/20/19 12:26:29 PM 163 5.0 10.0 61 33 74.5 82.0 29.927 20.09 7.6 951 0.00 0.00 0.00 0.00
07/20/19 12:27:18 PM 163 5.0 10.0 61 33 74.5 82.1 29.927 20.09 7.6 953 0.00 0.00 0.00 0.00
07/20/19 12:28:31 PM 152 1.0 10.0 61 33 74.5 82.0 29.926 20.09 7.6 951 0.00 0.00 0.00 0.00
07/20/19 12:29:25 PM 72 4.0 10.0 61 33 74.5 82.1 29.926 20.09 7.6 953 0.00 0.00 0.00 0.00
07/20/19 12:30:32 PM 96 0.0 10.0 61 33 74.6 82.1 29.925 20.09 7.6 954 0.00 0.00 0.00 0.00
07/20/19 12:31:24 PM 95 1.0 10.0 61 33 74.6 82.1 29.925 20.09 7.6 954 0.00 0.00 0.00 0.00
07/20/19 12:32:15 PM 95 1.0 10.0 61 33 74.6 82.1 29.926 20.09 7.6 954 0.00 0.00 0.00 0.00
07/20/19 12:33:31 PM 342 2.0 10.0 61 33 74.6 82.2 29.923 20.09 7.6 956 0.00 0.00 0.00 0.00
07/20/19 12:34:23 PM 342 0.0 10.0 61 33 74.6 82.3 29.923 20.09 7.6 954 0.00 0.00 0.00 0.00
07/20/19 12:35:33 PM 342 0.0 10.0 61 34 74.6 82.4 29.925 20.09 7.6 956 0.00 0.00 0.00 0.00
07/20/19 12:36:25 PM 341 2.0 10.0 61 35 74.6 82.6 29.925 20.09 7.6 958 0.00 0.00 0.00 0.00
07/20/19 12:37:16 PM 341 0.0 10.0 61 35 74.6 82.8 29.923 20.09 7.7 953 0.00 0.00 0.00 0.00
07/20/19 12:38:26 PM 254 8.0 10.0 61 36 74.6 83.1 29.922 20.09 7.7 956 0.00 0.00 0.00 0.00
07/20/19 12:39:21 PM 251 3.0 10.0 61 33 74.6 83.2 29.923 20.09 7.7 956 0.00 0.00 0.00 0.00
07/20/19 12:40:31 PM 279 6.0 10.0 61 33 74.6 83.3 29.924 20.09 7.7 958 0.00 0.00 0.00 0.00
07/20/19 12:41:22 PM 301 7.0 10.0 61 33 74.6 83.4 29.924 20.09 7.7 960 0.00 0.00 0.00 0.00
07/20/19 12:42:35 PM 232 3.0 10.0 61 32 74.6 83.3 29.920 20.09 7.7 960 0.00 0.00 0.00 0.00
07/20/19 12:43:27 PM 234 5.0 10.0 61 34 74.6 83.4 29.920 20.09 7.7 960 0.00 0.00 0.00 0.00
07/20/19 12:44:18 PM 231 2.0 10.0 61 34 74.6 83.4 29.920 20.09 7.7 962 0.00 0.00 0.00 0.00
07/20/19 12:45:34 PM 209 4.0 10.0 61 33 74.7 83.5 29.921 20.09 7.8 963 0.00 0.00 0.00 0.00
07/20/19 12:46:20 PM 175 2.0 10.0 61 33 74.7 83.5 29.921 20.09 7.8 960 0.00 0.00 0.00 0.00
07/20/19 12:47:33 PM 175 1.0 10.0 61 36 74.7 83.6 29.922 20.09 7.8 962 0.00 0.00 0.00 0.00
07/20/19 12:48:28 PM 305 5.0 10.0 61 37 74.7 83.7 29.922 20.09 7.7 962 0.00 0.00 0.00 0.00
07/20/19 12:49:19 PM 252 4.0 10.0 61 37 74.7 83.8 29.920 20.09 7.8 963 0.00 0.00 0.00 0.00
07/20/19 12:50:32 PM 224 3.0 10.0 61 32 74.7 83.8 29.919 20.09 7.8 962 0.00 0.00 0.00 0.00
07/20/19 12:51:18 PM 235 5.0 10.0 61 33 74.7 83.9 29.919 20.09 7.8 962 0.00 0.00 0.00 0.00
07/20/19 12:52:34 PM 240 3.0 10.0 61 31 74.8 84.0 29.918 20.09 7.8 963 0.00 0.00 0.00 0.00
07/20/19 12:53:25 PM 229 5.0 10.0 61 31 74.8 84.0 29.918 20.09 7.8 963 0.00 0.00 0.00 0.00
07/20/19 12:54:17 PM 226 7.0 10.0 61 32 74.8 84.0 29.917 20.09 7.8 963 0.00 0.00 0.00 0.00
07/20/19 12:55:33 PM 234 5.0 10.0 61 31 74.8 84.0 29.916 20.09 7.8 963 0.00 0.00 0.00 0.00
07/20/19 12:56:24 PM 244 4.0 10.0 61 32 74.8 84.0 29.916 20.09 7.8 963 0.00 0.00 0.00 0.00
07/20/19 12:57:34 PM 253 3.0 10.0 61 30 74.9 84.0 29.916 20.09 7.8 963 0.00 0.00 0.00 0.00
07/20/19 12:58:26 PM 265 2.0 10.0 61 30 74.9 84.0 29.916 20.09 7.8 965 0.00 0.00 0.00 0.00
07/20/19 12:59:21 PM 265 2.0 10.0 61 31 74.9 84.0 29.915 20.09 7.8 967 0.00 0.00 0.00 0.00
07/20/19 1:00:33 PM 224 5.0 10.0 61 30 74.9 84.0 29.916 20.09 7.8 965 0.00 0.00 0.00 0.00
07/20/19 1:01:25 PM 228 3.0 10.0 61 29 74.9 84.1 29.916 20.09 7.8 965 0.00 0.00 0.00 0.00
07/20/19 1:02:35 PM 215 4.0 10.0 61 30 74.9 84.2 29.915 20.09 7.8 965 0.00 0.00 0.00 0.00
07/20/19 1:03:27 PM 196 2.0 10.0 61 29 74.9 84.2 29.915 20.09 7.8 965 0.00 0.00 0.00 0.00
07/20/19 1:04:19 PM 179 2.0 10.0 61 29 75.0 84.3 29.916 20.09 7.8 965 0.00 0.00 0.00 0.00
07/20/19 1:05:34 PM 188 3.0 10.0 61 30 75.0 84.3 29.916 20.09 7.8 967 0.00 0.00 0.00 0.00
07/20/19 1:06:26 PM 188 2.0 10.0 61 31 75.0 84.4 29.916 20.09 7.8 965 0.00 0.00 0.00 0.00
07/20/19 1:07:18 PM 189 1.0 10.0 61 31 75.0 84.5 29.915 20.09 7.8 965 0.00 0.00 0.00 0.00
07/20/19 1:08:28 PM 241 2.0 10.0 61 31 75.0 84.7 29.917 20.09 7.8 965 0.00 0.00 0.00 0.00
07/20/19 1:09:20 PM 222 4.0 10.0 61 29 75.0 84.7 29.913 20.09 7.8 965 0.00 0.00 0.00 0.00
07/20/19 1:10:32 PM 250 3.0 10.0 61 29 75.1 84.7 29.915 20.09 7.8 967 0.00 0.00 0.00 0.00
07/20/19 1:11:24 PM 250 3.0 10.0 61 29 75.1 84.8 29.915 20.09 7.8 967 0.00 0.00 0.00 0.00
07/20/19 1:12:37 PM 250 0.0 10.0 61 30 75.1 84.8 29.913 20.09 7.8 962 0.00 0.00 0.00 0.00
07/20/19 1:13:26 PM 250 0.0 10.0 61 29 75.1 84.9 29.913 20.09 7.8 963 0.00 0.00 0.00 0.00
07/20/19 1:14:18 PM 277 3.0 10.0 61 30 75.1 85.0 29.916 20.09 7.8 962 0.00 0.00 0.00 0.00
07/20/19 1:15:31 PM 286 2.0 10.0 61 28 75.1 85.0 29.915 20.09 7.8 963 0.00 0.00 0.00 0.00
07/20/19 1:16:22 PM 312 3.0 10.0 61 28 75.1 85.1 29.915 20.09 7.8 962 0.00 0.00 0.00 0.00
07/20/19 1:17:35 PM 319 3.0 10.0 61 28 75.1 85.1 29.913 20.09 7.8 962 0.00 0.00 0.00 0.00
07/20/19 1:18:24 PM 319 3.0 10.0 61 28 75.1 85.0 29.913 20.09 7.7 958 0.00 0.00 0.00 0.00
07/20/19 1:19:18 PM 355 3.0 10.0 61 28 75.1 85.0 29.913 20.09 7.7 958 0.00 0.00 0.00 0.00
07/20/19 1:20:31 PM 15 3.0 10.0 61 28 75.2 85.0 29.912 20.09 7.7 956 0.00 0.00 0.00 0.00
07/20/19 1:21:23 PM 16 2.0 10.0 61 28 75.2 85.1 29.912 20.09 7.7 954 0.00 0.00 0.00 0.00
07/20/19 1:22:36 PM 15 2.0 10.0 61 28 75.2 85.2 29.912 20.09 7.7 956 0.00 0.00 0.00 0.00
07/20/19 1:23:27 PM 304 3.0 10.0 61 29 75.2 85.3 29.912 20.09 7.7 956 0.00 0.00 0.00 0.00
07/20/19 1:24:16 PM 248 5.0 10.0 61 30 75.2 85.4 29.910 20.09 7.7 958 0.00 0.00 0.00 0.00
07/20/19 1:25:32 PM 225 7.0 10.0 61 29 75.2 85.5 29.911 20.09 7.7 956 0.00 0.00 0.00 0.00
07/20/19 1:26:23 PM 197 5.0 10.0 61 29 75.2 85.6 29.911 20.09 7.7 956 0.00 0.00 0.00 0.00
07/20/19 1:27:36 PM 215 4.0 10.0 61 29 75.2 85.6 29.914 20.09 7.7 956 0.00 0.00 0.00 0.00
07/20/19 1:28:31 PM 204 4.0 10.0 61 29 75.2 85.7 29.910 20.09 7.6 956 0.00 0.00 0.00 0.00
07/20/19 1:29:16 PM 225 5.0 10.0 61 29 75.2 85.7 29.910 20.09 7.7 954 0.00 0.00 0.00 0.00
07/20/19 1:30:29 PM 207 5.0 10.0 61 28 75.3 85.8 29.911 20.09 7.7 954 0.00 0.00 0.00 0.00
07/20/19 1:31:21 PM 207 1.0 10.0 61 30 75.3 85.9 29.911 20.09 7.6 954 0.00 0.00 0.00 0.00
07/20/19 1:32:34 PM 233 4.0 10.0 61 29 75.3 85.9 29.911 20.09 7.6 954 0.00 0.00 0.00 0.00
07/20/19 1:33:29 PM 232 5.0 10.0 61 29 75.3 86.0 29.911 20.09 7.6 954 0.00 0.00 0.00 0.00
07/20/19 1:34:20 PM 219 6.0 10.0 61 30 75.3 86.1 29.912 20.09 7.6 954 0.00 0.00 0.00 0.00
07/20/19 1:35:30 PM 227 5.0 10.0 61 30 75.3 86.1 29.910 20.09 7.6 953 0.00 0.00 0.00 0.00
07/20/19 1:36:21 PM 275 6.0 10.0 61 32 75.3 86.2 29.910 20.09 7.6 954 0.00 0.00 0.00 0.00
07/20/19 1:37:34 PM 247 4.0 10.0 61 32 75.3 86.3 29.909 20.09 7.6 953 0.00 0.00 0.00 0.00
07/20/19 1:38:26 PM 243 4.0 10.0 61 29 75.3 86.3 29.909 20.09 7.6 949 0.00 0.00 0.00 0.00
07/20/19 1:39:20 PM 241 4.0 10.0 61 28 75.3 86.4 29.910 20.09 7.6 949 0.00 0.00 0.00 0.00
07/20/19 1:40:27 PM 225 3.0 10.0 61 27 75.3 86.3 29.909 20.09 7.6 951 0.00 0.00 0.00 0.00
07/20/19 1:41:19 PM 225 1.0 10.0 61 28 75.3 86.3 29.909 20.09 7.6 949 0.00 0.00 0.00 0.00
07/20/19 1:42:32 PM 225 1.0 10.0 61 28 75.3 86.4 29.908 20.09 7.5 947 0.00 0.00 0.00 0.00
07/20/19 1:43:27 PM 225 0.0 10.0 61 30 75.3 86.4 29.908 20.09 7.5 947 0.00 0.00 0.00 0.00
07/20/19 1:44:18 PM 225 1.0 10.0 61 28 75.3 86.6 29.910 20.09 7.5 946 0.00 0.00 0.00 0.00
07/20/19 1:45:28 PM 220 5.0 10.0 61 29 75.3 86.8 29.908 20.09 7.5 946 0.00 0.00 0.00 0.00
07/20/19 1:46:20 PM 238 2.0 10.0 61 27 75.4 86.8 29.910 20.09 7.5 947 0.00 0.00 0.00 0.00
07/20/19 1:47:33 PM 283 3.0 10.0 61 29 75.4 87.0 29.910 20.09 7.5 947 0.00 0.00 0.00 0.00
07/20/19 1:48:24 PM 269 3.0 10.0 61 28 75.4 87.0 29.910 20.09 7.5 946 0.00 0.00 0.00 0.00
07/20/19 1:49:19 PM 226 5.0 10.0 61 28 75.4 87.0 29.908 20.09 7.5 946 0.00 0.00 0.00 0.00
07/20/19 1:50:32 PM 252 3.0 10.0 61 27 75.4 87.1 29.908 20.09 7.5 946 0.00 0.00 0.00 0.00
07/20/19 1:51:18 PM 227 3.0 10.0 61 27 75.4 87.1 29.908 20.09 7.4 944 0.00 0.00 0.00 0.00
07/20/19 1:52:30 PM 232 1.0 10.0 61 28 75.4 87.1 29.907 20.09 7.4 942 0.00 0.00 0.00 0.00
07/20/19 1:53:25 PM 204 8.0 10.0 61 26 75.4 87.1 29.907 20.09 7.4 942 0.00 0.00 0.00 0.00
07/20/19 1:54:35 PM 242 2.0 10.0 61 26 75.4 87.1 29.905 20.09 7.4 942 0.00 0.00 0.00 0.00
07/20/19 1:55:30 PM 243 2.0 10.0 61 26 75.4 87.1 29.905 20.09 7.4 942 0.00 0.00 0.00 0.00
07/20/19 1:56:18 PM 245 2.0 10.0 61 26 75.5 87.1 29.907 20.09 7.4 942 0.00 0.00 0.00 0.00
07/20/19 1:57:31 PM 223 5.0 10.0 61 27 75.5 87.1 29.905 20.09 7.4 939 0.00 0.00 0.00 0.00
07/20/19 1:58:23 PM 199 6.0 10.0 61 27 75.5 87.1 29.905 20.09 7.4 937 0.00 0.00 0.00 0.00
07/20/19 1:59:18 PM 242 8.0 11.0 61 26 75.5 87.1 29.905 20.09 7.3 939 0.00 0.00 0.00 0.00
07/20/19 2:00:31 PM 215 4.0 11.0 61 25 75.5 87.1 29.904 20.09 7.3 940 0.00 0.00 0.00 0.00
07/20/19 2:01:22 PM 245 3.0 11.0 61 27 75.5 87.2 29.904 20.09 7.3 939 0.00 0.00 0.00 0.00
07/20/19 2:02:32 PM 217 9.0 11.0 61 28 75.6 87.2 29.904 20.09 7.3 939 0.00 0.00 0.00 0.00
07/20/19 2:03:27 PM 225 8.0 11.0 61 26 75.6 87.3 29.904 20.09 7.3 937 0.00 0.00 0.00 0.00
07/20/19 2:04:19 PM 211 8.0 11.0 61 26 75.5 87.3 29.902 20.09 7.3 935 0.00 0.00 0.00 0.00
07/20/19 2:05:34 PM 218 6.0 11.0 61 25 75.7 87.2 29.904 20.09 7.2 935 0.00 0.00 0.00 0.00
07/20/19 2:06:26 PM 189 7.0 11.0 61 24 75.7 87.2 29.904 20.09 7.2 932 0.00 0.00 0.00 0.00
07/20/19 2:07:36 PM 196 4.0 11.0 61 24 75.6 87.2 29.903 20.09 7.2 926 0.00 0.00 0.00 0.00
07/20/19 2:08:28 PM 198 5.0 11.0 61 25 75.6 87.2 29.903 20.09 7.2 926 0.00 0.00 0.00 0.00
07/20/19 2:09:22 PM 204 4.0 11.0 61 23 75.6 87.2 29.902 20.09 7.1 926 0.00 0.00 0.00 0.00
07/20/19 2:10:35 PM 204 4.0 11.0 61 23 75.6 87.2 29.903 20.09 7.1 926 0.00 0.00 0.00 0.00
07/20/19 2:11:27 PM 204 4.0 11.0 61 23 75.7 87.2 29.902 20.09 7.1 926 0.00 0.00 0.00 0.00
07/20/19 2:12:21 PM 204 4.0 11.0 61 23 75.7 87.2 29.902 20.09 7.1 926 0.00 0.00 0.00 0.00
07/20/19 2:13:28 PM 204 4.0 11.0 61 23 75.7 87.2 29.902 20.09 7.1 926 0.00 0.00 0.00 0.00
07/20/19 2:15:48 PM 212 4.0 11.0 61 24 75.9 87.4 29.902 20.09 7.0 919 0.00 0.00 0.00 0.00
07/20/19 2:16:19 PM 222 5.0 11.0 61 24 75.9 87.4 29.902 20.09 6.9 918 0.00 0.00 0.00 0.00
07/20/19 2:17:32 PM 254 3.0 11.0 61 24 75.8 87.5 29.900 20.09 6.9 918 0.00 0.00 0.00 0.00
07/20/19 2:18:26 PM 251 2.0 11.0 61 23 75.8 87.5 29.900 20.09 6.9 918 0.00 0.00 0.00 0.00
07/20/19 2:19:33 PM 188 8.0 11.0 61 23 75.8 87.6 29.900 20.09 6.9 916 0.00 0.00 0.00 0.00
07/20/19 2:20:28 PM 287 7.0 11.0 61 25 75.8 87.7 29.900 20.09 6.9 916 0.00 0.00 0.00 0.00
07/20/19 2:21:17 PM 232 7.0 11.0 61 26 75.8 87.8 29.902 20.09 6.9 916 0.00 0.00 0.00 0.00
07/20/19 2:22:30 PM 240 6.0 11.0 61 23 75.8 87.9 29.899 20.09 6.9 914 0.00 0.00 0.00 0.00
07/20/19 2:23:22 PM 257 3.0 11.0 61 23 75.8 87.9 29.899 20.09 6.9 914 0.00 0.00 0.00 0.00
07/20/19 2:24:32 PM 257 2.0 11.0 61 24 75.8 87.9 29.899 20.09 6.9 912 0.00 0.00 0.00 0.00
07/20/19 2:25:26 PM 209 7.0 11.0 61 26 75.8 88.0 29.899 20.09 6.8 911 0.00 0.00 0.00 0.00
07/20/19 2:26:18 PM 211 5.0 11.0 61 23 75.8 88.0 29.898 20.09 6.8 909 0.00 0.00 0.00 0.00
07/20/19 2:27:31 PM 199 5.0 11.0 61 25 75.8 88.1 29.896 20.09 6.7 905 0.00 0.00 0.00 0.00
07/20/19 2:28:26 PM 223 5.0 11.0 61 23 75.8 88.1 29.896 20.09 6.6 900 0.00 0.00 0.00 0.00
07/20/19 2:29:17 PM 200 3.0 11.0 61 26 75.8 88.1 29.900 20.09 6.5 893 0.00 0.00 0.00 0.00
07/20/19 2:30:24 PM 219 2.0 11.0 61 26 75.7 88.2 29.899 20.09 6.5 893 0.00 0.00 0.00 0.00
07/20/19 2:31:19 PM 233 1.0 11.0 61 26 75.8 88.2 29.899 20.09 6.5 891 0.00 0.00 0.00 0.00
07/20/19 2:32:32 PM 259 2.0 11.0 61 24 75.8 88.2 29.898 20.09 6.5 893 0.00 0.00 0.00 0.00
07/20/19 2:33:24 PM 259 1.0 11.0 61 25 75.8 88.3 29.898 20.09 6.5 891 0.00 0.00 0.00 0.00
07/20/19 2:34:18 PM 298 3.0 11.0 61 24 75.8 88.3 29.896 20.09 6.5 889 0.00 0.00 0.00 0.00
07/20/19 2:35:28 PM 298 3.0 11.0 61 23 75.7 88.4 29.899 20.09 6.5 888 0.00 0.00 0.00 0.00
07/20/19 2:36:20 PM 298 1.0 11.0 61 23 75.7 88.4 29.897 20.09 6.5 888 0.00 0.00 0.00 0.00
07/20/19 2:37:33 PM 332 1.0 11.0 61 24 75.8 88.5 29.895 20.09 6.4 886 0.00 0.00 0.00 0.00
07/20/19 2:38:28 PM 334 1.0 11.0 61 23 75.8 88.5 29.895 20.09 6.5 886 0.00 0.00 0.00 0.00
07/20/19 2:39:19 PM 255 7.0 11.0 61 25 75.8 88.6 29.898 20.09 6.4 886 0.00 0.00 0.00 0.00
07/20/19 2:40:32 PM 300 4.0 11.0 61 23 75.8 88.7 29.895 20.09 6.3 881 0.00 0.00 0.00 0.00
07/20/19 2:41:18 PM 292 2.0 11.0 61 24 75.8 88.7 29.895 20.09 6.3 881 0.00 0.00 0.00 0.00
07/20/19 2:42:31 PM 277 2.0 11.0 61 25 75.8 88.8 29.894 20.09 6.3 875 0.00 0.00 0.00 0.00
07/20/19 2:43:23 PM 349 1.0 11.0 61 23 75.8 88.8 29.894 20.09 6.3 875 0.00 0.00 0.00 0.00
07/20/19 2:44:36 PM 226 3.0 11.0 61 25 75.8 88.8 29.893 20.09 6.3 875 0.00 0.00 0.00 0.00
07/20/19 2:45:31 PM 246 4.0 11.0 61 24 75.8 88.9 29.892 20.09 6.2 874 0.00 0.00 0.00 0.00
07/20/19 2:46:16 PM 242 5.0 11.0 61 24 75.8 89.0 29.892 20.09 6.2 870 0.00 0.00 0.00 0.00
07/20/19 2:47:32 PM 246 2.0 11.0 61 23 75.9 88.9 29.890 20.09 6.1 868 0.00 0.00 0.00 0.00
07/20/19 2:48:24 PM 297 3.0 11.0 61 23 75.9 89.0 29.890 20.09 6.1 867 0.00 0.00 0.00 0.00
07/20/19 2:49:38 PM 242 4.0 11.0 61 23 75.8 89.0 29.890 20.09 6.1 867 0.00 0.00 0.00 0.00
07/20/19 2:50:30 PM 232 4.0 11.0 61 24 75.9 89.0 29.891 20.09 6.1 865 0.00 0.00 0.00 0.00
07/20/19 2:51:22 PM 251 4.0 11.0 61 24 75.9 89.0 29.891 20.09 6.1 865 0.00 0.00 0.00 0.00
07/20/19 2:52:32 PM 246 3.0 11.0 61 26 75.9 89.1 29.887 20.09 6.1 858 0.00 0.00 0.00 0.00
07/20/19 2:53:24 PM 244 2.0 11.0 61 25 75.9 89.2 29.887 20.09 6.0 858 0.00 0.00 0.00 0.00
07/20/19 2:54:37 PM 185 9.0 11.0 61 24 75.9 89.2 29.888 20.09 5.9 856 0.00 0.00 0.00 0.00
07/20/19 2:55:32 PM 167 1.0 11.0 61 22 75.9 89.3 29.887 20.09 5.9 853 0.00 0.00 0.00 0.00
07/20/19 2:56:21 PM 163 2.0 11.0 61 22 75.9 89.2 29.887 20.09 5.9 851 0.00 0.00 0.00 0.00
07/20/19 2:57:31 PM 182 1.0 11.0 61 24 75.9 89.2 29.887 20.09 5.9 853 0.00 0.00 0.00 0.00
07/20/19 2:58:23 PM 254 5.0 11.0 61 23 75.9 89.3 29.887 20.09 5.8 849 0.00 0.00 0.00 0.00
07/20/19 2:59:36 PM 225 6.0 11.0 61 22 75.9 89.3 29.886 20.09 5.8 849 0.00 0.00 0.00 0.00
07/20/19 3:00:28 PM 219 10.0 11.0 61 22 76.0 89.3 29.887 20.09 5.8 847 0.00 0.00 0.00 0.00
07/20/19 3:01:20 PM 225 8.0 11.0 61 23 76.0 89.3 29.887 20.09 5.8 846 0.00 0.00 0.00 0.00
07/20/19 3:02:31 PM 237 3.0 11.0 61 23 76.0 89.3 29.887 20.09 5.8 846 0.00 0.00 0.00 0.00
07/20/19 3:03:25 PM 248 8.0 11.0 61 24 76.0 89.3 29.887 20.09 5.8 844 0.00 0.00 0.00 0.00
07/20/19 3:04:18 PM 275 6.0 11.0 61 24 76.0 89.3 29.885 20.09 5.7 844 0.00 0.00 0.00 0.00
07/20/19 3:05:31 PM 213 7.0 11.0 61 22 76.0 89.3 29.885 20.09 5.7 840 0.00 0.00 0.00 0.00
07/20/19 3:06:23 PM 244 9.0 11.0 61 22 76.0 89.2 29.885 20.09 5.7 838 0.00 0.00 0.00 0.00
07/20/19 3:07:36 PM 217 5.0 11.0 61 22 76.1 89.2 29.882 20.09 5.7 837 0.00 0.00 0.00 0.00
07/20/19 3:08:22 PM 246 7.0 11.0 61 23 76.1 89.2 29.882 20.09 5.7 837 0.00 0.00 0.00 0.00
07/20/19 3:09:35 PM 266 4.0 11.0 61 22 76.0 89.2 29.881 20.09 5.6 831 0.00 0.00 0.00 0.00
07/20/19 3:10:27 PM 232 4.0 11.0 61 22 76.0 89.2 29.881 20.09 5.6 830 0.00 0.00 0.00 0.00
07/20/19 3:11:19 PM 234 3.0 11.0 61 22 76.0 89.2 29.880 20.09 5.6 826 0.00 0.00 0.00 0.00
07/20/19 3:12:36 PM 200 9.0 11.0 61 22 76.0 89.2 29.881 20.09 5.5 821 0.00 0.00 0.00 0.00
07/20/19 3:13:22 PM 212 9.0 11.0 61 21 76.0 89.2 29.881 20.09 5.4 821 0.00 0.00 0.00 0.00
07/20/19 3:14:35 PM 206 5.0 11.0 61 20 76.0 89.2 29.882 20.09 5.4 817 0.00 0.00 0.00 0.00
07/20/19 3:15:30 PM 201 4.0 11.0 61 21 76.0 89.2 29.880 20.09 5.4 816 0.00 0.00 0.00 0.00
07/20/19 3:16:22 PM 201 4.0 11.0 61 21 76.0 89.2 29.880 20.09 5.4 816 0.00 0.00 0.00 0.00
07/20/19 3:17:36 PM 201 4.0 11.0 61 21 76.1 89.2 29.880 20.09 5.4 816 0.00 0.00 0.00 0.00
07/20/19 3:18:28 PM 201 4.0 11.0 61 21 76.1 89.2 29.880 20.09 5.4 816 0.00 0.00 0.00 0.00
07/20/19 3:19:35 PM 201 4.0 11.0 61 21 76.1 89.2 29.878 20.09 5.4 816 0.00 0.00 0.00 0.00
07/20/19 3:21:52 PM 201 4.0 11.0 61 21 76.2 89.2 29.879 20.09 5.4 816 0.00 0.00 0.00 0.00
07/20/19 3:22:26 PM 224 1.0 11.0 61 20 76.2 89.4 29.879 20.09 5.4 816 0.00 0.00 0.00 0.00
07/20/19 3:23:21 PM 259 8.0 11.0 61 22 76.3 89.5 29.879 20.09 5.2 802 0.00 0.00 0.00 0.00
07/20/19 3:24:34 PM 215 2.0 11.0 61 21 76.2 89.6 29.881 20.09 5.1 798 0.00 0.00 0.00 0.00
07/20/19 3:25:23 PM 238 3.0 11.0 61 23 76.2 89.7 29.881 20.09 5.1 796 0.00 0.00 0.00 0.00
07/20/19 3:26:36 PM 267 4.0 11.0 61 23 76.2 89.7 29.878 20.09 5.0 793 0.00 0.00 0.00 0.00
07/20/19 3:27:28 PM 204 3.0 11.0 61 23 76.2 89.7 29.878 20.09 5.0 793 0.00 0.00 0.00 0.00
07/20/19 3:28:21 PM 236 2.0 11.0 61 22 76.2 89.8 29.879 20.09 5.0 788 0.00 0.00 0.00 0.00
07/20/19 3:29:34 PM 282 2.0 11.0 61 22 76.2 89.8 29.878 20.09 4.9 782 0.00 0.00 0.00 0.00
07/20/19 3:30:29 PM 281 3.0 11.0 61 22 76.1 89.8 29.877 20.09 4.9 782 0.00 0.00 0.00 0.00
07/20/19 3:31:18 PM 279 2.0 11.0 61 22 76.1 89.9 29.877 20.09 4.9 780 0.00 0.00 0.00 0.00
07/20/19 3:32:29 PM 279 0.0 11.0 61 21 76.2 89.9 29.877 20.09 4.9 775 0.00 0.00 0.00 0.00
07/20/19 3:33:21 PM 279 0.0 11.0 61 21 76.2 89.9 29.877 20.09 4.8 773 0.00 0.00 0.00 0.00
07/20/19 3:34:34 PM 36 1.0 11.0 61 24 76.2 90.0 29.876 20.09 4.8 772 0.00 0.00 0.00 0.00
07/20/19 3:35:27 PM 36 1.0 11.0 61 21 76.2 90.1 29.876 20.09 4.8 770 0.00 0.00 0.00 0.00
07/20/19 3:36:37 PM 236 3.0 11.0 61 22 76.2 90.2 29.875 20.09 4.7 768 0.00 0.00 0.00 0.00
07/20/19 3:37:29 PM 231 4.0 11.0 61 25 76.2 90.3 29.876 20.09 4.7 768 0.00 0.00 0.00 0.00
07/20/19 3:38:21 PM 197 8.0 11.0 61 23 76.2 90.4 29.876 20.09 4.7 765 0.00 0.00 0.00 0.00
07/20/19 3:39:35 PM 193 6.0 11.0 61 23 76.2 90.4 29.874 20.09 4.7 765 0.00 0.00 0.00 0.00
07/20/19 3:40:27 PM 184 4.0 11.0 61 22 76.2 90.4 29.874 20.09 4.7 761 0.00 0.00 0.00 0.00
07/20/19 3:41:19 PM 213 6.0 11.0 61 23 76.2 90.3 29.873 20.09 4.6 758 0.00 0.00 0.00 0.00
07/20/19 3:42:27 PM 221 1.0 11.0 61 22 76.2 90.2 29.874 20.09 4.5 754 0.00 0.00 0.00 0.00
07/20/19 3:43:22 PM 188 3.0 11.0 61 22 76.2 90.2 29.874 20.09 4.5 752 0.00 0.00 0.00 0.00
07/20/19 3:44:33 PM 211 6.0 11.0 61 23 76.2 90.2 29.873 20.09 4.5 752 0.00 0.00 0.00 0.00
07/20/19 3:45:28 PM 244 7.0 11.0 61 24 76.2 90.2 29.873 20.09 4.4 745 0.00 0.00 0.00 0.00
07/20/19 3:46:17 PM 190 6.0 11.0 61 22 76.2 90.2 29.874 20.09 4.4 742 0.00 0.00 0.00 0.00
07/20/19 3:47:28 PM 241 8.0 11.0 61 24 76.3 90.2 29.874 20.09 4.4 740 0.00 0.00 0.00 0.00
07/20/19 3:48:21 PM 240 9.0 11.0 61 24 76.3 90.2 29.873 20.09 4.3 737 0.00 0.00 0.00 0.00
07/20/19 3:49:34 PM 252 3.0 11.0 61 23 76.2 90.1 29.873 20.09 4.3 735 0.00 0.00 0.00 0.00
07/20/19 3:50:23 PM 246 3.0 11.0 61 23 76.2 90.1 29.873 20.09 4.3 731 0.00 0.00 0.00 0.00
07/20/19 3:51:19 PM 247 3.0 11.0 61 25 76.2 90.1 29.872 20.09 4.2 728 0.00 0.00 0.00 0.00
07/20/19 3:52:26 PM 250 4.0 11.0 61 26 76.3 90.0 29.874 20.09 4.2 726 0.00 0.00 0.00 0.00
07/20/19 3:53:18 PM 250 4.0 11.0 61 23 76.3 90.0 29.875 20.09 4.2 722 0.00 0.00 0.00 0.00
07/20/19 3:54:35 PM 249 1.0 11.0 61 23 76.3 90.1 29.872 20.09 4.1 719 0.00 0.00 0.00 0.00
07/20/19 3:55:27 PM 242 2.0 11.0 61 23 76.3 90.1 29.872 20.09 4.1 714 0.00 0.00 0.00 0.00
07/20/19 3:56:19 PM 233 2.0 11.0 61 24 76.4 90.1 29.871 20.09 4.1 712 0.00 0.00 0.00 0.00
07/20/19 3:57:33 PM 234 3.0 11.0 61 23 76.4 90.1 29.871 20.09 4.0 710 0.00 0.00 0.00 0.00
07/20/19 3:58:22 PM 257 3.0 11.0 61 23 76.4 90.1 29.871 20.09 4.0 707 0.00 0.00 0.00 0.00
07/20/19 3:59:35 PM 223 5.0 11.0 61 24 76.4 90.2 29.866 20.09 4.0 705 0.00 0.00 0.00 0.00
07/20/19 4:00:27 PM 213 8.0 11.0 61 24 76.4 90.2 29.869 20.09 3.9 703 0.00 0.00 0.00 0.00
07/20/19 4:01:19 PM 239 5.0 11.0 61 25 76.4 90.2 29.869 20.09 3.9 701 0.00 0.00 0.00 0.00
07/20/19 4:02:33 PM 292 3.0 11.0 61 24 76.4 90.1 29.872 20.09 3.9 700 0.00 0.00 0.00 0.00
07/20/19 4:03:19 PM 315 3.0 11.0 61 24 76.4 90.1 29.872 20.09 3.9 698 0.00 0.00 0.00 0.00
07/20/19 4:04:33 PM 268 0.0 11.0 61 26 76.4 90.1 29.871 20.09 3.8 694 0.00 0.00 0.00 0.00
07/20/19 4:05:28 PM 275 7.0 11.0 61 26 76.4 90.1 29.871 20.09 3.8 691 0.00 0.00 0.00 0.00
07/20/19 4:06:20 PM 239 3.0 11.0 61 25 76.4 90.1 29.869 20.09 3.8 689 0.00 0.00 0.00 0.00
07/20/19 4:07:31 PM 205 11.0 11.0 61 25 76.4 90.1 29.866 20.09 3.7 686 0.00 0.00 0.00 0.00
07/20/19 4:08:26 PM 215 10.0 11.0 61 25 76.4 90.1 29.866 20.09 3.7 686 0.00 0.00 0.00 0.00
07/20/19 4:09:34 PM 212 5.0 11.0 61 26 76.4 90.1 29.867 20.09 3.7 677 0.00 0.00 0.00 0.00
07/20/19 4:10:26 PM 222 5.0 11.0 61 26 76.4 90.0 29.867 20.09 3.6 675 0.00 0.00 0.00 0.00
07/20/19 4:11:18 PM 205 9.0 11.0 61 29 76.4 90.0 29.866 20.09 3.6 675 0.00 0.00 0.00 0.00
07/20/19 4:12:29 PM 205 2.0 11.0 61 26 76.4 90.0 29.866 20.09 3.5 663 0.00 0.00 0.00 0.00
07/20/19 4:13:21 PM 117 4.0 11.0 61 27 76.4 89.9 29.866 20.09 3.5 661 0.00 0.00 0.00 0.00
07/20/19 4:14:28 PM 101 2.0 11.0 61 25 76.4 89.9 29.864 20.09 3.4 657 0.00 0.00 0.00 0.00
07/20/19 4:15:23 PM 98 1.0 11.0 61 25 76.4 89.8 29.864 20.09 3.4 657 0.00 0.00 0.00 0.00
07/20/19 4:16:34 PM 300 2.0 11.0 61 27 76.4 89.8 29.863 20.09 3.4 654 0.00 0.00 0.00 0.00
07/20/19 4:17:26 PM 296 2.0 11.0 61 27 76.4 89.9 29.863 20.09 3.4 654 0.00 0.00 0.00 0.00
07/20/19 4:18:19 PM 299 3.0 11.0 61 27 76.4 89.9 29.865 20.09 3.3 650 0.00 0.00 0.00 0.00
07/20/19 4:19:29 PM 298 2.0 11.0 61 27 76.3 90.0 29.862 20.09 3.3 647 0.00 0.00 0.00 0.00
07/20/19 4:20:21 PM 298 1.0 11.0 61 28 76.3 90.1 29.862 20.09 3.3 647 0.00 0.00 0.00 0.00
07/20/19 4:21:35 PM 186 7.0 11.0 61 27 76.4 90.1 29.863 20.09 3.2 640 0.00 0.00 0.00 0.00
07/20/19 4:22:27 PM 234 10.0 11.0 61 28 76.4 90.2 29.863 20.09 3.2 638 0.00 0.00 0.00 0.00
07/20/19 4:23:19 PM 236 9.0 11.0 61 27 76.4 90.2 29.862 20.09 3.2 636 0.00 0.00 0.00 0.00
07/20/19 4:24:33 PM 241 6.0 11.0 61 28 76.4 90.1 29.862 20.09 3.1 629 0.00 0.00 0.00 0.00
07/20/19 4:25:22 PM 288 5.0 11.0 61 28 76.4 90.1 29.862 20.09 3.1 628 0.00 0.00 0.00 0.00
07/20/19 4:26:32 PM 267 4.0 11.0 61 29 76.4 90.0 29.863 20.09 3.1 626 0.00 0.00 0.00 0.00
07/20/19 4:27:25 PM 257 5.0 11.0 61 28 76.4 90.0 29.863 20.09 3.1 624 0.00 0.00 0.00 0.00
07/20/19 4:28:17 PM 234 2.0 11.0 61 28 76.4 89.9 29.862 20.09 3.1 621 0.00 0.00 0.00 0.00
07/20/19 4:29:30 PM 202 9.0 11.0 61 28 76.4 89.9 29.862 20.09 3.0 615 0.00 0.00 0.00 0.00
07/20/19 4:30:20 PM 220 7.0 11.0 61 28 76.4 89.9 29.862 20.09 3.0 615 0.00 0.00 0.00 0.00
07/20/19 4:31:34 PM 202 10.0 13.0 61 28 76.4 89.8 29.858 20.09 2.9 612 0.00 0.00 0.00 0.00
07/20/19 4:32:27 PM 209 10.0 13.0 61 27 76.4 89.8 29.858 20.09 2.9 610 0.00 0.00 0.00 0.00
07/20/19 4:33:20 PM 187 4.0 13.0 61 27 76.4 89.7 29.861 20.09 2.9 606 0.00 0.00 0.00 0.00
07/20/19 4:34:31 PM 211 7.0 13.0 61 28 76.4 89.6 29.862 20.09 2.8 603 0.00 0.00 0.00 0.00
07/20/19 4:35:27 PM 221 7.0 13.0 61 28 76.4 89.5 29.862 20.09 2.8 599 0.00 0.00 0.00 0.00
07/20/19 4:36:35 PM 235 5.0 13.0 61 28 76.5 89.4 29.861 20.09 2.8 592 0.00 0.00 0.00 0.00
07/20/19 4:37:28 PM 199 8.0 13.0 61 29 76.5 89.4 29.861 20.09 2.8 592 0.00 0.00 0.00 0.00
07/20/19 4:38:21 PM 228 10.0 14.0 61 28 76.5 89.3 29.860 20.09 2.8 591 0.00 0.00 0.00 0.00
07/20/19 4:39:32 PM 256 10.0 14.0 61 29 76.5 89.3 29.860 20.09 2.7 585 0.00 0.00 0.00 0.00
07/20/19 4:40:25 PM 241 4.0 14.0 61 28 76.5 89.2 29.860 20.09 2.7 582 0.00 0.00 0.00 0.00
07/20/19 4:41:36 PM 217 4.0 14.0 61 28 76.5 89.2 29.860 20.09 2.6 578 0.00 0.00 0.00 0.00
07/20/19 4:42:29 PM 215 5.0 14.0 61 28 76.5 89.1 29.860 20.09 2.6 577 0.00 0.00 0.00 0.00
07/20/19 4:43:19 PM 213 7.0 14.0 61 28 76.5 89.1 29.860 20.09 2.6 575 0.00 0.00 0.00 0.00
07/20/19 4:44:33 PM 180 0.0 14.0 61 28 76.5 89.0 29.861 20.09 2.6 573 0.00 0.00 0.00 0.00
07/20/19 4:45:29 PM 254 3.0 14.0 61 28 76.5 89.0 29.861 20.09 2.5 570 0.00 0.00 0.00 0.00
07/20/19 4:46:18 PM 215 5.0 14.0 61 30 76.5 89.0 29.859 20.09 2.5 566 0.00 0.00 0.00 0.00
07/20/19 4:47:26 PM 234 3.0 14.0 61 30 76.5 89.1 29.856 20.09 2.5 563 0.00 0.00 0.00 0.00
07/20/19 4:48:20 PM 223 3.0 14.0 61 30 76.5 89.1 29.859 20.09 2.5 559 0.00 0.00 0.00 0.00
07/20/19 4:49:31 PM 207 7.0 14.0 61 29 76.5 89.2 29.856 20.09 2.4 557 0.00 0.00 0.00 0.00
07/20/19 4:50:24 PM 178 5.0 14.0 61 28 76.5 89.2 29.856 20.09 2.4 554 0.00 0.00 0.00 0.00
07/20/19 4:51:20 PM 184 7.0 14.0 61 29 76.5 89.1 29.859 20.09 2.4 552 0.00 0.00 0.00 0.00
07/20/19 4:52:25 PM 266 7.0 14.0 61 29 76.6 89.1 29.859 20.09 2.3 548 0.00 0.00 0.00 0.00
07/20/19 4:53:20 PM 284 2.0 14.0 61 28 76.6 89.1 29.857 20.09 2.3 545 0.00 0.00 0.00 0.00
07/20/19 4:54:33 PM 252 2.0 14.0 61 30 76.6 89.1 29.857 20.09 2.3 540 0.00 0.00 0.00 0.00
07/20/19 4:55:29 PM 240 8.0 14.0 61 31 76.6 89.1 29.857 20.09 2.3 536 0.00 0.00 0.00 0.00
07/20/19 4:56:21 PM 251 4.0 14.0 61 29 76.6 89.1 29.857 20.09 2.2 534 0.00 0.00 0.00 0.00
07/20/19 4:57:29 PM 251 2.0 14.0 61 30 76.5 89.1 29.858 20.09 2.2 531 0.00 0.00 0.00 0.00
07/20/19 4:58:21 PM 249 3.0 14.0 61 30 76.5 89.1 29.858 20.09 2.2 527 0.00 0.00 0.00 0.00
07/20/19 4:59:35 PM 250 2.0 14.0 61 29 76.6 89.1 29.856 20.09 2.2 524 0.00 0.00 0.00 0.00
07/20/19 5:00:27 PM 284 4.0 14.0 61 30 76.6 89.2 29.856 20.09 2.2 522 0.00 0.00 0.00 0.00
07/20/19 5:01:19 PM 272 4.0 14.0 61 30 76.6 89.2 29.856 20.09 2.1 517 0.00 0.00 0.00 0.00
07/20/19 5:02:33 PM 327 5.0 14.0 61 30 76.6 89.2 29.853 20.09 2.1 515 0.00 0.00 0.00 0.00
07/20/19 5:03:22 PM 299 9.0 14.0 61 30 76.6 89.2 29.853 20.09 2.1 513 0.00 0.00 0.00 0.00
07/20/19 5:04:35 PM 227 8.0 14.0 61 30 76.6 89.2 29.854 20.09 2.0 510 0.00 0.00 0.00 0.00
07/20/19 5:05:31 PM 207 10.0 14.0 61 31 76.5 89.2 29.853 20.09 2.0 506 0.00 0.00 0.00 0.00
07/20/19 5:06:20 PM 217 8.0 14.0 61 30 76.5 89.1 29.853 20.09 2.0 504 0.00 0.00 0.00 0.00
07/20/19 5:07:34 PM 204 10.0 14.0 61 30 76.5 89.0 29.855 20.09 2.0 497 0.00 0.00 0.00 0.00
07/20/19 5:08:23 PM 215 10.0 14.0 61 30 76.5 89.0 29.855 20.09 1.9 497 0.00 0.00 0.00 0.00
07/20/19 5:09:37 PM 213 10.0 14.0 61 31 76.5 88.8 29.856 20.09 1.9 490 0.00 0.00 0.00 0.00
07/20/19 5:10:29 PM 228 5.0 15.0 61 30 76.6 88.8 29.856 20.09 1.9 489 0.00 0.00 0.00 0.00
07/20/19 5:11:22 PM 215 6.0 15.0 61 31 76.6 88.6 29.854 20.09 1.9 485 0.00 0.00 0.00 0.00
07/20/19 5:12:35 PM 190 10.0 15.0 61 30 76.5 88.4 29.853 20.09 1.8 482 0.00 0.00 0.00 0.00
07/20/19 5:13:28 PM 161 6.0 15.0 61 30 76.5 88.3 29.853 20.09 1.8 478 0.00 0.00 0.00 0.00
07/20/19 5:14:17 PM 218 6.0 15.0 61 31 76.5 88.2 29.852 20.09 1.7 473 0.00 0.00 0.00 0.00
07/20/19 5:15:31 PM 201 9.0 15.0 61 31 76.5 88.1 29.852 20.09 1.7 471 0.00 0.00 0.00 0.00
07/20/19 5:16:20 PM 198 6.0 15.0 61 31 76.5 88.0 29.852 20.09 1.7 469 0.00 0.00 0.00 0.00
07/20/19 5:17:34 PM 248 2.0 15.0 61 31 76.5 87.9 29.852 20.09 1.7 466 0.00 0.00 0.00 0.00
07/20/19 5:18:26 PM 267 2.0 15.0 61 31 76.5 87.9 29.852 20.09 1.7 464 0.00 0.00 0.00 0.00
07/20/19 5:19:34 PM 275 3.0 15.0 61 33 76.6 87.9 29.854 20.09 1.6 461 0.00 0.00 0.00 0.00
07/20/19 5:20:26 PM 267 4.0 15.0 61 32 76.6 87.9 29.854 20.09 1.6 457 0.00 0.00 0.00 0.00
07/20/19 5:21:19 PM 255 5.0 15.0 61 32 76.5 87.9 29.853 20.09 1.6 454 0.00 0.00 0.00 0.00
07/20/19 5:22:32 PM 288 4.0 15.0 61 31 76.5 87.9 29.851 20.09 1.6 446 0.00 0.00 0.00 0.00
07/20/19 5:23:25 PM 217 9.0 15.0 61 31 76.5 88.0 29.851 20.09 1.6 446 0.00 0.00 0.00 0.00
07/20/19 5:24:17 PM 223 10.0 15.0 61 31 76.5 88.0 29.853 20.09 1.5 445 0.00 0.00 0.00 0.00
07/20/19 5:25:30 PM 217 4.0 15.0 61 31 76.5 88.0 29.854 20.09 1.5 439 0.00 0.00 0.00 0.00
07/20/19 5:26:20 PM 221 3.0 15.0 61 31 76.5 88.0 29.853 20.09 1.5 438 0.00 0.00 0.00 0.00
07/20/19 5:27:33 PM 222 6.0 15.0 61 31 76.5 88.0 29.850 20.09 1.5 434 0.00 0.00 0.00 0.00
07/20/19 5:28:25 PM 230 3.0 15.0 61 31 76.5 88.0 29.850 20.09 1.4 434 0.00 0.00 0.00 0.00
07/20/19 5:29:18 PM 224 1.0 15.0 61 31 76.6 88.1 29.850 20.09 1.4 427 0.00 0.00 0.00 0.00
07/20/19 5:30:25 PM 235 4.0 15.0 61 32 76.5 88.1 29.849 20.09 1.4 424 0.00 0.00 0.00 0.00
07/20/19 5:31:17 PM 226 14.0 15.0 61 32 76.6 88.1 29.851 20.09 1.4 422 0.00 0.00 0.00 0.00
07/20/19 5:32:28 PM 228 8.0 15.0 61 31 76.6 88.1 29.849 20.09 1.3 422 0.00 0.00 0.00 0.00
07/20/19 5:33:21 PM 221 4.0 15.0 61 31 76.6 88.0 29.849 20.09 1.3 413 0.00 0.00 0.00 0.00
07/20/19 5:34:34 PM 296 4.0 15.0 61 31 76.6 88.0 29.847 20.09 1.3 410 0.00 0.00 0.00 0.00
07/20/19 5:35:23 PM 252 4.0 15.0 61 32 76.6 87.9 29.847 20.09 1.3 408 0.00 0.00 0.00 0.00
07/20/19 5:36:16 PM 271 2.0 15.0 61 32 76.7 87.9 29.846 20.09 1.3 404 0.00 0.00 0.00 0.00
07/20/19 5:37:29 PM 254 9.0 15.0 61 33 76.6 87.9 29.847 20.09 1.3 401 0.00 0.00 0.00 0.00
07/20/19 5:38:21 PM 246 3.0 15.0 61 32 76.6 87.9 29.847 20.09 1.2 399 0.00 0.00 0.00 0.00
07/20/19 5:39:35 PM 238 6.0 15.0 61 32 76.7 87.9 29.848 20.09 1.2 390 0.00 0.00 0.00 0.00
07/20/19 5:40:25 PM 227 9.0 15.0 61 32 76.7 87.9 29.848 20.09 1.2 390 0.00 0.00 0.00 0.00
07/20/19 5:41:35 PM 221 12.0 15.0 61 32 76.6 87.9 29.846 20.09 1.2 381 0.00 0.00 0.00 0.00
07/20/19 5:42:30 PM 229 11.0 15.0 61 32 76.7 87.9 29.846 20.09 1.1 378 0.00 0.00 0.00 0.00
07/20/19 5:43:23 PM 216 6.0 15.0 61 32 76.7 87.8 29.846 20.09 1.1 374 0.00 0.00 0.00 0.00
07/20/19 5:44:37 PM 240 3.0 15.0 61 32 76.6 87.7 29.847 20.09 1.1 373 0.00 0.00 0.00 0.00
07/20/19 5:45:29 PM 249 5.0 15.0 61 32 76.6 87.7 29.847 20.09 1.1 369 0.00 0.00 0.00 0.00
07/20/19 5:46:36 PM 255 8.0 15.0 61 33 76.7 87.7 29.847 20.09 1.1 367 0.00 0.00 0.00 0.00
07/20/19 5:47:29 PM 240 6.0 15.0 61 33 76.7 87.7 29.847 20.09 1.1 364 0.00 0.00 0.00 0.00
07/20/19 5:48:21 PM 220 10.0 15.0 61 33 76.7 87.6 29.846 20.09 1.0 364 0.00 0.00 0.00 0.00
07/20/19 5:49:35 PM 212 10.0 15.0 61 33 76.7 87.6 29.849 20.09 1.0 357 0.00 0.00 0.00 0.00
07/20/19 5:50:27 PM 217 10.0 15.0 61 33 76.7 87.5 29.849 20.09 1.0 353 0.00 0.00 0.00 0.00
07/20/19 5:51:19 PM 211 7.0 15.0 61 34 76.7 87.5 29.846 20.09 1.0 350 0.00 0.00 0.00 0.00
07/20/19 5:52:27 PM 221 7.0 15.0 61 34 76.7 87.4 29.847 20.09 1.0 346 0.00 0.00 0.00 0.00
07/20/19 5:53:20 PM 237 9.0 15.0 61 34 76.7 87.3 29.847 20.09 0.9 343 0.00 0.00 0.00 0.00
07/20/19 5:54:33 PM 252 4.0 15.0 61 34 76.7 87.2 29.849 20.09 0.9 338 0.00 0.00 0.00 0.00
07/20/19 5:55:29 PM 217 10.0 15.0 61 35 76.7 87.2 29.849 20.09 0.9 334 0.00 0.00 0.00 0.00
07/20/19 5:56:21 PM 229 8.0 15.0 61 34 76.7 87.2 29.847 20.09 0.9 332 0.00 0.00 0.00 0.00
07/20/19 5:57:32 PM 209 9.0 15.0 61 34 76.7 87.1 29.846 20.09 0.9 327 0.00 0.00 0.00 0.00
07/20/19 5:58:21 PM 250 3.0 15.0 61 34 76.7 87.0 29.846 20.09 0.8 323 0.00 0.00 0.00 0.00
07/20/19 5:59:35 PM 246 2.0 15.0 61 35 76.7 86.9 29.844 20.09 0.8 320 0.00 0.00 0.00 0.00
07/20/19 6:00:30 PM 284 2.0 15.0 61 35 76.7 86.9 29.844 20.09 0.8 316 0.00 0.00 0.00 0.00
07/20/19 6:01:23 PM 265 4.0 15.0 61 35 76.6 86.9 29.845 20.09 0.8 315 0.00 0.00 0.00 0.00
07/20/19 6:02:31 PM 259 3.0 15.0 61 35 76.6 86.9 29.847 20.09 0.8 311 0.00 0.00 0.00 0.00
07/20/19 6:03:23 PM 232 13.0 15.0 61 35 76.6 86.9 29.847 20.09 0.8 309 0.00 0.00 0.00 0.00
07/20/19 6:04:16 PM 229 6.0 15.0 61 35 76.7 86.8 29.846 20.09 0.8 306 0.00 0.00 0.00 0.00
07/20/19 6:05:30 PM 246 8.0 15.0 61 35 76.7 86.8 29.846 20.09 0.7 302 0.00 0.00 0.00 0.00
07/20/19 6:06:22 PM 245 7.0 15.0 61 35 76.7 86.7 29.846 20.09 0.7 299 0.00 0.00 0.00 0.00
07/20/19 6:07:35 PM 247 7.0 15.0 61 35 76.6 86.6 29.845 20.09 0.7 295 0.00 0.00 0.00 0.00
07/20/19 6:08:22 PM 229 7.0 15.0 61 35 76.6 86.5 29.845 20.09 0.7 295 0.00 0.00 0.00 0.00
07/20/19 6:09:36 PM 228 7.0 15.0 61 36 76.6 86.5 29.846 20.09 0.7 288 0.00 0.00 0.00 0.00
07/20/19 6:10:25 PM 238 11.0 15.0 61 35 76.6 86.4 29.846 20.09 0.7 283 0.00 0.00 0.00 0.00
07/20/19 6:11:18 PM 214 9.0 15.0 61 35 76.5 86.3 29.847 20.09 0.7 279 0.00 0.00 0.00 0.00
07/20/19 6:12:32 PM 222 9.0 15.0 61 36 76.5 86.2 29.848 20.09 0.6 278 0.00 0.00 0.00 0.00
07/20/19 6:13:21 PM 271 8.0 15.0 61 35 76.5 86.2 29.848 20.09 0.6 278 0.00 0.00 0.00 0.00
07/20/19 6:14:35 PM 257 9.0 15.0 61 36 76.5 86.1 29.849 20.09 0.6 271 0.00 0.00 0.00 0.00
07/20/19 6:15:30 PM 248 5.0 15.0 61 36 76.5 86.0 29.849 20.09 0.6 267 0.00 0.00 0.00 0.00
07/20/19 6:16:20 PM 252 7.0 15.0 61 36 76.5 85.9 29.846 20.09 0.6 265 0.00 0.00 0.00 0.00
07/20/19 6:17:34 PM 265 7.0 15.0 61 35 76.4 85.9 29.847 20.09 0.6 262 0.00 0.00 0.00 0.00
07/20/19 6:18:26 PM 218 9.0 15.0 61 36 76.4 85.8 29.847 20.09 0.6 260 0.00 0.00 0.00 0.00
07/20/19 6:19:37 PM 232 7.0 15.0 61 36 76.4 85.7 29.848 20.09 0.6 257 0.00 0.00 0.00 0.00
07/20/19 6:20:29 PM 269 8.0 15.0 61 36 76.4 85.7 29.848 20.09 0.5 253 0.00 0.00 0.00 0.00
07/20/19 6:21:19 PM 259 8.0 15.0 61 36 76.4 85.7 29.848 20.09 0.5 253 0.00 0.00 0.00 0.00
07/20/19 6:22:32 PM 242 6.0 15.0 61 36 76.3 85.6 29.847 20.09 0.5 243 0.00 0.00 0.00 0.00
07/20/19 6:23:25 PM 242 10.0 15.0 61 36 76.3 85.6 29.847 20.09 0.5 243 0.00 0.00 0.00 0.00
07/20/19 6:24:33 PM 219 12.0 15.0 61 36 76.3 85.5 29.849 20.09 0.5 236 0.00 0.00 0.00 0.00
07/20/19 6:25:29 PM 212 11.0 15.0 61 36 76.3 85.5 29.849 20.09 0.5 232 0.00 0.00 0.00 0.00
07/20/19 6:26:18 PM 233 5.0 15.0 61 36 76.3 85.4 29.850 20.09 0.5 230 0.00 0.00 0.00 0.00
07/20/19 6:27:29 PM 234 3.0 15.0 61 36 76.3 85.3 29.851 20.09 0.0 227 0.00 0.00 0.00 0.00
07/20/19 6:28:21 PM 248 13.0 15.0 61 37 76.3 85.3 29.851 20.09 0.0 223 0.00 0.00 0.00 0.00
07/20/19 6:29:32 PM 270 3.0 15.0 61 36 76.2 85.2 29.851 20.09 0.0 220 0.00 0.00 0.00 0.00
07/20/19 6:30:27 PM 271 3.0 15.0 61 36 76.2 85.2 29.851 20.09 0.0 216 0.00 0.00 0.00 0.00
07/20/19 6:31:17 PM 238 4.0 15.0 61 37 76.2 85.2 29.852 20.09 0.0 213 0.00 0.00 0.00 0.00
07/20/19 6:32:31 PM 261 7.0 15.0 61 37 76.2 85.2 29.851 20.09 0.0 209 0.00 0.00 0.00 0.00
07/20/19 6:33:24 PM 252 4.0 15.0 61 37 76.2 85.2 29.851 20.09 0.0 206 0.00 0.00 0.00 0.00
07/20/19 6:34:37 PM 268 2.0 15.0 61 36 76.2 85.2 29.852 20.09 0.0 202 0.00 0.00 0.00 0.00
07/20/19 6:35:27 PM 293 3.0 15.0 61 37 76.2 85.1 29.852 20.09 0.0 199 0.00 0.00 0.00 0.00
07/20/19 6:36:16 PM 298 3.0 15.0 61 37 76.3 85.1 29.850 20.09 0.0 195 0.00 0.00 0.00 0.00
07/20/19 6:37:30 PM 277 7.0 15.0 61 36 76.2 85.1 29.853 20.09 0.0 188 0.00 0.00 0.00 0.00
07/20/19 6:38:22 PM 256 5.0 15.0 61 36 76.2 85.1 29.853 20.09 0.0 188 0.00 0.00 0.00 0.00
07/20/19 6:39:33 PM 265 3.0 15.0 61 36 76.2 85.0 29.851 20.09 0.0 181 0.00 0.00 0.00 0.00
07/20/19 6:40:22 PM 295 7.0 15.0 61 36 76.2 85.0 29.851 20.09 0.0 178 0.00 0.00 0.00 0.00
07/20/19 6:41:18 PM 281 2.0 15.0 61 36 76.2 84.9 29.851 20.09 0.0 174 0.00 0.00 0.00 0.00
07/20/19 6:42:29 PM 312 8.0 15.0 61 36 76.2 84.8 29.852 20.09 0.0 171 0.00 0.00 0.00 0.00
07/20/19 6:43:24 PM 267 7.0 15.0 61 36 76.2 84.8 29.852 20.09 0.0 167 0.00 0.00 0.00 0.00
07/20/19 6:44:35 PM 279 3.0 15.0 61 37 76.2 84.7 29.853 20.09 0.0 163 0.00 0.00 0.00 0.00
07/20/19 6:45:28 PM 242 5.0 15.0 61 37 76.2 84.6 29.853 20.09 0.0 160 0.00 0.00 0.00 0.00
07/20/19 6:46:17 PM 298 3.0 15.0 61 37 76.2 84.6 29.853 20.09 0.0 156 0.00 0.00 0.00 0.00
07/20/19 6:47:30 PM 284 3.0 15.0 61 37 76.2 84.5 29.853 20.09 0.0 153 0.00 0.00 0.00 0.00
07/20/19 6:48:20 PM 274 3.0 15.0 61 37 76.2 84.4 29.853 20.09 0.0 149 0.00 0.00 0.00 0.00
07/20/19 6:49:31 PM 286 6.0 15.0 61 37 76.2 84.4 29.855 20.09 0.0 146 0.00 0.00 0.00 0.00
07/20/19 6:50:23 PM 248 4.0 15.0 61 37 76.2 84.3 29.855 20.09 0.0 142 0.00 0.00 0.00 0.00
07/20/19 6:51:31 PM 239 3.0 15.0 61 37 76.2 84.3 29.853 20.09 0.0 141 0.00 0.00 0.00 0.00
07/20/19 6:52:24 PM 238 5.0 15.0 61 37 76.2 84.3 29.853 20.09 0.0 137 0.00 0.00 0.00 0.00
07/20/19 6:53:34 PM 230 4.0 15.0 61 37 76.2 84.2 29.853 20.09 0.0 132 0.00 0.00 0.00 0.00
07/20/19 6:54:27 PM 271 6.0 15.0 61 37 76.2 84.2 29.853 20.09 0.0 128 0.00 0.00 0.00 0.00
07/20/19 6:55:23 PM 253 7.0 15.0 61 37 76.2 84.1 29.855 20.09 0.0 125 0.00 0.00 0.00 0.00
07/20/19 6:56:28 PM 261 3.0 15.0 61 37 76.2 84.0 29.855 20.09 0.0 123 0.00 0.00 0.00 0.00
07/20/19 6:57:21 PM 258 7.0 15.0 61 38 76.2 84.0 29.855 20.09 0.0 120 0.00 0.00 0.00 0.00
07/20/19 6:58:35 PM 301 8.0 15.0 61 37 76.2 83.9 29.855 20.09 0.0 116 0.00 0.00 0.00 0.00
07/20/19 6:59:27 PM 267 7.0 15.0 61 37 76.2 83.9 29.855 20.09 0.0 114 0.00 0.00 0.00 0.00
07/20/19 7:00:20 PM 244 4.0 15.0 61 38 76.2 83.8 29.855 20.09 0.0 111 0.00 0.00 0.00 0.00
07/20/19 7:01:31 PM 304 8.0 15.0 61 38 76.1 83.7 29.854 20.09 0.0 107 0.00 0.00 0.00 0.00
07/20/19 7:02:21 PM 252 4.0 15.0 61 38 76.1 83.6 29.854 20.09 0.0 104 0.00 0.00 0.00 0.00
07/20/19 7:03:32 PM 259 3.0 15.0 61 38 76.2 83.6 29.857 20.09 0.0 102 0.00 0.00 0.00 0.00
07/20/19 7:04:25 PM 264 6.0 15.0 61 38 76.2 83.5 29.857 20.09 0.0 98 0.00 0.00 0.00 0.00
07/20/19 7:05:21 PM 264 6.0 15.0 61 38 76.1 83.5 29.855 20.09 0.0 98 0.00 0.00 0.00 0.00
07/20/19 7:06:32 PM 264 6.0 15.0 61 38 76.2 83.5 29.856 20.09 0.0 98 0.00 0.00 0.00 0.00
07/20/19 7:07:19 PM 264 6.0 15.0 61 38 76.2 83.5 29.856 20.09 0.0 98 0.00 0.00 0.00 0.00
07/20/19 7:08:30 PM 264 6.0 15.0 61 38 76.2 83.5 29.856 20.09 0.0 98 0.00 0.00 0.00 0.00
07/20/19 7:09:53 PM 264 6.0 15.0 61 38 76.3 83.5 29.857 20.09 0.0 98 0.00 0.00 0.00 0.00
07/20/19 7:10:25 PM 260 6.0 15.0 61 39 76.3 82.9 29.857 20.09 0.0 37 0.00 0.00 0.00 0.00
07/20/19 7:11:17 PM 254 2.0 15.0 61 40 76.3 82.9 29.859 20.09 0.0 37 0.00 0.00 0.00 0.00
07/20/19 7:12:32 PM 269 4.0 15.0 61 40 76.3 82.7 29.858 20.09 0.0 35 0.00 0.00 0.00 0.00
07/20/19 7:13:19 PM 265 3.0 15.0 61 40 76.3 82.7 29.858 20.09 0.0 28 0.00 0.00 0.00 0.00
07/20/19 7:14:29 PM 248 4.0 15.0 61 40 76.2 82.6 29.854 20.09 0.0 26 0.00 0.00 0.00 0.00
07/20/19 7:15:26 PM 253 5.0 15.0 61 40 76.2 82.5 29.854 20.09 0.0 25 0.00 0.00 0.00 0.00
07/20/19 7:16:19 PM 254 5.0 15.0 61 40 76.2 82.4 29.855 20.09 0.0 25 0.00 0.00 0.00 0.00
07/20/19 7:17:30 PM 244 2.0 15.0 61 41 76.2 82.3 29.855 20.09 0.0 25 0.00 0.00 0.00 0.00
07/20/19 7:18:23 PM 238 2.0 15.0 61 41 76.2 82.2 29.855 20.09 0.0 25 0.00 0.00 0.00 0.00
07/20/19 7:19:31 PM 246 1.0 15.0 61 41 76.2 82.2 29.855 20.09 0.0 25 0.00 0.00 0.00 0.00
07/20/19 7:20:21 PM 286 4.0 15.0 61 41 76.2 82.1 29.855 20.09 0.0 23 0.00 0.00 0.00 0.00
07/20/19 7:21:35 PM 253 5.0 15.0 61 41 76.2 82.0 29.854 20.09 0.0 23 0.00 0.00 0.00 0.00
07/20/19 7:22:28 PM 274 6.0 15.0 61 41 76.2 82.0 29.854 20.09 0.0 23 0.00 0.00 0.00 0.00
07/20/19 7:23:22 PM 236 2.0 15.0 61 42 76.2 81.9 29.854 20.09 0.0 23 0.00 0.00 0.00 0.00
07/20/19 7:24:30 PM 286 3.0 15.0 61 42 76.1 81.8 29.855 20.09 0.0 21 0.00 0.00 0.00 0.00
07/20/19 7:25:26 PM 252 5.0 15.0 61 42 76.1 81.8 29.855 20.09 0.0 21 0.00 0.00 0.00 0.00
07/20/19 7:26:34 PM 306 4.0 15.0 61 42 76.2 81.7 29.857 20.09 0.0 21 0.00 0.00 0.00 0.00
07/20/19 7:27:27 PM 269 6.0 15.0 61 42 76.2 81.6 29.857 20.09 0.0 21 0.00 0.00 0.00 0.00
07/20/19 7:28:17 PM 284 2.0 15.0 61 42 76.2 81.6 29.855 20.09 0.0 21 0.00 0.00 0.00 0.00
07/20/19 7:29:28 PM 240 1.0 15.0 61 42 76.2 81.5 29.858 20.09 0.0 19 0.00 0.00 0.00 0.00
07/20/19 7:30:19 PM 250 7.0 15.0 61 42 76.2 81.4 29.858 20.09 0.0 19 0.00 0.00 0.00 0.00
07/20/19 7:31:33 PM 263 3.0 15.0 61 42 76.2 81.3 29.857 20.09 0.0 19 0.00 0.00 0.00 0.00
07/20/19 7:32:23 PM 237 7.0 15.0 61 42 76.2 81.2 29.857 20.09 0.0 18 0.00 0.00 0.00 0.00
07/20/19 7:33:16 PM 287 3.0 15.0 61 42 76.1 81.2 29.856 20.09 0.0 18 0.00 0.00 0.00 0.00
07/20/19 7:34:28 PM 286 3.0 15.0 61 43 76.1 81.1 29.858 20.09 0.0 16 0.00 0.00 0.00 0.00
07/20/19 7:35:18 PM 289 3.0 15.0 61 43 76.1 81.0 29.858 20.09 0.0 16 0.00 0.00 0.00 0.00
07/20/19 7:36:28 PM 277 4.0 15.0 61 43 76.1 81.0 29.857 20.09 0.0 16 0.00 0.00 0.00 0.00
07/20/19 7:37:18 PM 272 3.0 15.0 61 43 76.1 80.9 29.859 20.09 0.0 14 0.00 0.00 0.00 0.00
07/20/19 7:38:32 PM 249 7.0 15.0 61 43 76.1 80.9 29.860 20.09 0.0 12 0.00 0.00 0.00 0.00
07/20/19 7:39:25 PM 271 7.0 15.0 61 43 76.1 80.8 29.860 20.09 0.0 12 0.00 0.00 0.00 0.00
07/20/19 7:40:33 PM 267 4.0 15.0 61 43 76.2 80.7 29.861 20.09 0.0 12 0.00 0.00 0.00 0.00
07/20/19 7:41:26 PM 265 3.0 15.0 61 44 76.2 80.7 29.861 20.09 0.0 11 0.00 0.00 0.00 0.00
07/20/19 7:42:19 PM 281 2.0 15.0 61 44 76.1 80.6 29.860 20.09 0.0 11 0.00 0.00 0.00 0.00
07/20/19 7:43:30 PM 283 3.0 15.0 61 44 76.2 80.5 29.860 20.09 0.0 11 0.00 0.00 0.00 0.00
07/20/19 7:44:23 PM 273 2.0 15.0 61 44 76.2 80.4 29.860 20.09 0.0 9 0.00 0.00 0.00 0.00
07/20/19 7:45:19 PM 257 3.0 15.0 61 44 76.1 80.4 29.860 20.09 0.0 9 0.00 0.00 0.00 0.00
07/20/19 7:46:27 PM 263 3.0 15.0 61 44 76.1 80.3 29.860 20.09 0.0 9 0.00 0.00 0.00 0.00
07/20/19 7:47:16 PM 290 3.0 15.0 61 44 76.2 80.2 29.862 20.09 0.0 7 0.00 0.00 0.00 0.00
07/20/19 7:48:31 PM 275 2.0 15.0 61 44 76.1 80.1 29.859 20.09 0.0 7 0.00 0.00 0.00 0.00
07/20/19 7:49:23 PM 269 3.0 15.0 61 44 76.1 80.1 29.859 20.09 0.0 7 0.00 0.00 0.00 0.00
07/20/19 7:50:34 PM 268 2.0 15.0 61 45 76.1 80.0 29.859 20.09 0.0 7 0.00 0.00 0.00 0.00
07/20/19 7:51:24 PM 303 2.0 15.0 61 45 76.1 80.0 29.859 20.09 0.0 7 0.00 0.00 0.00 0.00
07/20/19 7:52:35 PM 284 3.0 15.0 61 45 76.2 79.9 29.861 20.09 0.0 5 0.00 0.00 0.00 0.00
07/20/19 7:53:30 PM 278 2.0 15.0 61 45 76.1 79.8 29.861 20.09 0.0 5 0.00 0.00 0.00 0.00
07/20/19 7:54:23 PM 304 4.0 15.0 61 45 76.1 79.8 29.861 20.09 0.0 5 0.00 0.00 0.00 0.00
07/20/19 7:55:37 PM 287 1.0 15.0 61 45 76.1 79.7 29.862 20.09 0.0 5 0.00 0.00 0.00 0.00
07/20/19 7:56:27 PM 286 3.0 15.0 61 45 76.1 79.6 29.862 20.09 0.0 5 0.00 0.00 0.00 0.00
07/20/19 7:57:19 PM 286 2.0 15.0 61 45 76.2 79.6 29.860 20.09 0.0 5 0.00 0.00 0.00 0.00
07/20/19 7:58:30 PM 242 5.0 15.0 61 45 76.1 79.5 29.860 20.09 0.0 0 0.00 0.00 0.00 0.00
07/20/19 7:59:23 PM 267 3.0 15.0 61 46 76.1 79.5 29.859 20.09 0.0 0 0.00 0.00 0.00 0.00
07/20/19 8:00:37 PM 266 3.0 15.0 61 46 76.1 79.4 29.860 20.09 0.0 0 0.00 0.00 0.00 0.00
07/20/19 8:01:27 PM 260 3.0 15.0 61 46 76.1 79.4 29.860 20.09 0.0 0 0.00 0.00 0.00 0.00
07/20/19 8:02:17 PM 289 4.0 15.0 61 46 76.1 79.3 29.859 20.09 0.0 0 0.00 0.00 0.00 0.00
07/20/19 8:03:31 PM 282 2.0 15.0 61 46 76.1 79.2 29.861 20.09 0.0 0 0.00 0.00 0.00 0.00
07/20/19 8:04:21 PM 297 4.0 15.0 61 46 76.1 79.2 29.861 20.09 0.0 0 0.00 0.00 0.00 0.00
07/20/19 8:05:35 PM 295 1.0 15.0 61 46 76.1 79.1 29.860 20.09 0.0 0 0.00 0.00 0.00 0.00
07/20/19 8:06:27 PM 292 2.0 15.0 61 47 76.1 79.1 29.860 20.09 0.0 0 0.00 0.00 0.00 0.00
07/20/19 8:07:35 PM 263 1.0 15.0 61 47 76.1 79.0 29.862 20.09 0.0 0 0.00 0.00 0.00 0.00
07/20/19 8:08:28 PM 271 3.0 15.0 61 47 76.1 79.0 29.862 20.09 0.0 0 0.00 0.00 0.00 0.00
07/20/19 8:09:21 PM 290 3.0 15.0 61 47 76.2 78.9 29.861 20.09 0.0 0 0.00 0.00 0.00 0.00
07/20/19 8:10:35 PM 277 6.0 15.0 61 47 76.1 78.9 29.861 20.09 0.0 0 0.00 0.00 0.00 0.00
07/20/19 8:11:28 PM 275 2.0 15.0 61 47 76.1 78.8 29.861 20.09 0.0 0 0.00 0.00 0.00 0.00
07/20/19 8:12:21 PM 320 3.0 15.0 61 47 76.1 78.7 29.863 20.09 0.0 0 0.00 0.00 0.00 0.00
07/20/19 8:13:29 PM 258 1.0 15.0 61 47 76.1 78.7 29.864 20.09 0.0 0 0.00 0.00 0.00 0.00
07/20/19 8:14:22 PM 270 2.0 15.0 61 47 76.1 78.7 29.863 20.09 0.0 0 0.00 0.00 0.00 0.00
07/20/19 8:15:35 PM 270 2.0 15.0 61 47 76.2 78.6 29.865 20.09 0.0 0 0.00 0.00 0.00 0.00
07/20/19 8:16:28 PM 268 2.0 15.0 61 47 76.2 78.6 29.865 20.09 0.0 0 0.00 0.00 0.00 0.00
07/20/19 8:17:21 PM 296 5.0 15.0 61 47 76.1 78.5 29.865 20.09 0.0 0 0.00 0.00 0.00 0.00
07/20/19 8:18:29 PM 271 3.0 15.0 61 47 76.2 78.5 29.865 20.09 0.0 0 0.00 0.00 0.00 0.00
07/20/19 8:19:19 PM 285 4.0 15.0 61 47 76.2 78.4 29.866 20.09 0.0 0 0.00 0.00 0.00 0.00
07/20/19 8:20:34 PM 289 4.0 15.0 61 48 76.1 78.4 29.868 20.09 0.0 0 0.00 0.00 0.00 0.00
07/20/19 8:21:27 PM 275 4.0 15.0 61 48 76.1 78.3 29.868 20.09 0.0 0 0.00 0.00 0.00 0.00
07/20/19 8:22:19 PM 258 2.0 15.0 61 48 76.1 78.3 29.866 20.09 0.0 0 0.00 0.00 0.00 0.00
07/20/19 8:23:27 PM 254 1.0 15.0 61 48 76.2 78.3 29.868 20.09 0.0 0 0.00 0.00 0.00 0.00
07/20/19 8:24:20 PM 254 1.0 15.0 61 48 76.1 78.2 29.868 20.09 0.0 0 0.00 0.00 0.00 0.00
07/20/19 8:25:34 PM 255 2.0 15.0 61 48 76.2 78.2 29.870 20.09 0.0 0 0.00 0.00 0.00 0.00
07/20/19 8:26:27 PM 263 3.0 15.0 61 48 76.2 78.2 29.870 20.09 0.0 0 0.00 0.00 0.00 0.00
07/20/19 8:27:20 PM 263 1.0 15.0 61 48 76.1 78.1 29.870 20.09 0.0 0 0.00 0.00 0.00 0.00
07/20/19 8:28:31 PM 289 2.0 15.0 61 48 76.1 78.1 29.870 20.09 0.0 0 0.00 0.00 0.00 0.00
07/20/19 8:29:21 PM 292 3.0 15.0 61 48 76.1 78.0 29.870 20.09 0.0 0 0.00 0.00 0.00 0.00
07/20/19 8:30:35 PM 290 1.0 15.0 61 48 76.1 78.0 29.871 20.09 0.0 0 0.00 0.00 0.00 0.00
07/20/19 8:31:25 PM 290 2.0 15.0 61 48 76.1 78.0 29.871 20.09 0.0 0 0.00 0.00 0.00 0.00
07/20/19 8:32:18 PM 288 2.0 15.0 61 48 76.2 77.9 29.872 20.09 0.0 0 0.00 0.00 0.00 0.00
07/20/19 8:33:32 PM 288 1.0 15.0 61 49 76.2 77.9 29.873 20.09 0.0 0 0.00 0.00 0.00 0.00
07/20/19 8:34:19 PM 284 4.0 15.0 61 49 76.2 77.8 29.873 20.09 0.0 0 0.00 0.00 0.00 0.00
07/20/19 8:35:34 PM 271 2.0 15.0 61 49 76.2 77.8 29.873 20.09 0.0 0 0.00 0.00 0.00 0.00
07/20/19 8:36:23 PM 273 2.0 15.0 61 49 76.2 77.7 29.873 20.09 0.0 0 0.00 0.00 0.00 0.00
07/20/19 8:37:34 PM 273 2.0 15.0 61 49 76.2 77.7 29.876 20.09 0.0 0 0.00 0.00 0.00 0.00
07/20/19 8:38:27 PM 271 1.0 15.0 61 49 76.2 77.6 29.876 20.09 0.0 0 0.00 0.00 0.00 0.00
07/20/19 8:39:17 PM 271 0.0 15.0 61 49 76.2 77.6 29.874 20.09 0.0 0 0.00 0.00 0.00 0.00
07/20/19 8:40:28 PM 263 1.0 15.0 61 49 76.1 77.6 29.876 20.09 0.0 0 0.00 0.00 0.00 0.00
07/20/19 8:41:21 PM 263 2.0 15.0 61 49 76.2 77.5 29.878 20.09 0.0 0 0.00 0.00 0.00 0.00
07/20/19 8:42:32 PM 263 1.0 15.0 61 49 76.2 77.5 29.876 20.09 0.0 0 0.00 0.00 0.00 0.00
07/20/19 8:43:25 PM 263 1.0 15.0 61 49 76.2 77.4 29.876 20.09 0.0 0 0.00 0.00 0.00 0.00
07/20/19 8:44:36 PM 263 2.0 15.0 61 49 76.2 77.4 29.876 20.09 0.0 0 0.00 0.00 0.00 0.00
07/20/19 8:45:26 PM 263 1.0 15.0 61 49 76.2 77.3 29.876 20.09 0.0 0 0.00 0.00 0.00 0.00
07/20/19 8:46:19 PM 263 0.0 15.0 61 49 76.1 77.3 29.876 20.09 0.0 0 0.00 0.00 0.00 0.00
07/20/19 8:47:31 PM 263 1.0 15.0 61 49 76.2 77.2 29.877 20.09 0.0 0 0.00 0.00 0.00 0.00
07/20/19 8:48:24 PM 263 2.0 15.0 61 49 76.2 77.2 29.877 20.09 0.0 0 0.00 0.00 0.00 0.00
07/20/19 8:49:35 PM 267 1.0 15.0 61 50 76.2 77.1 29.882 20.09 0.0 0 0.00 0.00 0.00 0.00
07/20/19 8:50:24 PM 261 3.0 15.0 61 50 76.2 77.1 29.882 20.09 0.0 0 0.00 0.00 0.00 0.00
07/20/19 8:51:17 PM 265 2.0 15.0 61 50 76.2 77.0 29.879 20.09 0.0 0 0.00 0.00 0.00 0.00
07/20/19 8:52:31 PM 265 1.0 15.0 61 50 76.2 77.0 29.879 20.09 0.0 0 0.00 0.00 0.00 0.00
07/20/19 8:53:24 PM 265 1.0 15.0 61 50 76.2 76.9 29.879 20.09 0.0 0 0.00 0.00 0.00 0.00
07/20/19 8:54:35 PM 265 1.0 15.0 61 50 76.2 76.9 29.880 20.09 0.0 0 0.00 0.00 0.00 0.00
07/20/19 8:55:31 PM 265 1.0 15.0 61 50 76.1 76.8 29.878 20.09 0.0 0 0.00 0.00 0.00 0.00
07/20/19 8:56:18 PM 265 3.0 15.0 61 50 76.1 76.8 29.878 20.09 0.0 0 0.00 0.00 0.00 0.00
07/20/19 8:57:31 PM 265 2.0 15.0 61 50 76.2 76.7 29.879 20.09 0.0 0 0.00 0.00 0.00 0.00
07/20/19 8:58:24 PM 265 3.0 15.0 61 50 76.2 76.7 29.879 20.09 0.0 0 0.00 0.00 0.00 0.00
07/20/19 8:59:35 PM 265 2.0 15.0 61 50 76.2 76.6 29.883 20.09 0.0 0 0.00 0.00 0.00 0.00
07/20/19 9:00:28 PM 265 1.0 15.0 61 50 76.2 76.6 29.883 20.09 0.0 0 0.00 0.00 0.00 0.00
07/20/19 9:01:18 PM 265 0.0 15.0 61 50 76.2 76.5 29.883 20.09 0.0 0 0.00 0.00 0.00 0.00
07/20/19 9:02:29 PM 265 0.0 15.0 61 51 76.2 76.5 29.883 20.09 0.0 0 0.00 0.00 0.00 0.00
07/20/19 9:03:19 PM 265 2.0 15.0 61 51 76.2 76.4 29.883 20.09 0.0 0 0.00 0.00 0.00 0.00
07/20/19 9:04:33 PM 266 2.0 15.0 61 51 76.2 76.3 29.886 20.09 0.0 0 0.00 0.00 0.00 0.00
07/20/19 9:05:26 PM 284 3.0 15.0 61 51 76.2 76.3 29.886 20.09 0.0 0 0.00 0.00 0.00 0.00
07/20/19 9:06:19 PM 284 1.0 15.0 61 51 76.2 76.2 29.887 20.09 0.0 0 0.00 0.00 0.00 0.00
07/20/19 9:07:27 PM 284 0.0 15.0 61 51 76.2 76.2 29.886 20.09 0.0 0 0.00 0.00 0.00 0.00
07/20/19 9:08:17 PM 284 0.0 15.0 61 51 76.1 76.2 29.887 20.09 0.0 0 0.00 0.00 0.00 0.00
07/20/19 9:09:31 PM 284 0.0 15.0 61 51 76.2 76.1 29.889 20.09 0.0 0 0.00 0.00 0.00 0.00
07/20/19 9:10:21 PM 285 0.0 15.0 61 51 76.2 76.0 29.889 20.09 0.0 0 0.00 0.00 0.00 0.00
07/20/19 9:11:35 PM 285 1.0 15.0 61 51 76.2 76.0 29.887 20.09 0.0 0 0.00 0.00 0.00 0.00
07/20/19 9:12:25 PM 285 0.0 15.0 61 51 76.2 75.9 29.887 20.09 0.0 0 0.00 0.00 0.00 0.00
07/20/19 9:13:18 PM 285 0.0 15.0 61 51 76.2 75.9 29.887 20.09 0.0 0 0.00 0.00 0.00 0.00
07/20/19 9:14:29 PM 285 1.0 15.0 61 51 76.2 75.8 29.888 20.09 0.0 0 0.00 0.00 0.00 0.00
07/20/19 9:15:25 PM 285 1.0 15.0 61 51 76.2 75.8 29.888 20.09 0.0 0 0.00 0.00 0.00 0.00
07/20/19 9:16:37 PM 285 2.0 15.0 61 52 76.2 75.7 29.888 20.09 0.0 0 0.00 0.00 0.00 0.00
07/20/19 9:17:24 PM 285 0.0 15.0 61 52 76.2 75.7 29.888 20.09 0.0 0 0.00 0.00 0.00 0.00
07/20/19 9:18:17 PM 285 0.0 15.0 61 52 76.2 75.6 29.890 20.09 0.0 0 0.00 0.00 0.00 0.00
07/20/19 9:19:28 PM 285 0.0 15.0 61 52 76.2 75.6 29.890 20.09 0.0 0 0.00 0.00 0.00 0.00
07/20/19 9:20:21 PM 285 0.0 15.0 61 52 76.2 75.5 29.892 20.09 0.0 0 0.00 0.00 0.00 0.00
07/20/19 9:21:32 PM 285 0.0 15.0 61 52 76.2 75.4 29.894 20.09 0.0 0 0.00 0.00 0.00 0.00
07/20/19 9:22:25 PM 285 0.0 15.0 61 52 76.2 75.3 29.894 20.09 0.0 0 0.00 0.00 0.00 0.00
07/20/19 9:23:33 PM 285 0.0 15.0 61 52 76.2 75.2 29.892 20.09 0.0 0 0.00 0.00 0.00 0.00
07/20/19 9:24:23 PM 285 0.0 15.0 61 52 76.2 75.2 29.892 20.09 0.0 0 0.00 0.00 0.00 0.00
07/20/19 9:25:19 PM 285 0.0 15.0 61 53 76.2 75.1 29.894 20.09 0.0 0 0.00 0.00 0.00 0.00
07/20/19 9:26:30 PM 285 0.0 15.0 61 53 76.2 75.0 29.894 20.09 0.0 0 0.00 0.00 0.00 0.00
07/20/19 9:27:24 PM 285 0.0 15.0 61 53 76.2 75.0 29.894 20.09 0.0 0 0.00 0.00 0.00 0.00
07/20/19 9:28:32 PM 285 0.0 15.0 61 53 76.2 74.9 29.895 20.09 0.0 0 0.00 0.00 0.00 0.00
07/20/19 9:29:25 PM 285 0.0 15.0 61 53 76.2 74.8 29.895 20.09 0.0 0 0.00 0.00 0.00 0.00
07/20/19 9:30:18 PM 285 0.0 15.0 61 53 76.2 74.8 29.893 20.09 0.0 0 0.00 0.00 0.00 0.00
07/20/19 9:31:29 PM 285 0.0 15.0 61 54 76.2 74.7 29.896 20.09 0.0 0 0.00 0.00 0.00 0.00
07/20/19 9:32:19 PM 285 0.0 15.0 61 54 76.2 74.6 29.896 20.09 0.0 0 0.00 0.00 0.00 0.00
07/20/19 9:33:27 PM 285 0.0 15.0 61 54 76.2 74.6 29.897 20.09 0.0 0 0.00 0.00 0.00 0.00
07/20/19 9:34:20 PM 285 0.0 15.0 61 54 76.2 74.5 29.896 20.09 0.0 0 0.00 0.00 0.00 0.00
07/20/19 9:35:35 PM 285 0.0 15.0 61 54 76.2 74.5 29.895 20.09 0.0 0 0.00 0.00 0.00 0.00
07/20/19 9:36:28 PM 285 0.0 15.0 61 54 76.2 74.4 29.895 20.09 0.0 0 0.00 0.00 0.00 0.00
07/20/19 9:37:21 PM 285 0.0 15.0 61 54 76.2 74.4 29.896 20.09 0.0 0 0.00 0.00 0.00 0.00
07/20/19 9:38:35 PM 285 0.0 15.0 61 54 76.2 74.3 29.899 20.09 0.0 0 0.00 0.00 0.00 0.00
07/20/19 9:39:21 PM 285 0.0 15.0 61 54 76.2 74.3 29.899 20.09 0.0 0 0.00 0.00 0.00 0.00
07/20/19 9:40:36 PM 285 0.0 15.0 61 54 76.2 74.3 29.897 20.09 0.0 0 0.00 0.00 0.00 0.00
07/20/19 9:41:28 PM 285 0.0 15.0 61 54 76.2 74.2 29.897 20.09 0.0 0 0.00 0.00 0.00 0.00
07/20/19 9:42:21 PM 285 0.0 15.0 61 54 76.2 74.2 29.898 20.09 0.0 0 0.00 0.00 0.00 0.00
07/20/19 9:43:36 PM 285 0.0 15.0 61 54 76.2 74.2 29.899 20.09 0.0 0 0.00 0.00 0.00 0.00
07/20/19 9:44:23 PM 285 0.0 15.0 61 54 76.2 74.2 29.899 20.09 0.0 0 0.00 0.00 0.00 0.00
07/20/19 9:45:19 PM 285 0.0 15.0 61 54 76.2 74.1 29.899 20.09 0.0 0 0.00 0.00 0.00 0.00
07/20/19 9:46:30 PM 285 0.0 15.0 61 54 76.2 74.1 29.900 20.09 0.0 0 0.00 0.00 0.00 0.00
07/20/19 9:47:20 PM 285 0.0 15.0 61 54 76.2 74.1 29.900 20.09 0.0 0 0.00 0.00 0.00 0.00
07/20/19 9:48:35 PM 285 0.0 15.0 61 54 76.2 74.0 29.901 20.09 0.0 0 0.00 0.00 0.00 0.00
07/20/19 9:49:24 PM 285 0.0 15.0 61 55 76.2 73.9 29.901 20.09 0.0 0 0.00 0.00 0.00 0.00
07/20/19 9:50:35 PM 285 0.0 15.0 61 55 76.2 73.8 29.902 20.09 0.0 0 0.00 0.00 0.00 0.00

University Police wind advisory reference

For campus closure information please call the campus Emergency Hotline at (909) 537-5999

© All rights reserved. Unauthorized duplication or distribution is prohibited

Never base important decisions on this or any weather information obtained from the Internet

California State University, San Bernardino
5500 University Parkway, San Bernardino, CA. 92407
Phone: (909) 537-5108, Email: Weather Webmaster
Last Updated: